[[{"header":{"parameterUnit":"m.s-1","parameterCategory":1,"la1":30.6,"la2":29.2853,"lo1":-89.7004,"lo2":-87.6739,"dy":0.0162,"dx":0.0183,"nx":112,"ny":82,"refTime":"2024-08-04T12:00:00:Z","depth":0,"parameterNumber":2,"parameterNumberName":"U-component_of_WINDS"},"data":[0.0,0.0,0.0,0.0,0.0,0.0,0.0,0.0,0.0,0.0,0.0,0.0,0.0,0.0,0.0,0.0,0.0,0.0,0.0,0.0,0.0,0.0,0.0,0.0,0.0,0.0,0.0,0.0,0.0,0.0,0.0,0.0,0.0,0.0,0.0,0.0,0.0,0.0,0.0,0.0,0.0,0.0,0.0,0.0,0.0,0.0,0.0,0.0,0.0,0.0,0.0,0.0,0.0,0.0,0.0,0.0,0.0,0.0,0.0,0.0,0.0,0.0,0.0,0.0,0.0,0.0,0.0,0.0,0.0,0.0,0.0,0.0,0.0,0.0,0.0,0.0,0.0,0.0,0.0,0.0,0.0,0.0,0.0,0.0,0.0,0.0,0.0,0.0,0.0,0.0,-1.4796,-1.5975,-1.7731,-1.8827,-1.8827,-1.8454,-1.7215,-1.4871,0.0,0.0,0.0,0.0,0.0,0.0,0.0,0.0,0.0,0.0,0.0,0.0,0.0,0.0,0.0,0.0,0.0,0.0,0.0,0.0,0.0,0.0,0.0,0.0,0.0,0.0,0.0,0.0,0.0,0.0,0.0,0.0,0.0,0.0,0.0,0.0,0.0,0.0,0.0,0.0,0.0,0.0,0.0,0.0,0.0,0.0,0.0,0.0,0.0,0.0,0.0,0.0,0.0,0.0,0.0,0.0,0.0,0.0,0.0,0.0,0.0,0.0,0.0,0.0,0.0,0.0,0.0,0.0,0.0,0.0,0.0,0.0,0.0,0.0,0.0,0.0,0.0,0.0,0.0,0.0,0.0,0.0,0.0,0.0,0.0,0.0,0.0,0.0,0.0,0.0,0.0,0.0,0.0,0.0,0.0,0.0,0.0,0.0,0.0,0.0,0.0,0.0,0.0,0.0,-1.4463,-1.7549,-1.8454,-1.8827,-1.8827,-1.8232,-1.7064,-1.5221,0.0,0.0,0.0,0.0,0.0,0.0,0.0,0.0,0.0,0.0,0.0,0.0,0.0,0.0,0.0,0.0,0.0,0.0,0.0,0.0,0.0,0.0,0.0,0.0,0.0,0.0,0.0,0.0,0.0,0.0,0.0,0.0,0.0,0.0,0.0,0.0,0.0,0.0,0.0,0.0,0.0,0.0,0.0,0.0,0.0,0.0,0.0,0.0,0.0,0.0,0.0,0.0,0.0,0.0,0.0,0.0,0.0,0.0,0.0,0.0,0.0,0.0,0.0,0.0,0.0,0.0,0.0,0.0,0.0,0.0,0.0,0.0,0.0,0.0,0.0,0.0,0.0,0.0,0.0,0.0,0.0,0.0,0.0,0.0,0.0,0.0,0.0,0.0,0.0,0.0,0.0,0.0,0.0,0.0,0.0,0.0,0.0,0.0,0.0,0.0,0.0,0.0,0.0,-1.4004,-1.5498,-1.8237,-1.8732,-1.8827,-1.8827,-1.8184,-1.6945,-1.5014,-1.4053,0.0,0.0,0.0,0.0,0.0,0.0,0.0,0.0,0.0,0.0,0.0,0.0,0.0,0.0,0.0,0.0,0.0,0.0,0.0,0.0,0.0,0.0,0.0,0.0,0.0,0.0,0.0,0.0,0.0,0.0,0.0,0.0,0.0,0.0,0.0,0.0,0.0,0.0,0.0,0.0,0.0,0.0,0.0,0.0,0.0,0.0,0.0,0.0,0.0,0.0,0.0,0.0,0.0,0.0,0.0,0.0,0.0,0.0,0.0,0.0,0.0,0.0,0.0,0.0,0.0,0.0,0.0,0.0,0.0,0.0,0.0,0.0,0.0,0.0,0.0,0.0,0.0,0.0,0.0,0.0,0.0,0.0,0.0,0.0,0.0,0.0,0.0,0.0,0.0,0.0,0.0,0.0,0.0,0.0,0.0,0.0,0.0,0.0,0.0,0.0,0.0,0.0,-1.5637,-1.6775,-1.8637,-1.8827,-1.8827,-1.8827,-1.7954,-1.6611,-1.4688,-1.3425,0.0,0.0,0.0,0.0,0.0,0.0,0.0,0.0,0.0,0.0,0.0,0.0,0.0,0.0,0.0,0.0,0.0,0.0,0.0,0.0,0.0,0.0,0.0,0.0,0.0,0.0,0.0,0.0,0.0,0.0,0.0,0.0,0.0,0.0,0.0,0.0,0.0,0.0,0.0,0.0,0.0,0.0,0.0,0.0,0.0,0.0,0.0,0.0,0.0,0.0,0.0,0.0,0.0,0.0,0.0,0.0,0.0,0.0,0.0,0.0,0.0,0.0,0.0,0.0,0.0,0.0,0.0,0.0,0.0,0.0,0.0,0.0,0.0,0.0,0.0,0.0,0.0,0.0,0.0,0.0,0.0,0.0,0.0,0.0,0.0,0.0,0.0,0.0,0.0,0.0,0.0,0.0,0.0,0.0,0.0,0.0,0.0,0.0,0.0,0.0,0.0,0.0,-1.5928,-1.7938,-1.874,-1.8827,-1.8827,-1.8827,-1.7286,-1.5833,-1.464,-1.2726,0.0,0.0,0.0,0.0,0.0,0.0,0.0,0.0,0.0,0.0,0.0,0.0,0.0,0.0,0.0,0.0,0.0,0.0,0.0,0.0,0.0,0.0,0.0,0.0,0.0,0.0,0.0,0.0,0.0,0.0,0.0,0.0,0.0,0.0,0.0,0.0,0.0,0.0,0.0,0.0,0.0,0.0,0.0,0.0,0.0,0.0,0.0,0.0,0.0,0.0,0.0,0.0,0.0,0.0,0.0,0.0,0.0,0.0,0.0,0.0,0.0,0.0,0.0,0.0,0.0,0.0,0.0,0.0,0.0,0.0,0.0,0.0,0.0,0.0,0.0,0.0,0.0,0.0,0.0,0.0,0.0,0.0,0.0,0.0,0.0,0.0,0.0,0.0,0.0,0.0,0.0,0.0,0.0,0.0,0.0,0.0,0.0,0.0,0.0,0.0,0.0,0.0,-1.5533,-1.7478,-1.8708,-1.8827,-1.8827,-1.8827,-1.8341,-1.7015,-1.4744,0.0,0.0,0.0,0.0,0.0,0.0,0.0,0.0,0.0,0.0,0.0,0.0,0.0,0.0,0.0,0.0,0.0,0.0,0.0,0.0,0.0,0.0,0.0,0.0,0.0,0.0,0.0,0.0,0.0,0.0,0.0,0.0,0.0,0.0,0.0,0.0,0.0,0.0,0.0,0.0,0.0,0.0,0.0,0.0,0.0,0.0,0.0,0.0,0.0,0.0,0.0,0.0,0.0,0.0,0.0,0.0,0.0,0.0,0.0,0.0,0.0,0.0,0.0,0.0,0.0,0.0,0.0,0.0,0.0,0.0,0.0,0.0,0.0,0.0,0.0,0.0,0.0,0.0,0.0,0.0,0.0,0.0,0.0,0.0,0.0,0.0,0.0,0.0,0.0,0.0,0.0,0.0,0.0,0.0,0.0,0.0,0.0,0.0,0.0,0.0,0.0,0.0,-1.3487,-1.5682,-1.7557,-1.8716,-1.8827,-1.8827,-1.8827,-1.8651,-1.7473,-1.4752,0.0,0.0,0.0,0.0,0.0,0.0,0.0,0.0,0.0,0.0,0.0,0.0,0.0,0.0,0.0,0.0,0.0,0.0,0.0,0.0,0.0,0.0,0.0,0.0,0.0,0.0,0.0,0.0,0.0,0.0,0.0,0.0,0.0,0.0,0.0,0.0,0.0,0.0,0.0,0.0,0.0,0.0,0.0,0.0,0.0,0.0,0.0,0.0,0.0,0.0,0.0,0.0,0.0,0.0,0.0,0.0,0.0,0.0,0.0,0.0,0.0,0.0,0.0,0.0,0.0,0.0,0.0,0.0,0.0,0.0,0.0,0.0,0.0,0.0,0.0,0.0,0.0,0.0,0.0,0.0,0.0,0.0,0.0,0.0,0.0,0.0,0.0,0.0,0.0,0.0,0.0,0.0,0.0,0.0,0.0,0.0,0.0,0.0,0.0,0.0,0.0,0.0,-1.4229,-1.6704,-1.8438,-1.8788,-1.8827,-1.8827,-1.8827,-1.8037,-1.6665,0.0,0.0,0.0,0.0,0.0,0.0,0.0,0.0,0.0,0.0,0.0,0.0,0.0,0.0,0.0,0.0,0.0,0.0,0.0,0.0,0.0,0.0,0.0,0.0,0.0,0.0,0.0,0.0,0.0,0.0,0.0,0.0,0.0,0.0,0.0,0.0,0.0,0.0,0.0,0.0,0.0,0.0,0.0,0.0,0.0,0.0,0.0,0.0,0.0,0.0,0.0,0.0,0.0,0.0,0.0,0.0,0.0,0.0,0.0,0.0,0.0,0.0,0.0,0.0,0.0,0.0,0.0,0.0,0.0,0.0,0.0,0.0,0.0,0.0,0.0,0.0,0.0,0.0,0.0,0.0,0.0,0.0,0.0,0.0,0.0,0.0,0.0,0.0,0.0,0.0,0.0,0.0,0.0,0.0,0.0,0.0,0.0,0.0,0.0,0.0,0.0,0.0,0.0,-1.4022,-1.6742,-1.8716,-1.8812,-1.8827,-1.8827,-1.8827,-1.917,-1.8118,-1.4824,0.0,0.0,0.0,0.0,0.0,0.0,0.0,0.0,0.0,0.0,0.0,0.0,0.0,0.0,0.0,0.0,0.0,0.0,0.0,0.0,0.0,0.0,0.0,0.0,0.0,0.0,0.0,0.0,0.0,0.0,0.0,0.0,0.0,0.0,0.0,0.0,0.0,0.0,0.0,0.0,0.0,0.0,0.0,0.0,0.0,0.0,0.0,0.0,0.0,0.0,0.0,0.0,0.0,0.0,0.0,0.0,0.0,0.0,0.0,0.0,0.0,0.0,0.0,0.0,0.0,0.0,0.0,0.0,0.0,0.0,0.0,0.0,0.0,0.0,0.0,0.0,0.0,0.0,0.0,0.0,0.0,0.0,0.0,0.0,0.0,0.0,0.0,0.0,0.0,0.0,0.0,0.0,0.0,0.0,0.0,0.0,0.0,0.0,0.0,0.0,0.0,0.0,-1.439,-1.7007,-1.8827,-1.8827,-1.8827,-1.8827,-1.8827,-1.9877,-1.9108,-1.5692,0.0,0.0,0.0,0.0,0.0,0.0,0.0,0.0,0.0,0.0,0.0,0.0,0.0,0.0,0.0,0.0,0.0,0.0,0.0,0.0,0.0,0.0,0.0,0.0,0.0,0.0,0.0,0.0,0.0,0.0,0.0,0.0,0.0,0.0,0.0,0.0,0.0,0.0,0.0,0.0,0.0,0.0,0.0,0.0,0.0,0.0,0.0,0.0,0.0,0.0,0.0,0.0,0.0,0.0,0.0,0.0,0.0,0.0,0.0,0.0,0.0,0.0,0.0,0.0,0.0,0.0,0.0,0.0,0.0,0.0,0.0,0.0,0.0,0.0,0.0,0.0,0.0,0.0,0.0,0.0,0.0,0.0,0.0,0.0,0.0,0.0,0.0,0.0,0.0,0.0,0.0,0.0,0.0,0.0,0.0,0.0,0.0,0.0,0.0,0.0,0.0,0.0,-1.5094,-1.7318,-1.8827,-1.8827,-1.8827,-1.8827,-1.8827,-2.0173,-1.9829,-1.7064,0.0,0.0,0.0,0.0,0.0,0.0,0.0,0.0,0.0,0.0,0.0,0.0,0.0,0.0,0.0,0.0,0.0,0.0,0.0,0.0,0.0,0.0,0.0,0.0,0.0,0.0,0.0,0.0,0.0,0.0,0.0,0.0,0.0,0.0,0.0,0.0,0.0,0.0,0.0,0.0,0.0,0.0,0.0,0.0,0.0,0.0,0.0,0.0,0.0,0.0,0.0,0.0,0.0,0.0,0.0,0.0,0.0,0.0,0.0,0.0,-1.045,-0.8619,0.0,0.0,0.0,0.0,0.0,0.0,0.0,0.0,0.0,0.0,0.0,0.0,0.0,0.0,0.0,0.0,0.0,0.0,0.0,0.0,0.0,0.0,0.0,0.0,0.0,0.0,0.0,0.0,0.0,0.0,0.0,0.0,0.0,0.0,0.0,0.0,0.0,0.0,0.0,0.0,-1.5094,-1.7318,-1.8827,-1.8827,-1.8827,-1.8827,-1.8827,-2.0173,-1.9937,-1.7493,-1.7746,0.0,0.0,0.0,0.0,0.0,0.0,0.0,0.0,0.0,0.0,0.0,0.0,0.0,0.0,0.0,0.0,0.0,0.0,0.0,0.0,0.0,0.0,0.0,0.0,0.0,0.0,0.0,0.0,0.0,0.0,0.0,0.0,0.0,0.0,0.0,0.0,0.0,0.0,0.0,0.0,0.0,0.0,0.0,0.0,0.0,0.0,0.0,0.0,0.0,0.0,0.0,0.0,0.0,0.0,0.0,0.0,0.0,0.0,0.0,-1.2954,-1.1566,0.0,0.0,0.0,0.0,0.0,0.0,0.0,0.0,0.0,0.0,0.0,0.0,0.0,0.0,0.0,0.0,0.0,0.0,0.0,0.0,0.0,0.0,0.0,0.0,0.0,0.0,0.0,0.0,0.0,0.0,0.0,0.0,0.0,0.0,0.0,0.0,0.0,0.0,0.0,0.0,-1.5562,-1.7525,-1.8827,-1.8827,-1.8827,-1.8827,-1.8827,-2.0347,-2.0594,-1.8966,-1.9344,0.0,0.0,0.0,0.0,0.0,0.0,0.0,0.0,0.0,0.0,0.0,0.0,0.0,0.0,0.0,0.0,0.0,0.0,0.0,0.0,0.0,0.0,0.0,0.0,0.0,0.0,0.0,0.0,0.0,0.0,0.0,0.0,0.0,0.0,0.0,0.0,0.0,0.0,0.0,0.0,0.0,0.0,0.0,0.0,0.0,0.0,0.0,0.0,0.0,0.0,0.0,0.0,0.0,-1.5045,-1.5831,-1.5954,-1.6327,-1.7238,-1.829,-1.5842,-1.5232,-1.5738,-1.3536,0.0,0.0,0.0,0.0,0.0,0.0,0.0,0.0,0.0,0.0,0.0,0.0,0.0,0.0,0.0,0.0,0.0,0.0,0.0,0.0,0.0,0.0,-1.7109,-1.7109,-1.7593,-1.73,-1.4786,0.0,0.0,0.0,0.0,0.0,0.0,0.0,0.0,0.0,0.0,0.0,-1.6333,-1.7858,-1.8851,-1.8915,-1.8867,-1.8827,-1.8827,-2.0619,-2.1286,-2.0462,-2.1031,-2.0597,0.0,0.0,0.0,0.0,0.0,0.0,0.0,0.0,0.0,0.0,0.0,0.0,0.0,0.0,0.0,0.0,0.0,0.0,0.0,0.0,0.0,0.0,0.0,0.0,0.0,0.0,0.0,0.0,0.0,0.0,0.0,0.0,-0.3932,-0.4305,0.0,0.0,0.0,0.0,0.0,0.0,0.0,0.0,0.0,0.0,0.0,0.0,0.0,-0.9375,-0.9738,-1.371,-1.5831,-1.6017,-1.8918,-2.0377,-2.0413,-2.0387,-2.0723,-2.1126,-2.0822,0.0,-1.725,-1.5712,0.0,0.0,0.0,0.0,0.0,0.0,0.0,0.0,0.0,0.0,0.0,0.0,0.0,0.0,0.0,0.0,0.0,0.0,0.0,0.0,0.0,0.0,-1.9455,-1.9455,-1.9558,-1.947,-1.9052,-1.6405,-1.4183,-1.438,-1.326,-1.2387,0.0,0.0,0.0,0.0,0.0,0.0,-1.739,-1.8303,-1.8947,-1.9264,-1.9018,-1.8827,-1.8827,-2.0619,-2.1493,-2.0948,-2.2182,-2.2206,-2.0635,-1.9819,0.0,0.0,0.0,0.0,0.0,0.0,0.0,0.0,0.0,0.0,0.0,0.0,0.0,0.0,0.0,0.0,0.0,0.0,0.0,0.0,0.0,0.0,0.0,0.0,0.0,0.0,0.0,0.0,0.0,-0.2325,-0.3304,-0.3661,-0.3577,-0.3375,0.0,0.0,0.0,0.0,0.0,0.0,0.0,0.0,0.0,-0.9431,-1.0249,-1.1414,-1.3058,-1.5856,-1.7744,-1.8602,-2.0934,-2.2008,-2.2008,-2.2198,-2.2352,-2.2476,-2.2293,-2.1568,-2.0323,-1.8661,-1.7251,-1.6069,0.0,0.0,0.0,0.0,-1.8682,-1.9135,-1.9889,-2.0486,-2.0837,-1.9826,0.0,0.0,0.0,0.0,0.0,0.0,0.0,-1.9514,-2.0251,-2.0985,-2.1487,-2.1678,-2.1395,-2.1044,-2.1044,-1.963,-1.8018,-1.7032,-1.6087,-1.5134,-1.4119,-1.3695,0.0,0.0,0.0,-1.6937,-1.7938,-1.8851,-1.9399,-1.9376,-1.9225,-1.905,-1.8843,-2.0619,-2.1621,-2.1438,-2.3008,-2.3567,-2.2585,-2.1737,-2.0401,0.0,0.0,0.0,0.0,0.0,0.0,0.0,0.0,0.0,0.0,0.0,0.0,0.0,0.0,0.0,0.0,0.0,0.0,0.0,0.0,0.0,0.0,0.0,0.0,0.0,0.0,0.0,0.0,-0.2874,-0.3912,-0.4034,-0.4898,-0.5054,0.0,0.0,0.0,0.0,0.0,0.0,-0.8762,-0.91,-1.0008,-1.169,-1.2293,-1.3699,-1.5844,-1.7774,-1.9222,-2.0421,-2.2011,-2.2747,-2.2754,-2.3003,-2.3106,-2.3098,-2.2857,-2.2862,-2.311,-2.1101,-2.0047,-1.9732,-1.976,-1.991,-2.0334,-2.2134,-2.2699,-2.2734,-2.3803,-2.4392,-2.4537,-2.3338,-2.2971,-2.2645,-2.1015,0.0,0.0,0.0,0.0,-2.2399,-2.3296,-2.3287,-2.298,-2.3246,-2.2698,-2.1957,-2.1957,-2.1759,-2.106,-1.9304,-1.8613,-1.7755,-1.6007,-1.5634,0.0,-1.5697,-1.6833,-1.7954,-1.8732,-1.9439,-1.9805,-1.9654,-1.9837,-1.9722,-1.9358,-2.1121,-2.2162,-2.205,-2.356,-2.4395,-2.4064,-2.3277,-2.2252,-2.0979,0.0,0.0,0.0,0.0,0.0,0.0,0.0,0.0,0.0,0.0,0.0,0.0,0.0,0.0,0.0,0.0,0.0,0.0,0.0,0.0,0.0,0.0,0.0,0.0,0.0,0.0,0.0,0.0,0.0,-0.7379,-0.8494,0.0,0.0,0.0,0.0,-0.7909,-0.8336,-0.9331,-1.1082,-1.1447,-1.2221,-1.3803,-1.5561,-1.656,-1.6581,-1.9474,-2.1015,-2.1029,-2.2438,-2.3084,-2.3084,-2.3098,-2.3106,-2.3106,-2.3091,-2.3822,-2.4814,-2.2154,-2.1783,-2.276,-2.2277,-2.2722,-2.4027,-2.539,-2.5968,-2.6014,-2.6387,-2.6937,-2.7513,-2.7265,-2.6468,-2.57,-2.5391,-2.4023,0.0,0.0,-2.3886,-2.4528,-2.4775,-2.4186,-2.3676,-2.3694,-2.2782,-2.1957,-2.1957,-2.1941,-2.1703,-2.0941,-2.0234,-1.9519,-1.8748,0.0,-1.8232,-1.8565,-1.8692,-1.9121,-2.0154,-2.0043,-1.9987,-2.0313,-2.1003,-2.1208,-2.0729,-2.2527,-2.3535,-2.3038,-2.3907,-2.4529,-2.4509,-2.4053,-2.336,-2.2408,-2.0565,0.0,0.0,0.0,0.0,0.0,0.0,0.0,0.0,0.0,0.0,0.0,0.0,0.0,0.0,0.0,0.0,0.0,0.0,0.0,0.0,0.0,0.0,0.0,0.0,0.0,0.0,0.0,0.0,-0.7384,-0.9164,0.0,-0.8681,-0.9321,-0.9937,-1.0175,-1.1251,-1.2273,-1.3224,-1.338,-1.4248,-1.5849,-1.5633,-1.6353,-1.8134,-1.9242,-2.0182,-2.1076,-2.2473,-2.3106,-2.3106,-2.3106,-2.3106,-2.3106,-2.3106,-2.3845,-2.5032,-2.4057,-2.4308,-2.5326,-2.5717,-2.6074,-2.6655,-2.7924,-2.843,-2.8449,-2.8492,-2.9004,-2.9529,-2.9595,-2.9112,-2.8632,-2.8462,-2.7744,-2.7053,-2.7602,-2.764,-2.7729,-2.8121,-2.7342,-2.6592,-2.6592,-2.5738,-2.4876,-2.4876,-2.4359,-2.3687,-2.3168,-2.1867,-2.0662,-1.9955,-1.9725,-1.9542,-1.9225,-1.955,-2.0256,-2.132,-2.1462,-2.1776,-2.2434,-2.2681,-2.2533,-2.1895,-2.3019,-2.3564,-2.3125,-2.4003,-2.454,-2.454,-2.4385,-2.3867,-2.2956,-2.1714,-1.9955,0.0,0.0,0.0,0.0,0.0,0.0,0.0,0.0,0.0,0.0,0.0,0.0,0.0,0.0,0.0,0.0,0.0,0.0,0.0,0.0,0.0,0.0,0.0,0.0,0.0,-0.7583,-0.9237,-0.8027,-1.027,-1.1342,-1.0088,-1.1237,-1.2078,-1.2272,-1.3318,-1.4161,-1.4501,-1.4657,-1.5177,-1.6208,-1.6343,-1.7114,-1.9036,-1.9928,-2.0816,-2.1839,-2.2731,-2.3106,-2.3106,-2.3106,-2.3106,-2.3106,-2.3106,-2.4085,-2.5684,-2.5684,-2.6618,-2.8039,-2.8117,-2.8487,-2.8955,-2.9773,-3.0019,-3.0019,-3.0123,-3.0363,-3.0752,-3.0898,-3.0802,-3.0617,-3.0553,-3.0253,-3.0067,-3.0367,-3.0243,-3.0036,-3.0191,-2.9333,-2.8408,-2.8262,-2.7356,-2.6481,-2.6481,-2.5954,-2.5344,-2.5072,-2.3245,-2.1608,-2.102,-2.1216,-2.1265,-2.0412,-2.1319,-2.2173,-2.2347,-2.2846,-2.3356,-2.373,-2.4082,-2.3946,-2.3129,-2.3965,-2.4256,-2.358,-2.4176,-2.454,-2.454,-2.4395,-2.4033,-2.3432,-2.2201,-2.0741,-1.9065,0.0,0.0,0.0,0.0,0.0,0.0,0.0,0.0,0.0,0.0,0.0,0.0,0.0,0.0,0.0,0.0,0.0,0.0,0.0,0.0,0.0,0.0,0.0,-0.7114,-0.915,-1.0397,-0.9699,-1.2039,-1.3319,-1.2227,-1.3315,-1.4123,-1.4317,-1.4525,-1.4728,-1.4922,-1.4931,-1.4931,-1.5062,-1.7625,-1.9036,-1.9164,-2.1706,-2.3106,-2.3106,-2.3106,-2.3106,-2.3106,-2.3106,-2.3106,-2.3106,-2.3106,-2.4579,-2.7013,-2.7013,-2.8591,-3.0772,-2.9412,-2.9776,-3.0889,-3.0889,-3.0889,-3.0889,-3.1218,-3.1277,-3.1144,-3.1472,-3.1542,-3.1422,-3.1422,-3.1412,-3.1391,-3.1391,-3.1391,-3.1278,-3.0822,-2.9806,-2.8898,-2.8369,-2.7492,-2.6617,-2.6617,-2.6599,-2.659,-2.659,-2.4453,-2.2496,-2.2153,-2.3028,-2.3436,-2.2288,-2.4062,0.0,-2.3324,-2.4092,-2.4647,-2.4251,-2.5099,-2.5342,-2.439,-2.5331,-2.5502,-2.4623,-2.455,-2.455,-2.456,-2.4146,-2.3919,-2.3898,-2.2097,-2.0928,-2.0462,0.0,0.0,0.0,0.0,0.0,0.0,0.0,0.0,0.0,0.0,0.0,0.0,0.0,0.0,0.0,0.0,0.0,0.0,0.0,0.0,0.0,-0.9057,-1.0178,-1.0209,-1.1563,-1.2757,-1.2879,-1.3761,-1.4257,-1.4159,-1.4449,-1.47,-1.4756,-1.4818,-1.4874,-1.4931,-1.4931,-1.5834,-1.7753,-1.7625,-1.9024,-2.1957,-2.1713,-2.2097,-2.3106,-2.3106,-2.3106,-2.3106,-2.3106,-2.3106,-2.3106,-2.3106,-2.4579,-2.7013,-2.7013,-2.8591,-3.0889,-3.0518,-3.0528,-3.0889,-3.0889,-3.0889,-3.1005,-3.145,-3.1592,-3.1721,-3.2189,-3.2344,-3.2364,-3.2364,-3.2126,-3.1857,-3.1857,-3.1619,-3.135,-3.1215,-3.0956,-3.0687,-3.0564,-3.0062,-2.9595,-2.9595,-2.8564,-2.7678,-2.7678,-2.6507,-2.5422,-2.5315,-2.529,-2.5218,-2.4898,-2.529,-2.5581,-2.5871,-2.591,-2.5891,-2.5766,-2.6376,-2.634,-2.4912,-2.5503,-2.5637,-2.5078,-2.4726,-2.4695,-2.5026,-2.4923,-2.4695,-2.4364,-2.2884,-2.189,0.0,0.0,0.0,0.0,0.0,0.0,0.0,0.0,0.0,0.0,0.0,0.0,0.0,0.0,0.0,0.0,0.0,0.0,0.0,0.0,0.0,0.0,-1.0907,-1.2023,-1.2705,-1.3361,-1.3944,-1.4392,-1.4633,-1.4804,-1.4922,-1.4931,-1.4931,-1.4931,-1.4931,-1.4969,-1.5054,-1.558,-1.6792,-1.8455,-1.8841,-2.027,-2.261,-2.2482,-2.2744,-2.3515,-2.3515,-2.3515,-2.3515,-2.3515,-2.3515,-2.3515,-2.4134,-2.5413,-2.7235,-2.7852,-2.9214,-3.0889,0.0,0.0,0.0,0.0,-3.0889,-3.1005,-3.145,-3.1672,-3.1903,-3.2373,-3.2612,-3.2727,-3.2727,-3.254,-3.2333,-3.2333,-3.2137,-3.1899,-3.1702,-3.165,-3.1609,-3.1422,-3.1174,-3.0977,-3.0977,-3.0048,-2.9276,-2.9276,-2.8573,0.0,-2.8019,-2.7389,-2.6802,-2.6258,-2.6912,-2.7338,-2.7256,-2.7439,-2.7523,-2.7332,-2.7411,-2.7153,-2.6029,-2.6053,0.0,0.0,0.0,-2.514,-2.5223,-2.5233,0.0,0.0,0.0,0.0,0.0,0.0,0.0,0.0,-2.3298,-2.3308,0.0,0.0,0.0,0.0,0.0,0.0,0.0,0.0,0.0,0.0,0.0,0.0,0.0,0.0,0.0,0.0,-1.2754,-1.3769,-1.4558,-1.4501,-1.4454,-1.4643,-1.4827,-1.4931,-1.4931,-1.4931,-1.4941,-1.4964,-1.4969,-1.5054,-1.5524,-1.6849,0.0,0.0,0.0,-2.2082,-2.222,-2.342,-2.4086,-2.4086,-2.4086,-2.4086,-2.4086,-2.4086,-2.4209,-2.4461,-2.5607,-2.6808,-2.7859,-2.9094,-3.0219,-3.0957,-3.0908,-3.0889,-3.0889,-3.0889,-3.0889,-3.1005,-3.1218,0.0,0.0,-3.2248,-3.2498,-3.2727,-3.2727,-3.2727,-3.2727,-3.2727,-3.2727,-3.2633,-3.2219,-3.2116,-3.2023,-3.1619,-3.1485,-3.1454,-3.1454,-3.1091,-3.076,-3.076,-3.0387,-3.0067,-3.0067,-2.9142,-2.8009,-2.7032,-2.8678,-2.9516,-2.8038,-2.8695,-2.9044,-2.8531,-2.8177,0.0,-2.7342,-2.6982,-2.6548,-2.6134,-2.6113,-2.5937,-2.5554,-2.5585,-2.5585,-2.5544,-2.5916,-2.631,-2.6724,-2.7531,-2.78,-2.751,-2.5399,-2.5275,0.0,0.0,0.0,0.0,0.0,0.0,0.0,0.0,0.0,0.0,0.0,0.0,0.0,0.0,0.0,-1.2212,-1.3341,-1.4307,-1.4804,-1.4837,-1.4827,-1.487,-1.4912,-1.4931,-1.4931,-1.4931,-1.5002,-1.5163,-1.5177,-1.5795,-1.7218,-1.7631,-1.8846,-2.1153,-2.1687,-2.249,-2.3681,-2.3949,-2.4086,-2.4086,-2.4086,0.0,-2.4086,-2.4086,-2.4712,-2.5856,-2.6112,-2.7571,-2.9747,-3.0002,-3.0643,-3.1367,-3.1025,-3.0889,-3.0889,-3.0889,-3.0995,-3.1218,-3.1556,-3.1903,-3.2248,-3.2498,-3.2612,-3.2727,-3.2727,-3.2727,0.0,-3.2727,-3.2727,-3.2716,-3.2623,-3.2602,-3.2571,-3.2489,-3.2188,-3.1909,-3.1909,-3.1557,-3.1247,-3.1247,-3.0874,-3.0553,-3.0553,-3.0021,-2.9554,-2.9333,-2.9669,-2.9858,-2.9546,-2.9425,-2.8942,-2.7998,-2.8228,-2.8043,-2.7141,-2.7425,-2.7624,-2.7531,-2.7521,-2.7489,-2.7407,-2.7759,-2.779,-2.7407,-2.7489,-2.7572,-2.7665,-2.7841,-2.8452,-2.9435,-2.8245,-2.7883,0.0,0.0,0.0,0.0,0.0,0.0,0.0,0.0,0.0,0.0,0.0,-0.9477,-1.053,0.0,-1.2245,-1.34,-1.408,-1.4581,-1.4889,-1.4931,-1.4931,-1.4931,-1.4931,-1.4931,-1.4931,-1.4931,-1.5274,-1.6267,-1.5628,-1.6295,-1.893,-1.9082,-2.008,-2.2378,-2.3202,-2.389,-2.4569,-2.4569,-2.4569,-2.4569,-2.4569,-2.4569,-2.4569,-2.534,-2.5982,-2.6759,-2.8168,-2.9462,-3.053,-3.0973,-3.1405,-3.1807,-3.1377,-3.1074,-3.0889,-3.0889,-3.1112,-3.1325,-3.1441,-3.1903,-3.2363,-3.2487,-3.2612,-3.2727,-3.2727,-3.2727,-3.2727,-3.2727,-3.2727,-3.2727,-3.2727,-3.2727,-3.2727,-3.2727,-3.2551,-3.2385,-3.2385,-3.2033,-3.1712,-3.1712,-3.134,-3.0957,-3.0729,-3.0491,-3.0263,-3.0036,-2.9994,-2.9994,-2.9994,-2.9798,-2.9435,-2.8884,-2.8911,-2.8746,-2.8228,-2.8225,-2.8266,-2.8266,-2.8266,-2.8266,-2.8266,-2.8493,-2.8504,-2.8276,-2.8493,-2.8618,-2.8618,-2.9073,-2.9663,-3.0336,-3.0098,-2.9994,0.0,0.0,0.0,0.0,0.0,0.0,0.0,0.0,-0.863,-1.0231,-1.0662,-1.1185,-1.2487,-1.2759,-1.33,-1.4473,-1.469,-1.4747,-1.4912,-1.4931,-1.4931,-1.4931,-1.4931,-1.4931,-1.4931,-1.4969,-1.5726,-1.7389,-1.6388,-1.7255,-2.0675,-2.0842,-2.1486,-2.3229,-2.4495,-2.5059,-2.5059,-2.5059,-2.5059,-2.5059,-2.5059,-2.5187,-2.5584,-2.6627,-2.7411,-2.8056,-3.066,-3.1522,-3.1323,-3.195,-3.2285,-3.2246,-3.1807,-3.1435,-3.1113,-3.0957,-3.1112,-3.1441,-3.1441,-3.1797,-3.2373,-3.2373,-3.2487,-3.2727,-3.2727,-3.2727,-3.2727,-3.2727,-3.2727,-3.2727,-3.2727,-3.2727,-3.2727,-3.2727,-3.2727,-3.2727,-3.2727,-3.2437,-3.2178,-3.2178,-3.1816,-3.1381,-3.1019,-3.0874,-3.0636,-3.0077,-2.9994,-2.9994,-2.9994,-2.9994,-2.9994,-2.9994,-2.9663,-2.9435,-2.9435,-2.9094,-2.8887,-2.8887,-2.8887,-2.8887,-2.8887,-2.8887,-2.8887,-2.8887,-2.9332,-2.957,-2.957,-3.0408,-3.0864,-3.0957,-3.1329,-3.1505,-0.5045,-0.6231,-0.7522,-0.8184,-0.885,-0.9996,0.0,0.0,-1.1885,-1.3232,-1.3667,-1.3848,-1.4065,-1.4252,-1.4482,-1.486,-1.4903,-1.4907,-1.4931,-1.4931,-1.4931,-1.4931,-1.4931,-1.4931,-1.4931,-1.5096,-1.5948,-1.7642,-1.7716,-1.9164,-2.2343,-2.2493,-2.3202,-2.4774,-2.5052,-2.5059,-2.5059,-2.5059,-2.5059,-2.5059,-2.5059,-2.5712,-2.6886,-2.7012,-2.8452,-3.0927,-3.2502,-3.3136,-3.3058,-3.2766,-3.2725,-3.2685,-3.2256,-3.207,-3.1934,-3.1172,-3.1228,-3.1787,-3.1787,-3.2143,-3.2612,-3.2612,-3.2727,-3.2727,-3.2727,-3.2727,-3.2727,-3.2727,-3.2727,-3.2727,-3.2727,-3.2727,-3.2727,-3.2727,-3.2727,-3.2727,-3.2727,-3.2696,-3.2654,-3.2654,-3.2282,-3.195,-3.1899,-3.1557,-3.0998,-3.0129,-2.9994,-2.9994,-2.9994,-2.9994,-2.9994,-2.9994,-2.9953,-2.9922,-2.9922,-2.987,-2.9839,-2.9839,-2.9839,-2.9839,-2.9839,-2.9839,-2.9839,-2.9839,-3.0294,-3.0532,-3.0532,-3.105,-3.1505,-3.1888,-3.194,-3.1971,-0.7083,-0.8146,-0.9022,0.0,-1.1,-1.1939,-1.2746,-1.2879,-1.3232,-1.4112,-1.444,-1.4534,-1.4652,-1.4747,-1.4837,0.0,-1.4931,-1.4931,-1.4931,-1.4931,-1.4889,-1.4775,-1.486,-1.4931,-1.4931,-1.5783,-1.7023,-1.9009,-1.9259,-2.084,-2.4181,-2.3652,-2.3795,-2.5329,-2.5194,-2.5059,-2.5059,-2.5059,-2.5059,-2.5059,-2.5059,-2.5846,-2.7153,-2.7941,-2.9891,-3.2502,-3.3155,-3.3418,-3.3408,-3.3232,-3.3164,-3.3115,-3.2695,-3.2652,-3.2676,-3.181,-3.1829,-3.2129,-3.2109,-3.2373,-3.2727,-3.2727,-3.2727,-3.2727,-3.2727,-3.2727,-3.2727,-3.2727,-3.2727,-3.2727,-3.2727,-3.2727,-3.2727,-3.2727,-3.2727,-3.2727,-3.2727,-3.2727,-3.2727,-3.2727,-3.2571,-3.2354,-3.2085,-3.1888,-3.1547,-3.0895,-3.0574,-3.0398,-3.0398,-3.016,-2.9994,-2.9994,-2.9994,-2.9994,-2.9994,-2.9994,-2.9994,-2.9994,-2.9994,-2.9994,-2.9994,-3.0253,-3.0398,-3.0398,-3.0853,-3.1091,-3.1091,-3.1547,-3.1857,-3.2043,-3.2313,-3.2447,-0.8549,-0.9743,0.0,-1.2054,-1.3365,-1.4077,-1.3667,-1.4089,-1.4508,-1.487,-1.4971,-1.5019,-1.5163,-1.5062,-1.4931,-1.4931,-1.4931,-1.5062,-1.5443,-1.5187,-1.5135,-1.5746,-1.5609,-1.5704,-1.6084,-1.6785,-1.816,-2.0592,-2.1085,-2.2552,-2.5562,-2.4624,-2.4481,-2.5599,-2.5322,-2.5194,-2.5059,-2.5194,-2.5194,-2.5059,-2.545,-2.6368,-2.7808,-2.9509,-3.146,-3.3418,-3.3418,-3.3418,-3.3418,-3.3418,-3.3418,-3.3389,-3.3086,-3.3218,-3.3367,-3.2744,-3.2544,-3.2509,-3.2428,-3.259,-3.2727,-3.2727,-3.2727,-3.2727,-3.2727,-3.2727,-3.2727,-3.2727,-3.2727,-3.2727,-3.2727,-3.2727,-3.2727,-3.2727,-3.2727,-3.2727,-3.2727,-3.2727,-3.2727,-3.2727,-3.2727,-3.2623,-3.2292,-3.223,-3.2116,-3.1795,-3.136,-3.1019,-3.0895,-3.047,-3.018,-3.018,-3.0067,-2.9994,-2.9994,-3.0118,-3.018,-3.018,-3.0305,-3.0377,-3.0377,-3.0698,-3.0874,-3.0874,-3.1329,-3.1557,-3.1567,-3.2012,-3.223,-3.224,-3.2571,-3.2727,0.0,0.0,-1.2562,-1.4708,-1.6089,-1.696,-1.6571,-1.6669,-1.6711,-1.6089,-1.5964,-1.5964,-1.5969,-1.5323,-1.4931,-1.4931,-1.4931,-1.5313,-1.6721,-1.5699,-1.5829,-1.8512,-1.7748,-1.7619,-1.9152,-1.8352,-1.9131,-2.2325,-2.3008,-2.4123,-2.5988,-2.5734,-2.5592,-2.5599,-2.5599,-2.5464,-2.5059,-2.5464,-2.5464,-2.5059,-2.6368,-2.7808,-2.9248,-3.1991,-3.3292,-3.3418,-3.3418,-3.3418,-3.3418,-3.3418,-3.3418,-3.3418,-3.3408,-3.365,-3.3852,-3.3777,-3.3426,-3.2901,-3.2891,-3.2847,-3.2727,-3.2727,-3.2727,-3.2727,-3.2727,-3.2727,-3.2727,-3.2727,-3.2727,-3.2727,-3.2727,-3.2727,-3.2727,-3.2727,-3.2727,-3.2727,-3.2727,-3.2727,-3.2727,-3.2727,-3.2727,-3.2727,-3.2716,-3.2716,-3.2706,-3.2696,-3.2302,-3.1836,-3.1412,-3.0946,-3.0667,-3.0667,-3.0263,-2.9994,-2.9994,-3.0408,-3.0667,-3.0667,-3.1091,-3.134,-3.134,-3.135,-3.136,-3.136,-3.1795,-3.2023,-3.2023,-3.2489,-3.2716,-3.2716,-3.2727,-3.2727,-1.1217,0.0,-1.4914,-1.6211,-1.7472,-1.8192,-1.7123,-1.7334,-1.7474,-1.6546,-1.5885,-1.5484,-1.5337,-1.4817,-1.4611,-1.5741,-1.6017,-1.6685,-1.8116,-1.8266,-1.8372,-1.8807,-1.906,-1.9639,-2.0552,-2.0524,-2.1024,-2.2841,-2.4166,-2.5396,-2.6501,-2.6138,-2.6102,-2.6594,-2.6201,-2.617,-2.6518,-2.6373,-2.6771,-2.7715,-2.9724,-3.0804,-3.1091,-3.3068,-3.3691,-3.3418,-3.3418,-3.3418,-3.3418,-3.3418,-3.3418,-3.3418,-3.3418,-3.3544,-3.3902,-3.4138,-3.4075,-3.3717,-3.3351,-3.3169,-3.311,-3.282,-3.2727,-3.2727,-3.2727,-3.2727,-3.2727,-3.2727,-3.2727,-3.2727,-3.2727,-3.2727,-3.2727,-3.2727,-3.2727,-3.2727,-3.2727,-3.2727,-3.2727,-3.2727,-3.2727,-3.2727,-3.2727,-3.2727,-3.2727,-3.2727,-3.2333,-3.1878,-3.1433,-3.1236,-3.1143,-3.1143,-3.1008,-3.0915,-3.0915,-3.106,-3.1143,-3.1143,-3.1288,-3.1381,-3.1381,-3.1661,-3.1816,-3.1816,-3.2261,-3.2499,-3.2499,-3.2654,-3.2727,-3.2727,-3.2727,-3.2727,-1.3483,-1.5098,-1.626,-1.7575,-1.8439,-1.8816,-1.7653,-1.7837,-1.7932,-1.6838,-1.5958,-1.5333,-1.5033,-1.45,-1.45,-1.5355,-1.5913,-1.6926,-1.909,-1.9217,-1.9591,-2.0856,-2.1188,-2.1632,-2.2774,-2.294,-2.3355,-2.4035,-2.523,-2.6399,-2.7083,-2.6718,-2.6738,-2.7352,-2.6809,-2.6639,-2.7137,-2.6851,-2.7524,-2.9431,-3.1604,-3.2689,-3.2974,-3.3898,-3.4062,-3.3652,-3.3652,-3.3564,-3.3418,-3.3418,-3.3418,-3.3418,-3.3418,-3.367,-3.4047,-3.4298,-3.449,-3.4635,-3.4134,-3.3658,-3.3327,-3.3058,-3.2861,-3.2727,-3.2727,-3.2727,-3.2727,-3.2727,-3.2727,-3.2727,-3.2727,-3.2727,-3.2727,-3.2727,-3.2727,-3.2727,-3.2727,-3.2727,-3.2727,-3.2727,-3.2727,-3.2727,-3.2727,-3.2727,-3.2727,-3.2727,-3.2478,-3.2188,-3.1899,-3.1723,-3.1609,-3.1609,-3.1474,-3.1381,-3.1381,-3.1526,-3.1609,-3.1609,-3.1764,-3.1857,-3.1857,-3.2137,-3.2282,-3.2282,-3.2582,-3.2727,-3.2727,-3.2727,-3.2727,-3.2727,-3.2727,-3.2727,-1.5121,-1.6062,-1.6502,-1.8625,-1.9078,-1.8938,-1.815,-1.833,-1.8356,-1.7069,-1.6142,-1.546,-1.4864,-1.4687,-1.4484,-1.4203,-1.5069,-1.6881,-1.977,-1.8941,-1.9757,0.0,0.0,-2.3607,-2.5494,-2.5677,-2.5822,-2.5837,-2.6395,-2.7002,-2.7693,-2.734,-2.7367,-2.771,-2.7432,-2.716,-2.7331,-2.7051,-2.8142,-3.0582,-3.207,-3.3415,-3.4736,-3.4736,-3.4502,-3.4101,-3.4082,-3.3838,-3.3447,-3.3428,-3.3418,-3.3418,-3.3418,-3.3796,-3.4298,-3.4423,-3.4797,-3.5242,-3.4941,-3.4186,-3.341,-3.3389,-3.3089,-3.2727,-3.2727,-3.2727,-3.2727,-3.2727,-3.2727,-3.2727,-3.2727,-3.2727,-3.2727,-3.2727,-3.2727,-3.2727,-3.2727,-3.2727,-3.2727,-3.2727,-3.2727,-3.2727,-3.2727,-3.2727,-3.2727,-3.2727,-3.2727,-3.2727,-3.2727,-3.2344,-3.2075,-3.2075,-3.1702,-3.1443,-3.1443,-3.1836,-3.2075,-3.2075,-3.2489,-3.2727,-3.2727,-3.2727,-3.2727,-3.2727,-3.2727,-3.2727,-3.2727,-3.2727,-3.2727,-3.2727,-3.2727,-3.2727,-1.6356,-1.7567,-1.8433,-1.9024,-1.9078,-1.9024,-1.8572,-1.8291,-1.7871,-1.6916,-1.5455,-1.4169,-1.3421,-1.4068,-1.5091,-1.6245,-1.8298,0.0,-2.3033,-2.3577,0.0,-2.5115,0.0,-2.5688,-2.5677,-2.6139,-2.653,-2.679,-2.7018,-2.7264,-2.7709,-2.7567,-2.7857,-2.8482,-2.8201,-2.8036,-2.8299,-2.9971,-3.1644,-3.3303,-3.4571,-3.5104,-3.5215,-3.5215,-3.4961,-3.4521,-3.4209,-3.4004,-3.3877,-3.3555,-3.3418,-3.3418,-3.3418,-3.3544,-3.367,-3.4173,-3.4548,-3.4652,-3.517,-3.4652,-3.3834,-3.3492,-3.3089,-3.2727,-3.2727,-3.2727,-3.2727,-3.2727,-3.2727,-3.2727,-3.2727,-3.2727,-3.2727,-3.2727,-3.2727,-3.2727,-3.2727,-3.2727,-3.2727,-3.2727,-3.2727,-3.2727,-3.2727,-3.2727,-3.2727,-3.2727,-3.2727,-3.2727,-3.2727,-3.2633,-3.2551,-3.2551,-3.2457,-3.2385,-3.2385,-3.2489,-3.2551,-3.2551,-3.2664,-3.2727,-3.2727,-3.2727,-3.2727,-3.2727,-3.2727,-3.2727,-3.2727,-3.2727,-3.2727,-3.2727,-3.2727,-3.2727,-1.7614,-1.8482,-1.9078,-1.9078,-1.8988,-1.877,-1.8269,-1.7744,-1.7032,-1.5672,-1.4265,-1.2969,-1.2077,-1.3294,-1.4909,0.0,0.0,0.0,-2.3559,-2.4336,-2.4918,0.0,-2.6391,0.0,-2.658,-2.6893,-2.728,-2.7621,-2.7518,-2.7653,-2.8162,-2.8229,-2.8498,-2.8988,-2.8561,-2.8639,-2.925,-3.1921,-3.3614,-3.4038,-3.5451,-3.5898,-3.5664,-3.5664,-3.542,-3.498,-3.4541,-3.4238,-3.4033,-3.3603,-3.3418,-3.3418,-3.3418,-3.3544,-3.3922,-3.4298,-3.4548,-3.4922,-3.5294,-3.4962,-3.4289,-3.3834,-3.3379,-3.2975,-3.2789,-3.2727,-3.2727,-3.2727,-3.2727,-3.2727,-3.2727,-3.2727,-3.2727,-3.2727,-3.2727,-3.2727,-3.2727,-3.2727,-3.2727,-3.2727,-3.2727,-3.2727,-3.2727,-3.2727,-3.2727,-3.2727,-3.2727,-3.2727,-3.2727,-3.2727,-3.2727,-3.2727,-3.2727,-3.2727,-3.2727,-3.2727,-3.2727,-3.2727,-3.2727,-3.2727,-3.2727,-3.2727,-3.2727,-3.2727,-3.2727,-3.2727,-3.2727,-3.2727,-3.2727,-3.2727,-3.2727,-3.2727,-1.8752,-1.9078,-1.9078,-1.9078,-1.8849,-1.842,-1.7618,-1.6917,-1.5893,-1.3975,0.0,-1.186,-1.0752,-1.2439,-1.437,-1.5112,0.0,-2.0447,-2.3071,-2.3393,-2.4213,-2.6542,-2.6838,-2.7057,-2.7669,-2.7772,-2.7939,-2.8265,-2.8035,-2.813,-2.8734,-2.8813,-2.9114,-2.956,-2.913,-2.9536,-3.0501,-3.3327,-3.4599,-3.4186,-3.5451,-3.6016,-3.6016,-3.6016,-3.582,-3.5449,-3.499,-3.4551,-3.4121,-3.3682,-3.3476,-3.3418,-3.3418,-3.3796,-3.4298,-3.4423,-3.4797,-3.5294,-3.5418,-3.5169,-3.4766,-3.431,-3.3803,-3.3306,-3.2934,-3.2778,-3.2727,-3.2727,-3.2727,-3.2727,-3.2727,-3.2727,-3.2727,-3.2727,-3.2727,-3.2727,-3.2727,-3.2727,-3.2727,-3.2727,-3.2727,-3.2727,-3.2727,-3.2727,-3.2727,-3.2727,-3.2727,-3.2727,-3.2727,-3.2727,-3.2727,-3.2727,-3.2727,-3.2727,-3.2727,-3.2727,-3.2727,-3.2727,-3.2727,-3.2727,-3.2727,-3.2727,-3.2727,-3.2727,-3.2727,-3.2727,-3.2727,-3.2727,-3.2727,-3.2727,-3.2727,-3.2727,-1.8982,-1.9078,-1.9078,-1.9078,-1.8716,-1.8149,-1.734,-1.6072,0.0,0.0,-1.1807,-1.0696,-0.9787,-1.2066,-1.4456,-1.5959,-1.8937,-2.2016,-2.4825,-2.5206,-2.5696,0.0,-2.7407,-2.7598,-2.7717,-2.7979,0.0,-2.8646,-2.8622,-2.8646,-2.8765,-2.9043,-2.9782,-3.1093,-3.0668,-3.1781,-3.4433,-3.4443,-3.5002,-3.5967,-3.6006,-3.6016,-3.6016,-3.6016,-3.5976,-3.5889,-3.5459,-3.501,-3.456,-3.4131,-3.375,-3.3418,-3.3418,-3.3418,-3.367,-3.4173,-3.4423,-3.4673,-3.517,-3.5376,-3.5231,-3.4786,-3.4072,-3.3358,-3.3285,-3.3016,-3.2727,-3.2727,-3.2727,-3.2727,-3.2727,-3.2727,-3.2727,-3.2727,-3.2727,-3.2727,-3.2727,-3.2727,-3.2727,-3.2727,-3.2727,-3.2727,-3.2727,-3.2727,-3.2727,-3.2727,-3.2727,-3.2727,-3.2727,-3.2727,-3.2727,-3.2727,-3.2727,-3.2727,-3.2727,-3.2727,-3.2727,-3.2727,-3.2727,-3.2727,-3.2727,-3.2727,-3.2727,-3.2727,-3.2727,-3.2727,-3.2727,-3.2727,-3.2727,-3.2727,-3.2727,-3.2727,-1.9006,-1.9078,-1.9078,-1.9078,-1.8469,-1.7587,-1.6507,0.0,0.0,0.0,-1.0638,-0.985,-0.903,-1.0942,0.0,-1.5337,-1.7825,-2.0759,-2.3894,-2.4735,-2.543,-2.6784,-2.7375,-2.7876,-2.8233,-2.8416,-2.8654,-2.9012,-2.9043,-2.9043,-2.9043,-2.9892,-3.0818,-3.1508,-3.2752,-3.4011,-3.5139,-3.5558,-3.5976,-3.6268,-3.6016,-3.6016,-3.6016,-3.6016,-3.6016,-3.5996,-3.5576,-3.5264,-3.501,-3.4346,-3.3945,-3.374,-3.3516,-3.3554,-3.367,-3.4173,-3.4548,-3.4673,-3.517,-3.5418,-3.5387,-3.5169,-3.4641,-3.401,-3.3524,-3.3234,-3.3016,-3.2799,-3.2727,-3.2727,-3.2727,-3.2727,-3.2727,-3.2727,-3.2727,-3.2727,-3.2727,-3.2727,-3.2727,-3.2727,-3.2727,-3.2727,-3.2727,-3.2727,-3.2727,-3.2727,-3.2727,-3.2727,-3.2727,-3.2727,-3.2727,-3.2727,-3.2727,-3.2727,-3.2727,-3.2727,-3.2727,-3.2727,-3.2727,-3.2727,-3.2727,-3.2727,-3.2727,-3.2727,-3.2727,-3.2727,-3.2727,-3.2727,-3.2727,-3.2727,-3.2727,-3.2727,-1.8921,-1.9036,-1.906,-1.9006,-1.8191,-1.705,-1.5722,-1.4202,0.0,0.0,-0.961,-0.9129,-0.8471,-0.9829,-1.1916,0.0,-1.6384,-1.8935,-2.2648,-2.3828,-2.4821,-2.6597,-2.7439,0.0,-2.871,-2.8837,0.0,-2.9274,-2.9568,-2.9712,-2.9712,-3.081,-3.1781,-3.2482,-3.4699,-3.5685,-3.5422,-3.6529,-3.6684,-3.6016,-3.6016,-3.6016,-3.6016,-3.6016,-3.6016,-3.6006,-3.5674,-3.5478,-3.5332,-3.4531,-3.415,-3.4033,-3.3594,-3.3544,-3.3796,-3.4298,-3.4548,-3.4797,-3.5294,-3.5418,-3.5418,-3.5418,-3.5117,-3.4621,-3.3896,-3.3606,-3.343,-3.2996,-3.2871,-3.2851,-3.2758,-3.2727,-3.2727,-3.2727,-3.2727,-3.2727,-3.2727,-3.2727,-3.2727,-3.2727,-3.2727,-3.2727,-3.2727,-3.2727,-3.2727,-3.2727,-3.2727,-3.2727,-3.2727,-3.2727,-3.2727,-3.2727,-3.2727,-3.2727,-3.2727,-3.2727,-3.2727,-3.2727,-3.2727,-3.2727,-3.2727,-3.2727,-3.2727,-3.2727,-3.2727,-3.2727,-3.2727,-3.2727,-3.2727,-3.2727,-3.2727,-3.2727,-1.865,-1.8891,-1.9018,-1.8776,-1.7919,-1.6779,-1.5445,0.0,0.0,-1.0027,-0.9017,-0.8363,-0.8146,-0.9095,-1.0953,-1.4085,0.0,-1.8073,-2.261,-2.3787,-2.4967,-2.6901,0.0,0.0,-2.8734,-2.9059,-2.9266,-2.929,-3.0543,-3.1367,-3.1367,-3.1367,-3.2761,-3.5402,-3.5811,-3.6238,-3.6934,-3.7079,-3.6684,-3.6016,-3.6016,-3.6016,-3.6016,-3.6016,-3.6016,-3.6016,-3.5976,-3.5752,-3.5351,-3.4853,-3.4414,-3.4033,-3.3594,-3.3418,-3.3544,-3.4173,-3.4423,-3.4548,-3.517,-3.5418,-3.5418,-3.5418,-3.5117,-3.4745,-3.4662,-3.4341,-3.3906,-3.3451,-3.3317,-3.3234,-3.283,-3.2727,-3.2727,-3.2727,-3.2727,-3.2727,-3.2727,-3.2727,-3.2727,-3.2727,-3.2727,-3.2727,-3.2727,-3.2727,-3.2727,-3.2727,-3.2727,-3.2727,-3.2727,-3.2727,-3.2727,-3.2727,-3.2727,-3.2727,-3.2727,-3.2727,-3.2727,-3.2727,-3.2727,-3.2727,-3.2727,-3.2727,-3.2727,-3.2727,-3.2727,-3.2727,-3.2727,-3.2727,-3.2727,-3.2727,-3.2727,-3.2727,-1.833,-1.8758,-1.9012,-1.8752,-1.7762,-1.6396,-1.4855,0.0,-1.1101,-0.958,-0.8759,-0.828,-0.8284,-0.918,-1.0616,-1.2906,-1.436,-1.6484,-2.0076,-2.1444,-2.3037,-2.573,-2.6735,-2.7764,0.0,0.0,-2.9712,-3.0543,-3.1234,-3.2342,-3.4011,-3.4149,-3.4699,-3.5811,-3.6509,-3.6934,-3.7079,-3.6799,-3.6539,-3.6016,-3.6016,-3.6016,-3.6016,-3.6016,-3.6016,-3.6016,-3.6016,-3.5928,-3.5732,-3.5303,-3.4853,-3.4404,-3.3984,-3.3652,-3.3418,-3.4173,-3.4423,-3.4548,-3.517,-3.5418,-3.5418,-3.5418,-3.5304,-3.5107,-3.4838,-3.4631,-3.4383,-3.3927,-3.3596,-3.3337,-3.3161,-3.2923,-3.2727,-3.2727,-3.2727,-3.2727,-3.2727,-3.2727,-3.2727,-3.2727,-3.2727,-3.2727,-3.2727,-3.2727,-3.2727,-3.2727,-3.2727,-3.2727,-3.2727,-3.2727,-3.2727,-3.2727,-3.2727,-3.2727,-3.2727,-3.2727,-3.2727,-3.2727,-3.2727,-3.2727,-3.2727,-3.2727,-3.2727,-3.2727,-3.2727,-3.2727,-3.2727,-3.2727,-3.2727,-3.2727,-3.2727,-3.2871,-1.775,-1.8324,-1.8656,-1.8396,-1.7331,-1.5987,0.0,-1.275,-1.1061,-0.9643,-0.9162,-0.8933,-0.8767,-0.9548,-1.0743,0.0,-1.3841,-1.5576,-1.8498,-2.0097,-2.1861,-2.4663,0.0,-2.6988,-2.8686,-2.9526,-3.04,-3.1367,-3.2342,-3.3734,-3.5811,-3.6364,-3.6519,-3.6519,-3.7348,-3.7626,-3.7079,-3.6799,-3.6403,-3.6016,-3.6016,-3.6016,-3.6016,-3.6016,-3.6016,-3.6016,-3.6016,-3.6016,-3.5986,-3.6083,-3.5759,-3.5291,-3.4863,-3.4425,-3.4037,-3.4288,-3.4423,-3.4548,-3.517,-3.5418,-3.5418,-3.5418,-3.5418,-3.5366,-3.5045,-3.4962,-3.4859,-3.4403,-3.3844,-3.3379,-3.3379,-3.3058,-3.2727,-3.2727,-3.2727,-3.2727,-3.2727,-3.2727,-3.2727,-3.2727,-3.2727,-3.2727,-3.2727,-3.2727,-3.2727,-3.2727,-3.2727,-3.2727,-3.2727,-3.2727,-3.2727,-3.2727,-3.2727,-3.2727,-3.2727,-3.2727,-3.2727,-3.2727,-3.2727,-3.2727,-3.2727,-3.2727,-3.2727,-3.2727,-3.2727,-3.2727,-3.2727,-3.2861,-3.2923,-3.2923,-3.3058,-3.3368,-1.6702,-1.7485,-1.7823,-1.7563,-1.6553,-1.5345,-1.4663,-1.2985,-1.1352,-1.041,-1.0355,-1.0323,-0.9724,-1.0275,-1.1428,-1.3346,-1.4277,-1.5736,-1.891,-2.0422,-2.1979,0.0,-2.5141,-2.6304,-2.7645,-3.0043,-3.1508,-3.1508,-3.4149,-3.5821,-3.5947,-3.7348,-3.8181,-3.8181,-3.8191,-3.777,-3.7079,-3.7079,-3.6684,-3.6016,-3.6016,-3.6016,-3.6016,-3.6016,-3.6016,-3.6016,-3.6016,-3.6016,-3.6122,-3.7116,-3.7167,-3.668,-3.6351,-3.5894,-3.5253,-3.4662,-3.4423,-3.4548,-3.517,-3.5418,-3.5418,-3.5418,-3.5418,-3.5418,-3.5418,-3.5418,-3.5324,-3.4879,-3.4082,-3.3379,-3.3379,-3.3058,-3.2727,-3.2727,-3.2727,-3.2727,-3.2727,-3.2727,-3.2727,-3.2727,-3.2727,-3.2727,-3.2727,-3.2727,-3.2727,-3.2727,-3.2727,-3.2727,-3.2727,-3.2727,-3.2727,-3.2727,-3.2727,-3.2727,-3.2727,-3.2727,-3.2727,-3.2727,-3.2727,-3.2727,-3.2727,-3.2727,-3.2727,-3.2727,-3.2727,-3.2727,-3.2727,-3.3161,-3.3368,-3.3379,-3.3844,-3.43,-1.4581,-1.5192,-1.5475,-1.5199,-1.4944,-1.4416,-1.3189,-1.2626,-1.1915,-1.0304,-1.0333,-1.0521,-0.9903,-1.0905,-1.2444,-1.4426,-1.5553,0.0,-1.8979,0.0,0.0,-2.4039,-2.6526,-2.8694,-3.0126,-3.1022,-3.2342,-3.4424,-3.5393,-3.6374,-3.7482,-3.7904,-3.8181,-3.8181,-3.7904,-3.7626,-3.7079,-3.6799,-3.6403,-3.6016,-3.6016,-3.6016,-3.6016,-3.6016,-3.6016,-3.6016,-3.6016,-3.6016,-3.6142,-3.7442,-3.7632,-3.7296,-3.7689,-3.7843,-3.74,-3.6241,-3.5869,-3.5971,-3.5531,-3.5418,-3.5418,-3.5418,-3.5418,-3.5418,-3.5418,-3.5418,-3.5335,-3.4879,-3.4548,-3.4248,-3.3927,-3.3741,-3.3648,-3.3648,-3.3399,-3.3172,-3.3172,-3.2944,-3.2727,-3.2727,-3.2727,-3.2727,-3.2727,-3.2727,-3.2727,-3.2727,-3.2727,-3.2727,-3.2727,-3.2727,-3.2727,-3.2727,-3.2727,-3.2727,-3.2727,-3.2727,-3.2727,-3.2727,-3.2727,-3.2727,-3.2727,-3.2727,-3.2727,-3.2727,-3.2727,-3.2727,-3.2727,-3.3161,-3.3534,-3.3865,-3.432,-3.4621,-1.2766,-1.3339,-1.3685,-1.3613,-1.3622,-1.3534,-1.248,-1.2395,-1.2228,-1.092,-1.1184,-1.1441,-1.0914,-1.1855,-1.3196,-1.4734,-1.5763,0.0,0.0,0.0,0.0,-2.451,-2.7643,-2.9987,-3.108,-3.2314,-3.3863,-3.5811,-3.6374,-3.7203,-3.8181,-3.8181,-3.8181,-3.8181,-3.777,-3.7482,-3.7079,-3.6654,-3.6393,-3.6016,-3.6016,-3.6016,-3.6016,-3.6016,-3.6016,-3.6016,-3.6016,-3.6278,0.0,-3.8374,-3.888,-3.9044,-3.9552,-3.9556,-3.9194,-3.7736,-3.7056,-3.6682,-3.6237,-3.5767,-3.5418,-3.5418,-3.5418,-3.5418,-3.5418,-3.5418,-3.5366,-3.5086,-3.489,-3.4693,-3.4403,-3.4196,-3.4072,-3.4072,-3.3844,-3.3637,-3.3637,-3.343,-3.3234,-3.3234,-3.3234,-3.3182,-3.3006,-3.2975,-3.2913,-3.2758,-3.2727,-3.2727,-3.2727,-3.2727,-3.2727,-3.2727,-3.2727,-3.2727,-3.2727,-3.2727,-3.2727,-3.2727,-3.2727,-3.2727,-3.2727,-3.2727,-3.2727,-3.2727,-3.2892,-3.2975,-3.2975,-3.3596,-3.4134,-3.459,-3.4869,-3.5014,0.0,-1.1865,-1.2213,-1.2411,-1.2569,-1.251,-1.2351,-1.2389,0.0,-1.1872,-1.2417,-1.2906,-1.2452,-1.3036,-1.3821,-1.4611,-1.5262,0.0,0.0,-2.0227,0.0,0.0,-2.8353,-3.0212,-3.0718,-3.3848,-3.5957,-3.6093,-3.7348,-3.8181,-3.8181,-3.8181,-3.8181,-3.8181,-3.777,-3.7482,-3.7079,-3.6664,-3.6393,-3.6016,-3.6016,-3.6016,-3.6016,-3.6016,-3.6016,-3.6025,-3.6152,-3.6934,-3.8242,-3.9681,-4.0829,-4.1489,-4.1463,-4.1205,-4.0583,-3.9293,-3.7996,-3.7045,-3.7177,-3.6481,-3.5418,-3.5418,-3.5418,-3.5418,-3.5418,-3.5418,-3.5418,-3.5418,-3.5128,-3.4807,-3.4807,-3.4486,-3.4165,-3.4165,-3.4145,-3.4113,-3.4113,-3.4093,-3.4072,-3.4072,-3.4072,-3.3927,-3.3503,-3.343,-3.3285,-3.2882,-3.2799,-3.2778,-3.2778,-3.2747,-3.2727,-3.2727,-3.2727,-3.2727,-3.2727,-3.2727,-3.2727,-3.2727,-3.2727,-3.2727,-3.2727,-3.2727,-3.2747,-3.2778,-3.3203,-3.3441,-3.3472,-3.4341,-3.4993,-3.5418,-3.5418,-3.5418,-0.8596,0.0,-0.9706,-1.0253,-1.0802,-1.1313,0.0,-1.2244,-1.2607,-1.1597,-1.227,-1.3035,-1.3076,-1.3691,-1.4933,-1.7055,-1.7735,-1.8692,-2.0726,-2.323,0.0,-2.7423,-2.9647,-3.1557,-3.2872,-3.4723,-3.6374,-3.7626,-3.8048,-3.8181,-3.8181,-3.8181,-3.8181,-3.8181,-3.777,-3.7482,-3.7079,-3.6809,-3.6403,-3.6016,-3.6016,-3.6016,-3.6016,-3.6016,-3.6016,-3.6016,-3.7203,-3.7852,-3.8242,-4.0721,-4.1959,-4.2143,-4.2613,-4.2782,-4.2671,-4.0868,-3.9569,-3.8495,-3.7659,-3.6481,-3.5418,-3.5418,-3.5418,-3.5418,-3.5418,-3.5418,-3.5418,-3.5418,-3.5345,-3.5262,-3.5262,-3.518,-3.5097,-3.5097,-3.4838,-3.46,-3.46,-3.432,-3.4072,-3.4072,-3.4072,-3.4031,-3.3927,-3.3906,-3.3875,-3.3772,-3.3451,-3.3223,-3.3223,-3.2934,-3.2727,-3.2727,-3.2727,-3.2727,-3.2727,-3.2727,-3.2727,-3.2727,-3.2727,-3.2727,-3.2727,-3.2727,-3.2882,-3.3213,-3.3668,-3.4082,-3.4434,-3.4652,-3.4993,-3.5418,-3.5418,-3.5418,-0.7852,-0.8639,-0.9492,-1.0018,-1.1057,-1.1932,-1.1946,-1.2515,-1.2817,-1.2214,0.0,-1.3158,-1.3733,-1.4424,-1.5493,-1.7498,-1.8446,0.0,0.0,0.0,-2.719,-2.905,-3.1038,-3.2972,-3.4533,-3.6083,-3.7348,-3.8181,-3.8181,-3.8181,-3.8181,-3.8181,-3.8181,-3.8181,-3.777,-3.7482,-3.7079,-3.6944,-3.6549,-3.6016,-3.6142,-3.6142,-3.6016,-3.6016,-3.6413,-3.7069,-3.7719,-3.8893,-4.0203,-4.1633,-4.2673,-4.322,-4.3409,-4.3484,-4.3585,-4.2225,-4.0985,-3.9919,-3.9322,-3.7779,-3.6247,-3.6247,-3.589,-3.5418,-3.5418,-3.5418,-3.5418,-3.5418,-3.5418,-3.5418,-3.5418,-3.5418,-3.5418,-3.5418,-3.5242,-3.5066,-3.5066,-3.4869,-3.4693,-3.4693,-3.4693,-3.4621,-3.4414,-3.4383,-3.431,-3.4103,-3.3855,-3.3617,-3.3399,-3.3172,-3.2954,-3.2747,-3.2727,-3.2727,-3.2727,-3.2727,-3.2727,-3.2727,-3.2727,-3.2727,-3.2727,-3.2923,-3.3337,-3.4,-3.4258,-3.461,-3.5066,-3.5066,-3.519,-3.5418,-3.5418,-3.5418,-0.8212,-0.9511,-1.0591,-1.0701,-1.1976,-1.3196,-1.2981,0.0,0.0,0.0,0.0,0.0,0.0,-1.5338,-1.6214,-1.7629,-1.8964,-2.0969,-2.4221,-2.6024,-2.8032,-3.0545,-3.2358,-3.412,-3.5772,-3.7337,-3.8181,-3.8181,-3.8181,-3.8181,-3.8181,-3.8181,-3.8181,-3.8181,-3.7904,-3.7492,-3.7213,-3.7079,-3.6819,-3.6016,-3.6393,-3.6258,-3.6025,-3.6278,-3.6934,-3.8109,-3.8507,-4.0073,-4.2293,-4.2546,-4.3314,-4.4239,-4.39,-4.372,-4.3703,-4.3162,-4.215,-4.11,-4.0858,-3.9322,-3.7298,-3.7298,-3.6481,-3.5418,-3.5418,-3.5418,-3.5418,-3.5418,-3.5418,-3.5418,-3.5418,-3.5418,-3.5418,-3.5418,-3.5418,-3.5418,-3.5418,-3.5418,-3.5418,-3.5418,-3.5418,-3.5304,-3.4931,-3.4859,-3.4734,-3.4331,-3.4217,-3.4031,-3.3637,-3.3524,-3.3317,-3.2882,-3.283,-3.283,-3.283,-3.283,-3.2861,-3.2934,-3.2871,-3.2861,-3.2934,-3.3348,-3.3958,-3.4745,-3.4828,-3.5045,-3.5418,-3.5418,-3.5418,-3.5418,-3.5418,-3.5418,-0.9002,-1.0864,-1.2311,-1.1546,-1.2204,-1.303,-1.3343,-1.3419,0.0,0.0,0.0,0.0,0.0,-1.7251,-1.8369,-1.9918,-2.179,-2.3888,-2.6346,-2.8052,-2.9742,-3.1898,-3.3841,-3.521,-3.5772,-3.7337,-3.8181,-3.8181,-3.8181,-3.8181,-3.8181,-3.8181,-3.8181,-3.8181,-3.8181,-3.7904,-3.7482,-3.7213,-3.6799,-3.6384,-3.6519,-3.6258,-3.6016,-3.7193,-3.7852,-3.8242,-4.0592,-4.19,-4.242,-4.3576,-4.4087,-4.4239,-4.39,-4.372,-4.3703,-4.3162,-4.215,-4.0973,-3.9931,-3.8495,-3.7298,-3.7298,-3.6481,-3.5418,-3.5418,-3.5418,-3.5418,-3.5418,-3.5418,-3.5418,-3.5418,-3.5418,-3.5418,-3.5418,-3.5418,-3.5418,-3.5418,-3.5418,-3.5418,-3.5418,-3.5418,-3.5397,-3.5335,-3.5324,-3.5293,-3.5221,-3.489,-3.4631,-3.4559,-3.4207,-3.3782,-3.3327,-3.3275,-3.3275,-3.3275,-3.3275,-3.3441,-3.3834,-3.3492,-3.3451,-3.3844,-3.431,-3.461,-3.4755,-3.5128,-3.5355,-3.5418,-3.5418,-3.5418,-3.5418,-3.5418,-3.5418,-0.8868,-1.0943,-1.2806,-1.3202,-1.4439,-1.5616,-1.5711,-1.5583,0.0,0.0,0.0,0.0,0.0,0.0,-2.0007,-2.2448,-2.374,-2.5343,-2.7638,-2.8622,-3.0004,-3.303,-3.41,-3.5156,-3.6646,-3.7401,-3.7912,-3.8171,-3.8181,-3.8181,-3.8181,-3.8181,-3.8181,-3.8181,-3.8181,-3.8048,-3.7904,-3.777,-3.7358,-3.6799,-3.7069,-3.6799,-3.6268,-3.7698,-3.8629,-3.9419,-4.161,-4.2914,-4.3689,-4.4335,-4.4548,-4.433,-4.3909,-4.3641,-4.34,-4.3162,-4.2625,-4.1923,-4.0628,-3.9451,-3.8257,-3.7539,-3.6481,-3.5418,-3.5418,-3.5418,-3.5418,-3.5418,-3.5418,-3.5418,-3.5418,-3.5418,-3.5418,-3.5418,-3.5418,-3.5418,-3.5418,-3.5418,-3.5418,-3.5418,-3.5418,-3.5418,-3.5418,-3.5418,-3.5418,-3.5418,-3.5242,-3.5035,-3.4786,-3.4569,-3.4258,-3.3803,-3.3751,-3.3751,-3.3751,-3.3751,-3.3844,-3.4051,-3.3865,-3.3958,-3.4424,-3.4652,-3.4869,-3.5117,-3.5324,-3.5418,-3.5418,-3.5418,-3.5418,-3.5418,-3.5418,-3.5418,-0.8969,-1.0888,-1.2919,-1.4636,0.0,-1.7423,-1.7903,-1.7613,-1.7407,-1.7819,0.0,0.0,0.0,-1.9969,-2.1695,-2.4317,-2.5309,-2.6636,-2.8928,-2.952,-3.0984,-3.4192,-3.4546,-3.525,-3.7119,-3.7332,-3.7488,-3.7839,-3.7964,-3.8026,-3.8026,-3.8129,-3.8181,-3.8181,-3.8181,-3.8181,-3.8181,-3.8181,-3.7904,-3.7213,-3.7482,-3.7461,-3.7163,-3.8597,-3.9779,-4.0957,-4.2627,-4.3915,-4.4951,-4.4829,-4.4658,-4.4458,-4.3782,-4.3412,-4.3211,-4.3025,-4.2974,-4.2849,-4.1558,-4.028,-3.898,-3.7659,-3.6481,-3.5418,-3.5418,-3.5418,-3.5418,-3.5418,-3.5418,-3.5418,-3.5418,-3.5418,-3.5418,-3.5418,-3.5418,-3.5418,-3.5418,-3.5418,-3.5418,-3.5418,-3.5418,-3.5418,-3.5418,-3.5418,-3.5418,-3.5418,-3.5418,-3.5304,-3.4962,-3.491,-3.4745,-3.4279,-3.4227,-3.4227,-3.4227,-3.4331,-3.4383,-3.4383,-3.4383,-3.4548,-3.49,-3.491,-3.5076,-3.5418,-3.5418,-3.5418,-3.5418,-3.5418,-3.5418,-3.5418,-3.5418,-3.5541,-0.9983,-1.1488,-1.3016,-1.519,-1.5856,-1.6573,-1.8628,-1.8373,-1.8172,-1.9737,-2.0243,-2.057,-2.0825,-2.2167,-2.3705,-2.4881,-2.6744,-2.8589,-3.0392,-3.2052,-3.3759,-3.5797,-3.5985,-3.6181,-3.6804,-3.6856,-3.6867,-3.6898,-3.7301,-3.7539,-3.7539,-3.7953,-3.8181,-3.8181,-3.8181,-3.8181,-3.8181,-3.8181,-3.8037,-3.7616,-3.7616,-3.8109,-3.8972,-4.0397,-4.1693,-4.3107,-4.4546,-4.5196,-4.5172,-4.479,-4.4556,-4.4421,-4.3585,-4.3173,-4.3024,-4.2986,-4.2974,-4.2849,-4.1558,-4.028,-3.898,-3.7659,-3.6481,-3.5418,-3.5418,-3.5418,-3.5418,-3.5418,-3.5418,-3.5418,-3.5418,-3.5418,-3.5418,-3.5418,-3.5418,-3.5418,-3.5418,-3.5418,-3.5418,-3.5418,-3.5418,-3.5418,-3.5418,-3.5418,-3.5418,-3.5418,-3.5418,-3.5407,-3.5376,-3.5376,-3.52,-3.4755,-3.4714,-3.4714,-3.4714,-3.5086,-3.5324,-3.5324,-3.5324,-3.5345,-3.5376,-3.5376,-3.5387,-3.5418,-3.5418,-3.5418,-3.5418,-3.5418,-3.5418,-3.5418,-3.5418,-3.6002,-0.9931,-1.184,-1.3769,-1.513,-1.6285,0.0,0.0,-1.983,-2.0279,-2.1658,-2.2112,-2.2269,-2.2489,-2.3241,-2.4362,-2.604,-2.7416,-2.9153,-3.1664,-3.2845,-3.3951,-3.5531,-3.5687,-3.5863,-3.6328,-3.637,-3.6494,-3.6784,-3.697,-3.7063,-3.7063,-3.7229,-3.7322,-3.7322,-3.7322,-3.7322,-3.7322,-3.7322,-3.7192,-3.7061,-3.7637,-3.8528,-3.9518,-4.0935,-4.2086,-4.322,-4.4573,-4.5068,-4.5031,-4.4487,-4.4172,-4.4008,-4.3362,-4.305,-4.2974,-4.2974,-4.2974,-4.2737,-4.0628,-3.9569,-3.8862,-3.6846,-3.5767,-3.5418,-3.5418,-3.5418,-3.5418,-3.5418,-3.5418,-3.5418,-3.5418,-3.5418,-3.5418,-3.5418,-3.5418,-3.5418,-3.5418,-3.5418,-3.5418,-3.5418,-3.5418,-3.5418,-3.5418,-3.5418,-3.5418,-3.5418,-3.5418,-3.5418,-3.5418,-3.5418,-3.5355,-3.519,-3.5169,-3.5169,-3.5169,-3.5324,-3.5418,-3.5418,-3.5418,-3.5418,-3.5418,-3.5418,-3.5418,-3.5418,-3.5418,-3.5418,-3.5418,-3.5418,-3.5418,-3.5418,-3.6247,-3.6835,-1.0312,-1.2381,-1.441,-1.5494,0.0,0.0,-2.0302,-2.0934,-2.1573,-2.3273,-2.3499,-2.3451,-2.3808,-2.4311,-2.525,-2.6935,-2.8465,-3.0305,-3.2603,-3.3569,-3.4403,-3.5294,-3.5418,-3.5552,-3.5863,-3.5894,-3.6028,-3.6339,-3.6504,-3.6587,-3.6587,-3.6722,-3.6804,-3.6804,-3.6804,-3.6804,-3.6804,-3.6804,-3.6804,-3.6815,-3.7817,-3.8991,-4.0096,-4.0986,-4.2242,-4.3734,-4.4516,-4.4855,-4.4817,-4.4257,-4.3824,-4.3501,-4.3124,-4.2974,-4.2974,-4.2974,-4.2974,-4.2625,-4.0036,-3.9216,-3.8744,-3.6258,-3.5418,-3.5418,-3.5418,-3.5418,-3.5418,-3.5418,-3.5418,-3.5418,-3.5418,-3.5418,-3.5418,-3.5418,-3.5418,-3.5418,-3.5418,-3.5418,-3.5418,-3.5418,-3.5418,-3.5418,-3.5418,-3.5418,-3.5418,-3.5418,-3.5418,-3.5418,-3.5418,-3.5418,-3.5418,-3.5418,-3.5418,-3.5418,-3.5418,-3.5418,-3.5418,-3.5418,-3.5418,-3.5418,-3.5418,-3.5418,-3.5418,-3.5418,-3.5767,-3.6013,-3.6013,-3.6013,-3.6258,-3.6613,-3.7067,-3.7768,-1.1391,-1.2952,-1.4859,-1.6391,0.0,0.0,-2.1612,-2.1705,-2.1919,-2.4553,-2.4547,-2.4166,-2.4515,-2.5335,-2.6377,-2.7521,-3.0213,-3.2505,-3.3252,-3.4528,-3.5418,-3.5418,-3.5418,-3.5418,-3.5418,-3.5418,-3.5418,-3.5418,-3.5852,-3.6101,-3.6101,-3.6535,-3.6794,-3.6794,-3.6794,-3.6794,-3.6794,-3.6794,-3.6794,-3.6794,-3.8132,-3.9352,-4.0686,-4.0686,-4.2161,-4.4618,-4.4618,-4.4618,-4.4568,-4.4016,-4.3476,-4.2974,-4.2974,-4.2974,-4.2974,-4.2974,-4.2974,-4.2625,-4.0036,-3.9228,-3.8744,-3.6247,-3.5418,-3.5418,-3.5418,-3.5418,-3.5418,-3.5418,-3.5418,-3.5418,-3.5418,-3.5418,-3.5418,-3.5418,-3.5418,-3.5418,-3.5418,-3.5418,-3.5418,-3.5418,-3.5418,-3.5418,-3.5418,-3.5418,-3.5418,-3.5418,-3.5418,-3.5418,-3.5418,-3.5418,-3.5418,-3.5418,-3.5418,-3.5418,-3.5418,-3.5418,-3.5418,-3.5418,-3.5418,-3.5418,-3.5418,-3.5418,-3.5418,-3.5418,-3.6592,-3.7298,-3.7298,-3.7298,-3.7899,-3.9216,-3.7899,-3.8721,-1.214,-1.365,0.0,-1.6891,0.0,0.0,0.0,-2.2808,0.0,0.0,-2.4944,-2.4754,-2.4611,-2.5758,-2.7149,-2.8442,-3.0641,-3.265,-3.4238,-3.4975,-3.5418,-3.5418,-3.5418,-3.5418,-3.5418,-3.5418,-3.5418,-3.5418,-3.5552,-3.5625,-3.5625,-3.5759,-3.5832,-3.5832,-3.5832,-3.5832,-3.5832,-3.5832,-3.5832,-3.5832,-3.7144,-3.8809,-4.0697,-4.1692,-4.2913,-4.4606,-4.4217,-4.4053,-4.4003,-4.3451,-4.3124,-4.2974,-4.2974,-4.2974,-4.2974,-4.2974,-4.2388,-4.1456,-3.9803,-3.8625,-3.755,-3.589,-3.5418,-3.5418,-3.5418,-3.5418,-3.5418,-3.5418,-3.5418,-3.5418,-3.5418,-3.5418,-3.5418,-3.5418,-3.5418,-3.5418,-3.5418,-3.5418,-3.5418,-3.5418,-3.5418,-3.5418,-3.5418,-3.5418,-3.5418,-3.5418,-3.5418,-3.5418,-3.5418,-3.5418,-3.5418,-3.5418,-3.5418,-3.5418,-3.5418,-3.5418,-3.5418,-3.5418,-3.5418,-3.5418,-3.5418,-3.5418,-3.5418,-3.5418,-3.6592,-3.7298,-3.7298,-3.7298,-3.7899,-3.9228,-3.8862,-3.9557,-1.3666,-1.536,0.0,-1.8408,-2.0045,-2.1923,-2.3536,0.0,0.0,0.0,-2.5,-2.4995,-2.5512,-2.6619,-2.8072,-2.9827,-3.1494,-3.3145,-3.4541,-3.4993,-3.5221,-3.5407,-3.5418,-3.5418,-3.5418,-3.5418,-3.5418,-3.5418,-3.5418,-3.5418,-3.5418,-3.5418,-3.5418,-3.5418,-3.5418,-3.5418,-3.5418,-3.5418,-3.5418,-3.5418,-3.7199,-3.8799,-4.0112,-4.1449,-4.2775,-4.3953,-4.3614,-4.3476,-4.3451,-4.3112,-4.2974,-4.2974,-4.2974,-4.2974,-4.2974,-4.2974,-4.215,-4.0858,-3.9686,-3.8387,-3.7067,-3.5767,-3.5418,-3.5418,-3.5418,-3.5418,-3.5418,-3.5418,-3.5418,-3.5418,-3.5418,-3.5418,-3.5418,-3.5418,-3.5418,-3.5418,-3.5418,-3.5418,-3.5418,-3.5418,-3.5418,-3.5418,-3.5418,-3.5418,-3.5418,-3.5418,-3.5418,-3.5418,-3.5418,-3.5418,-3.5418,-3.5418,-3.5418,-3.5418,-3.5418,-3.5418,-3.5418,-3.5418,-3.5418,-3.5418,-3.5418,-3.5418,-3.5654,-3.6125,-3.7429,-3.8257,-3.8839,-3.8839,-3.944,-4.0743,-4.0164,-4.0628,-1.5462,0.0,0.0,-2.0437,-2.1927,0.0,-2.4817,-2.5226,-2.5349,-2.5103,-2.4971,-2.5318,-2.6712,-2.7911,-2.9212,-3.1219,-3.2549,-3.3689,-3.4569,-3.4693,-3.4848,-3.5252,-3.5293,-3.5314,-3.5355,-3.5366,-3.5376,-3.5418,-3.5418,-3.5418,-3.5418,-3.5418,-3.5418,-3.5418,-3.5418,-3.5418,-3.5418,-3.5418,-3.5418,-3.5418,-3.8041,-3.9216,-3.9228,-4.0628,-4.1923,-4.2974,-4.2974,-4.2974,-4.2974,-4.2974,-4.2974,-4.2974,-4.2974,-4.2974,-4.2974,-4.2974,-4.215,-4.0743,-3.9569,-3.8268,-3.6946,-3.5777,-3.5418,-3.5418,-3.5418,-3.5418,-3.5418,-3.5418,-3.5418,-3.5418,-3.5418,-3.5418,-3.5418,-3.5418,-3.5418,-3.5418,-3.5418,-3.5418,-3.5418,-3.5418,-3.5418,-3.5418,-3.5418,-3.5418,-3.5418,-3.5418,-3.5418,-3.5418,-3.5418,-3.5418,-3.5418,-3.5418,-3.5418,-3.5418,-3.5418,-3.5418,-3.5418,-3.5418,-3.5418,-3.5418,-3.5418,-3.5418,-3.6013,-3.7309,-3.8495,-3.9814,-4.11,-4.11,-4.1797,-4.2974,-4.1684,-4.1797,-1.4684,-1.622,0.0,0.0,-2.3536,-2.5919,-2.5277,-2.6658,-2.7495,-2.5464,-2.5879,-2.6565,-2.6883,-2.8847,-3.0499,-3.1387,-3.2549,-3.3575,-3.4134,-3.4217,-3.4258,-3.4341,-3.4362,-3.4496,-3.4869,-3.49,-3.5045,-3.5397,-3.5418,-3.5418,-3.5418,-3.5418,-3.5418,-3.5418,-3.5418,-3.5418,-3.5418,-3.5418,-3.5418,-3.5418,-3.8041,-3.9216,-3.9334,-4.157,-4.2737,-4.2974,-4.2974,-4.2974,-4.2974,-4.2974,-4.2974,-4.2974,-4.2974,-4.2974,-4.2974,-4.2974,-4.157,-3.958,-3.9345,-3.767,-3.5767,-3.5541,-3.5418,-3.5418,-3.5418,-3.5418,-3.5418,-3.5418,-3.5418,-3.5418,-3.5418,-3.5418,-3.5418,-3.5418,-3.5418,-3.5418,-3.5418,-3.5418,-3.5418,-3.5418,-3.5418,-3.5418,-3.5418,-3.5418,-3.5418,-3.5418,-3.5418,-3.5418,-3.5418,-3.5418,-3.5418,-3.5418,-3.5418,-3.5418,-3.5418,-3.5418,-3.5418,-3.5418,-3.5418,-3.5418,-3.5418,-3.5418,-3.6013,-3.7309,-3.8495,-3.9814,-4.11,-4.11,-4.1797,-4.2974,-4.1684,-4.1797,0.0,0.0,0.0,-2.1456,0.0,-2.5351,-2.5186,-2.6658,-2.7615,-2.6302,-2.7013,-2.8086,-2.8683,-2.9874,-3.1132,-3.1963,-3.2595,-3.3223,-3.3668,-3.3731,-3.3813,-3.4041,-3.4072,-3.4165,-3.4403,-3.4424,-3.461,-3.5076,-3.5107,-3.52,-3.5407,-3.5418,-3.5418,-3.5418,-3.5418,-3.5418,-3.5418,-3.5418,-3.5418,-3.5418,-3.8041,-3.9803,-4.11,-4.2388,-4.2974,-4.2974,-4.2974,-4.2974,-4.2974,-4.2974,-4.2974,-4.2974,-4.2974,-4.2974,-4.2974,-4.2974,-4.1329,-3.9216,-3.9216,-3.7561,-3.5418,-3.5418,-3.5418,-3.5418,-3.5418,-3.5418,-3.5418,-3.5418,-3.5418,-3.5418,-3.5418,-3.5418,-3.5418,-3.5418,-3.5418,-3.5418,-3.5418,-3.5418,-3.5418,-3.5418,-3.5418,-3.5418,-3.5418,-3.5418,-3.5418,-3.5418,-3.5418,-3.5418,-3.5418,-3.5418,-3.5418,-3.5418,-3.5418,-3.5418,-3.5418,-3.5418,-3.5418,-3.5418,-3.5418,-3.5418,-3.5418,-3.5418,-3.6247,-3.8138,-3.8862,-4.0164,-4.2037,-4.2037,-4.2388,-4.2974,-4.2275,-4.2388,0.0,0.0,-1.9315,-2.2116,-2.3442,0.0,-2.4814,-2.6374,-2.7615,-2.7375,-2.8325,-2.9512,-3.0587,-3.0946,-3.1421,-3.2498,-3.2727,-3.2851,-3.3213,-3.3265,-3.341,-3.3793,-3.3834,-3.3865,-3.3938,-3.3948,-3.4145,-3.46,-3.4641,-3.4797,-3.5169,-3.519,-3.5221,-3.5304,-3.5304,-3.5345,-3.5418,-3.5418,-3.5418,-3.5418,-3.8041,-4.0512,-4.2974,-4.2974,-4.2974,-4.2974,-4.2974,-4.2974,-4.2974,-4.2974,-4.2974,-4.2974,-4.2737,-4.2862,-4.2974,-4.25,-4.0985,-3.9216,-3.898,-3.7319,-3.5418,-3.5418,-3.5418,-3.5418,-3.5418,-3.5418,-3.5418,-3.5418,-3.5418,-3.5418,-3.5418,-3.5418,-3.5418,-3.5418,-3.5418,-3.5418,-3.5418,-3.5418,-3.5418,-3.5418,-3.5418,-3.5418,-3.5418,-3.5418,-3.5418,-3.5418,-3.5418,-3.5418,-3.5418,-3.5418,-3.5418,-3.5418,-3.5418,-3.5418,-3.5418,-3.5418,-3.5418,-3.5418,-3.5418,-3.5418,-3.5418,-3.5418,-3.6613,-3.911,-3.9216,-4.0396,-4.2974,-4.2974,-4.2974,-4.2974,-4.2974,-4.2974,0.0,0.0,-1.8897,0.0,-2.3592,-2.5243,0.0,0.0,-2.9992,0.0,-2.963,-3.0587,-3.082,-3.1662,-3.2487,-3.2727,-3.2727,-3.2747,-3.2809,-3.282,-3.284,-3.2903,-3.2913,-3.3058,-3.343,-3.3472,-3.3658,-3.4124,-3.4165,-3.4186,-3.4248,-3.4248,-3.4434,-3.4838,-3.4848,-3.5035,-3.5418,-3.5418,-3.5418,-3.5418,-3.8041,-4.0512,-4.2974,-4.2974,-4.2974,-4.2974,-4.2974,-4.2974,-4.2974,-4.2974,-4.2974,-4.2862,-4.1797,-4.2037,-4.2737,-4.0512,-3.9451,-3.898,-3.7899,-3.6603,-3.5418,-3.5418,-3.5418,-3.5418,-3.5418,-3.5418,-3.5418,-3.5418,-3.5418,-3.5418,-3.5418,-3.5418,-3.5418,-3.5418,-3.5418,-3.5418,-3.5418,-3.5418,-3.5418,-3.5418,-3.5418,-3.5418,-3.5418,-3.5418,-3.5418,-3.5418,-3.5418,-3.5418,-3.5418,-3.5418,-3.5418,-3.5418,-3.5418,-3.5418,-3.5418,-3.5418,-3.5418,-3.5418,-3.5418,-3.5418,-3.5418,-3.5418,-3.6613,-3.911,-3.9216,-4.0396,-4.2974,-4.2974,-4.2974,-4.2974,-4.2974,-4.2974,-1.336,-1.5624,-1.8213,0.0,-2.275,-2.3869,-2.5456,0.0,-2.9524,-2.9515,-3.077,-3.1893,-3.1893,-3.2373,-3.2727,-3.2727,-3.2727,-3.2727,-3.2727,-3.2727,-3.2727,-3.2727,-3.2727,-3.2809,-3.2996,-3.3016,-3.3203,-3.3648,-3.3679,-3.3793,-3.4051,-3.4072,-3.4165,-3.4362,-3.4372,-3.459,-3.5045,-3.5045,-3.5526,-3.6481,-3.8268,-4.0152,-4.1923,-4.2625,-4.2974,-4.2974,-4.2974,-4.2974,-4.2974,-4.2974,-4.2974,-4.2862,-4.157,-4.1444,-4.1684,-3.9919,-3.8744,-3.8018,-3.7539,-3.6481,-3.5418,-3.5418,-3.5418,-3.5418,-3.5418,-3.5418,-3.5418,-3.5418,-3.5418,-3.5418,-3.5418,-3.5418,-3.5418,-3.5418,-3.5418,-3.5418,-3.5418,-3.5418,-3.5418,-3.5418,-3.5418,-3.5418,-3.5418,-3.5418,-3.5418,-3.5418,-3.5418,-3.5418,-3.5418,-3.5418,-3.5418,-3.5418,-3.5418,-3.5418,-3.5418,-3.5418,-3.5418,-3.5418,-3.5418,-3.5418,-3.5418,-3.5418,-3.6613,-3.911,-3.9216,-4.0396,-4.2974,-4.2974,-4.2974,-4.2974,-4.2974,-4.2974,0.0,0.0,-1.6727,-2.0141,-2.1081,-2.2071,0.0,0.0,-2.849,0.0,-3.1295,-3.2551,-3.2551,-3.2654,-3.2727,-3.2727,-3.2727,-3.2727,-3.2727,-3.2727,-3.2727,-3.2727,-3.2727,-3.2727,-3.2727,-3.2727,-3.2871,-3.3192,-3.3213,-3.3368,-3.371,-3.3731,-3.3772,-3.3896,-3.3896,-3.4113,-3.4579,-3.4703,-3.5628,-3.7134,-3.8569,-3.9931,-4.11,-4.2388,-4.2974,-4.2974,-4.2974,-4.2974,-4.2974,-4.2974,-4.2974,-4.2862,-4.1215,-4.0858,-4.0858,-3.898,-3.779,-3.7298,-3.6946,-3.6247,-3.5418,-3.5418,-3.5418,-3.5418,-3.5418,-3.5418,-3.5418,-3.5418,-3.5418,-3.5418,-3.5418,-3.5418,-3.5418,-3.5418,-3.5418,-3.5418,-3.5418,-3.5418,-3.5418,-3.5418,-3.5418,-3.5418,-3.5418,-3.5418,-3.5418,-3.5418,-3.5418,-3.5418,-3.5418,-3.5418,-3.5418,-3.5418,-3.5418,-3.5418,-3.5418,-3.5418,-3.5418,-3.5418,-3.5418,-3.5418,-3.5418,-3.5418,-3.6613,-3.911,-3.9216,-4.0396,-4.2974,-4.2974,-4.2974,-4.2974,-4.2974,-4.2974,0.0,-1.2687,0.0,-1.7167,0.0,0.0,0.0,0.0,-2.7716,-2.9128,-3.0832,-3.2075,-3.2075,-3.2437,-3.2727,-3.2727,-3.2727,-3.2727,-3.2727,-3.2727,-3.2727,-3.2727,-3.2727,-3.2727,-3.2727,-3.2727,-3.2737,-3.2758,-3.2768,-3.2778,-3.2799,-3.2799,-3.2985,-3.3399,-3.342,-3.3637,-3.4103,-3.4538,-3.547,-3.6664,-3.841,-3.9931,-4.11,-4.2388,-4.2974,-4.2974,-4.2974,-4.2974,-4.2974,-4.2974,-4.2974,-4.2737,-4.028,-4.0036,-4.0628,-3.6957,-3.6369,-3.7188,-3.589,-3.5418,-3.5418,-3.5418,-3.5418,-3.5418,-3.5418,-3.5418,-3.5418,-3.5418,-3.5418,-3.5418,-3.5418,-3.5418,-3.5418,-3.5418,-3.5418,-3.5418,-3.5418,-3.5418,-3.5418,-3.5418,-3.5418,-3.5418,-3.5418,-3.5418,-3.5418,-3.5418,-3.5418,-3.5418,-3.5418,-3.5418,-3.5418,-3.5418,-3.5418,-3.5418,-3.5418,-3.5418,-3.5418,-3.5418,-3.5418,-3.5418,-3.5418,-3.5418,-3.6613,-3.911,-3.9216,-4.0396,-4.2974,-4.2974,-4.2974,-4.2974,-4.2974,-4.2974,0.0,0.0,0.0,-1.6469,-1.7644,-1.9095,-2.3072,-2.5117,-2.6699,-2.885,-3.0304,-3.1257,-3.1557,-3.223,-3.2727,-3.2727,-3.2727,-3.2727,-3.2727,-3.2727,-3.2727,-3.2727,-3.2727,-3.2727,-3.2727,-3.2727,-3.2727,-3.2727,-3.2727,-3.2727,-3.2727,-3.2727,-3.2799,-3.2954,-3.2965,-3.3172,-3.3627,-3.4082,-3.4549,-3.5015,-3.6761,-3.7809,-3.8279,-4.0703,-4.1797,-4.1797,-4.2625,-4.2974,-4.2974,-4.2974,-4.2513,-4.157,-3.9919,-3.898,-3.8376,-3.6247,-3.5654,-3.6013,-3.5541,-3.5418,-3.5418,-3.5418,-3.5418,-3.5418,-3.5418,-3.5418,-3.5418,-3.5418,-3.5418,-3.5418,-3.5418,-3.5418,-3.5418,-3.5418,-3.5418,-3.5418,-3.5418,-3.5418,-3.5418,-3.5418,-3.5418,-3.5418,-3.5418,-3.5418,-3.5418,-3.5418,-3.5418,-3.5418,-3.5418,-3.5418,-3.5418,-3.5418,-3.5418,-3.5418,-3.5418,-3.5418,-3.5418,-3.5418,-3.5418,-3.5418,-3.5418,-3.5418,-3.6613,-3.911,-3.9216,-4.0396,-4.2974,-4.2974,-4.2974,-4.2974,-4.2974,-4.2974,-1.0953,0.0,0.0,0.0,0.0,-1.7367,-2.2348,0.0,-2.5159,-2.8207,-2.958,-3.0367,-3.0833,-3.1661,-3.2323,-3.2478,-3.2633,-3.2727,-3.2727,-3.2727,-3.2727,-3.2727,-3.2727,-3.2727,-3.2727,-3.2727,-3.2727,-3.2727,-3.2727,-3.2727,-3.2727,-3.2727,-3.2727,-3.2727,-3.2727,-3.2871,-3.3161,-3.3606,-3.3834,-3.3844,-3.5575,-3.6468,-3.662,-3.9163,-4.0346,-4.0512,-4.1329,-4.215,-4.2974,-4.2513,-4.1911,-4.0973,-3.9216,-3.8018,-3.7188,-3.589,-3.5418,-3.5418,-3.5418,-3.5418,-3.5418,-3.5418,-3.5418,-3.5418,-3.5418,-3.5418,-3.5418,-3.5418,-3.5418,-3.5418,-3.5418,-3.5418,-3.5418,-3.5418,-3.5418,-3.5418,-3.5418,-3.5418,-3.5418,-3.5418,-3.5418,-3.5418,-3.5418,-3.5418,-3.5418,-3.5418,-3.5418,-3.5418,-3.5418,-3.5418,-3.5418,-3.5418,-3.5418,-3.5418,-3.5418,-3.5418,-3.5418,-3.5418,-3.5418,-3.5418,-3.5418,-3.5418,-3.6613,-3.911,-3.9216,-4.0268,-4.2388,-4.2737,-4.2737,-4.2388,-4.275,-4.2974,0.0,0.0,0.0,0.0,0.0,0.0,-2.1176,0.0,-2.2777,-2.6951,-2.8535,-2.9321,-2.9839,-3.0677,-3.1443,-3.1909,-3.2385,-3.2696,-3.2706,-3.2716,-3.2716,-3.2727,-3.2727,-3.2727,-3.2727,-3.2727,-3.2727,-3.2727,-3.2727,-3.2727,-3.2727,-3.2727,-3.2727,-3.2727,-3.2727,-3.2727,-3.2727,-3.3151,-3.3358,-3.3368,-3.5091,-3.614,-3.6577,-3.7868,-3.8723,-3.9087,-3.9216,-4.0628,-4.2737,-4.157,-4.1088,-4.0743,-3.8246,-3.7309,-3.7067,-3.589,-3.5418,-3.5418,-3.5418,-3.5418,-3.5418,-3.5418,-3.5418,-3.5418,-3.5418,-3.5418,-3.5418,-3.5418,-3.5418,-3.5418,-3.5418,-3.5418,-3.5418,-3.5418,-3.5418,-3.5418,-3.5418,-3.5418,-3.5418,-3.5418,-3.5418,-3.5418,-3.5418,-3.5418,-3.5418,-3.5418,-3.5418,-3.5418,-3.5418,-3.5418,-3.5418,-3.5418,-3.5418,-3.5418,-3.5418,-3.5418,-3.5418,-3.5418,-3.5418,-3.5418,-3.5418,-3.5418,-3.6613,-3.911,-3.9216,-3.9803,-4.11,-4.2388,-4.2388,-4.11,-4.2388,-4.2986,-1.0294,0.0,0.0,0.0,0.0,0.0,0.0,0.0,-1.9381,-2.3565,-2.4736,-2.5714,-2.8064,-2.898,-2.9632,-3.0429,-3.1226,-3.1857,-3.2188,-3.223,-3.2354,-3.2696,-3.2727,-3.2727,-3.2727,-3.2727,-3.2727,-3.2727,-3.2727,-3.2727,-3.2727,-3.2727,-3.2727,-3.2727,-3.2727,-3.2727,-3.2727,-3.2851,-3.2913,-3.2913,-3.3696,-3.4202,-3.4349,-3.6293,-3.7148,-3.7421,-3.8714,-3.958,-4.028,-3.9931,-3.9686,-3.9569,-3.7899,-3.6714,-3.589,-3.5541,-3.5418,-3.5418,-3.5418,-3.5418,-3.5418,-3.5418,-3.5418,-3.5418,-3.5418,-3.5418,-3.5418,-3.5418,-3.5418,-3.5418,-3.5418,-3.5418,-3.5418,-3.5418,-3.5418,-3.5418,-3.5418,-3.5418,-3.5418,-3.5418,-3.5418,-3.5418,-3.5418,-3.5418,-3.5418,-3.5418,-3.5418,-3.5418,-3.5418,-3.5418,-3.5418,-3.5418,-3.5418,-3.5418,-3.5418,-3.5418,-3.5418,-3.5418,-3.5418,-3.5418,-3.5418,-3.5418,-3.6613,-3.911,-3.9216,-3.9334,-3.9686,-4.1923,-4.2388,-4.11,-4.2388,-4.3187,-1.1136,-1.1421,-1.2058,-1.2467,0.0,0.0,-1.6522,-1.7145,-1.8267,0.0,-2.3754,-2.4733,-2.6692,-2.7603,-2.8286,-2.9011,-2.9746,-3.0584,-3.1619,-3.1764,-3.1868,-3.2137,-3.2333,-3.2447,-3.2447,-3.2623,-3.2727,-3.2727,-3.2727,-3.2727,-3.2727,-3.2727,-3.2727,-3.2727,-3.2727,-3.2727,-3.2727,-3.2727,-3.2727,-3.2727,-3.2985,-3.3203,-3.3389,-3.4731,-3.5318,-3.565,-3.6817,-3.7621,-3.8106,-3.7712,-3.7921,-3.8257,-3.6946,-3.6002,-3.5418,-3.5418,-3.5418,-3.5418,-3.5418,-3.5418,-3.5418,-3.5418,-3.5418,-3.5418,-3.5418,-3.5418,-3.5418,-3.5418,-3.5418,-3.5418,-3.5418,-3.5418,-3.5418,-3.5418,-3.5418,-3.5418,-3.5418,-3.5418,-3.5418,-3.5418,-3.5418,-3.5418,-3.5418,-3.5418,-3.5418,-3.5418,-3.5418,-3.5418,-3.5418,-3.5418,-3.5418,-3.5418,-3.5418,-3.5418,-3.5418,-3.5418,-3.5418,-3.5418,-3.5418,-3.5418,-3.5418,-3.5418,-3.6613,-3.911,-3.9216,-3.9686,-4.0743,-4.2275,-4.2737,-4.2266,-4.3198,-4.3827,-1.2438,-1.2519,-1.2972,-1.374,-1.3111,0.0,-1.7596,-1.7716,-1.8027,0.0,-2.351,-2.4308,-2.503,-2.5849,-2.6617,-2.716,-2.7811,-2.8941,-3.0957,-3.1267,-3.1319,-3.1371,-3.1723,-3.1971,-3.1971,-3.2385,-3.2654,-3.2654,-3.2696,-3.2727,-3.2727,-3.2727,-3.2727,-3.2727,-3.2727,-3.2727,-3.2727,-3.2727,-3.2727,-3.2727,-3.2727,-3.2934,-3.3306,-3.3358,-3.3606,-3.402,-3.4486,-3.5406,-3.6297,-3.5659,-3.6082,-3.7177,-3.589,-3.5418,-3.5418,-3.5418,-3.5418,-3.5418,-3.5418,-3.5418,-3.5418,-3.5418,-3.5418,-3.5418,-3.5418,-3.5418,-3.5418,-3.5418,-3.5418,-3.5418,-3.5418,-3.5418,-3.5418,-3.5418,-3.5418,-3.5418,-3.5418,-3.5418,-3.5418,-3.5418,-3.5418,-3.5418,-3.5418,-3.5418,-3.5418,-3.5418,-3.5418,-3.5418,-3.5418,-3.5418,-3.5418,-3.5418,-3.5418,-3.5418,-3.5418,-3.5418,-3.5418,-3.5418,-3.5418,-3.5418,-3.5418,-3.5418,-3.6613,-3.911,-3.9216,-4.0396,-4.275,-4.2625,-4.3025,-4.3815,-4.4305,-4.4606,-1.385,-1.4026,-1.4333,-1.374,-1.3799,0.0,-1.3859,-1.3878,-1.4427,0.0,-1.689,-1.7566,-2.0033,-2.1021,-2.1817,-2.2919,-2.4678,-2.6939,-2.9838,-3.0584,-3.0957,-3.134,-3.1454,-3.1505,-3.1505,-3.1909,-3.2178,-3.2178,-3.252,-3.2727,-3.2727,-3.2727,-3.2727,-3.2727,-3.2727,-3.2727,-3.2727,-3.2727,-3.2727,-3.2727,-3.2727,-3.2778,-3.2871,-3.3213,-3.343,-3.3534,-3.4,-3.4523,-3.5118,-3.497,-3.5919,-3.7177,-3.589,-3.5418,-3.5418,-3.5418,-3.5418,-3.5418,-3.5418,-3.5418,-3.5418,-3.5418,-3.5418,-3.5418,-3.5418,-3.5418,-3.5418,-3.5418,-3.5418,-3.5418,-3.5418,-3.5418,-3.5418,-3.5418,-3.5418,-3.5418,-3.5418,-3.5418,-3.5418,-3.5418,-3.5418,-3.5418,-3.5418,-3.5418,-3.5418,-3.5418,-3.5418,-3.5418,-3.5418,-3.5418,-3.5418,-3.5418,-3.5418,-3.5418,-3.5418,-3.5418,-3.5418,-3.5418,-3.5418,-3.5418,-3.5418,-3.5418,-3.6613,-3.911,-3.9216,-3.9931,-4.1456,-4.0396,-4.1249,-4.3802,-4.3915,-4.4443,-1.5204,-1.5182,-1.5343,-1.5013,-1.4816,0.0,0.0,-1.463,-1.4919,-1.703,-1.681,-1.6958,-1.9102,-1.9779,-2.0292,-2.1296,-2.3405,-2.5287,-2.6478,-2.8208,-2.9477,-2.9942,-3.0005,-3.018,-3.0646,-3.1102,-3.1464,-3.1692,-3.2126,-3.2385,-3.2385,-3.2602,-3.2727,-3.2727,-3.2727,-3.2727,-3.2727,-3.2727,-3.2727,-3.2727,-3.2727,-3.2727,-3.2737,-3.2954,-3.3058,-3.3078,-3.3534,-3.3855,-3.4103,-3.4569,-3.5355,-3.605,-3.5571,-3.5418,-3.5418,-3.5418,-3.5418,-3.5418,-3.5418,-3.5418,-3.5418,-3.5418,-3.5418,-3.5418,-3.5418,-3.5418,-3.5418,-3.5418,-3.5418,-3.5418,-3.5418,-3.5418,-3.5418,-3.5418,-3.5418,-3.5418,-3.5418,-3.5418,-3.5418,-3.5418,-3.5418,-3.5418,-3.5418,-3.5418,-3.5418,-3.5418,-3.5418,-3.5418,-3.5418,-3.5418,-3.5418,-3.5418,-3.5418,-3.5418,-3.5418,-3.5418,-3.5418,-3.5418,-3.5418,-3.5418,-3.5418,-3.5418,-3.6247,-3.8268,-3.8257,-3.9205,-4.11,-3.9803,-4.0915,-4.4217,-4.4505,-4.5095,-1.6543,-1.6374,-1.6455,-1.6382,-1.5972,-1.5821,0.0,0.0,0.0,-1.804,-1.7622,-1.7334,0.0,0.0,0.0,-1.9782,0.0,0.0,0.0,-2.4849,0.0,-2.7826,-2.8198,-2.868,-2.9518,-2.986,-3.0325,-3.106,-3.1278,-3.1536,-3.1899,-3.2354,-3.2633,-3.2727,-3.2727,-3.2727,-3.2727,-3.2727,-3.2727,-3.2727,-3.2727,-3.2727,-3.2727,-3.2727,-3.2727,-3.2747,-3.3099,-3.3296,-3.343,-3.4186,-3.4548,-3.4683,-3.5211,-3.5418,-3.5418,-3.5418,-3.5418,-3.5418,-3.5418,-3.5418,-3.5418,-3.5418,-3.5418,-3.5418,-3.5418,-3.5418,-3.5418,-3.5418,-3.5418,-3.5418,-3.5418,-3.5418,-3.5418,-3.5418,-3.5418,-3.5418,-3.5418,-3.5418,-3.5418,-3.5418,-3.5418,-3.5418,-3.5418,-3.5418,-3.5418,-3.5418,-3.5418,-3.5418,-3.5418,-3.5418,-3.5418,-3.5418,-3.5418,-3.5418,-3.5418,-3.5418,-3.5418,-3.5418,-3.5418,-3.5418,-3.5418,-3.5665,-3.6125,-3.6946,-3.7188,-3.8484,-4.0743,-3.9686,-4.1046,-4.4631,-4.5108,-4.5686,-1.7867,-1.8021,-1.813,-1.6718,-1.715,-1.7267,-1.4924,0.0,-1.5227,-1.4389,0.0,-1.4186,0.0,0.0,0.0,-1.5836,0.0,0.0,-1.8724,-2.1137,-2.3654,-2.5446,-2.6768,-2.7614,-2.811,-2.7852,-2.8338,-3.0025,-2.9435,-2.9725,-3.1371,-3.1878,-3.2302,-3.2716,-3.2727,-3.2727,-3.2727,-3.2727,-3.2727,-3.2727,-3.2727,-3.2727,-3.2727,-3.2727,-3.2727,-3.2727,-3.2789,-3.3027,-3.3389,-3.3492,-3.3772,-3.4227,-3.5086,-3.5418,-3.5418,-3.5418,-3.5418,-3.5418,-3.5418,-3.5418,-3.5418,-3.5418,-3.5418,-3.5418,-3.5418,-3.5418,-3.5418,-3.5418,-3.5418,-3.5418,-3.5418,-3.5418,-3.5418,-3.5418,-3.5418,-3.5418,-3.5418,-3.5418,-3.5418,-3.5418,-3.5418,-3.5418,-3.5418,-3.5418,-3.5418,-3.5418,-3.5418,-3.5418,-3.5418,-3.5418,-3.5418,-3.5418,-3.5418,-3.5418,-3.5418,-3.5418,-3.5418,-3.5418,-3.5418,-3.5418,-3.5418,-3.6481,-3.6592,-3.5665,-3.6714,-3.8018,-3.9451,-3.9228,-4.1046,-4.4618,-4.4694,-4.5296,-1.8028,-1.8291,-1.8533,-1.7472,-1.7472,-1.7318,-1.5731,-1.5255,-1.5153,-1.516,0.0,0.0,0.0,0.0,0.0,0.0,-1.7057,0.0,0.0,0.0,-2.1274,-2.3516,-2.4486,-2.5378,-2.662,-2.6568,-2.7003,-2.8307,-2.8048,-2.8514,-3.0087,-3.1122,-3.1868,-3.2313,-3.2592,-3.2727,-3.2727,-3.2727,-3.2727,-3.2727,-3.2727,-3.2727,-3.2727,-3.2727,-3.2727,-3.2727,-3.2727,-3.283,-3.3016,-3.3275,-3.3492,-3.3731,-3.4383,-3.4797,-3.5066,-3.5324,-3.5418,-3.5418,-3.5418,-3.5418,-3.5418,-3.5418,-3.5418,-3.5418,-3.5418,-3.5418,-3.5418,-3.5418,-3.5418,-3.5418,-3.5418,-3.5418,-3.5418,-3.5418,-3.5418,-3.5418,-3.5418,-3.5418,-3.5418,-3.5418,-3.5418,-3.5418,-3.5418,-3.5418,-3.5418,-3.5418,-3.5418,-3.5418,-3.5418,-3.5418,-3.5418,-3.5418,-3.5418,-3.5418,-3.5418,-3.5418,-3.5418,-3.5418,-3.5418,-3.5418,-3.5418,-3.589,-3.589,-3.5418,-3.589,-3.7199,-3.9216,-3.9216,-4.0891,-4.4154,-4.4154,-4.4756,-1.8416,-1.8694,-1.8942,-1.7933,-1.7574,-1.7223,-1.6316,-1.5774,-1.5613,-1.6133,-1.5526,0.0,0.0,0.0,-1.5137,-1.5286,0.0,-1.6814,-1.5302,-1.7044,0.0,0.0,-2.2327,-2.3617,-2.5202,-2.4985,-2.5306,-2.661,-2.6351,-2.7013,-2.9011,-3.0315,-3.1319,-3.2012,-3.2489,-3.2727,-3.2727,-3.2727,-3.2727,-3.2727,-3.2727,-3.2727,-3.2727,-3.2727,-3.2727,-3.2727,-3.2727,-3.2727,-3.2758,-3.3068,-3.3203,-3.3244,-3.3699,-3.4082,-3.4445,-3.5024,-3.5242,-3.5262,-3.5376,-3.5418,-3.5418,-3.5418,-3.5418,-3.5418,-3.5418,-3.5418,-3.5418,-3.5418,-3.5418,-3.5418,-3.5418,-3.5418,-3.5418,-3.5418,-3.5418,-3.5418,-3.5418,-3.5418,-3.5418,-3.5418,-3.5418,-3.5418,-3.5418,-3.5418,-3.5418,-3.5418,-3.5418,-3.5418,-3.5418,-3.5418,-3.5418,-3.5418,-3.5418,-3.5418,-3.5418,-3.5418,-3.5418,-3.5418,-3.5418,-3.5418,-3.5418,-3.5418,-3.5418,-3.5418,-3.5418,-3.6613,-3.9216,-3.9216,-4.0714,-4.3576,-4.3727,-4.4405,-1.9491,-1.9696,-1.9733,-1.7823,-1.7574,-1.7391,-1.5818,-1.6148,-1.663,-1.6052,-1.6616,-1.7143,-1.6872,-1.6301,-1.5767,-1.5467,-1.5831,0.0,0.0,-1.5961,0.0,0.0,0.0,0.0,0.0,-2.2729,-2.2873,-2.513,-2.4064,-2.4871,-2.8442,-2.9528,-3.0657,-3.2002,-3.2489,-3.2727,-3.2727,-3.2727,-3.2727,-3.2727,-3.2727,-3.2727,-3.2727,-3.2727,-3.2727,-3.2727,-3.2727,-3.2727,-3.2727,-3.2747,-3.2747,-3.2799,-3.3234,-3.341,-3.3534,-3.4445,-3.4786,-3.4838,-3.5273,-3.5418,-3.5418,-3.5418,-3.5418,-3.5418,-3.5418,-3.5418,-3.5418,-3.5418,-3.5418,-3.5418,-3.5418,-3.5418,-3.5418,-3.5418,-3.5418,-3.5418,-3.5418,-3.5418,-3.5418,-3.5418,-3.5418,-3.5418,-3.5418,-3.5418,-3.5418,-3.5418,-3.5418,-3.5418,-3.5418,-3.5418,-3.5418,-3.5418,-3.5418,-3.5418,-3.5418,-3.5418,-3.5418,-3.5418,-3.5418,-3.5418,-3.5418,-3.5418,-3.5418,-3.5418,-3.5418,-3.6613,-3.9216,-3.9216,-4.0524,-4.3024,-4.3551,-4.4405,-1.9992,-2.0494,-2.073,-1.8966,-1.8505,-1.8059,-1.6455,-1.6469,-1.6674,-1.6045,-1.6674,-1.7165,-1.663,-1.6191,-1.5811,-1.5482,-1.5706,-1.5549,0.0,-1.5206,0.0,0.0,0.0,0.0,0.0,-2.1725,-2.2252,-2.3339,-2.3557,-2.4705,-2.7127,-2.8711,-3.0036,-3.1112,-3.1878,-3.2426,-3.2727,-3.2727,-3.2727,-3.2727,-3.2727,-3.2727,-3.2727,-3.2727,-3.2727,-3.2727,-3.2727,-3.2727,-3.2727,-3.2727,-3.2727,-3.2747,-3.2892,-3.2954,-3.3058,-3.3969,-3.4496,-3.4828,-3.5262,-3.5418,-3.5418,-3.5418,-3.5418,-3.5418,-3.5418,-3.5418,-3.5418,-3.5418,-3.5418,-3.5418,-3.5418,-3.5418,-3.5418,-3.5418,-3.5418,-3.5418,-3.5418,-3.5418,-3.5418,-3.5418,-3.5418,-3.5418,-3.5418,-3.5418,-3.5418,-3.5418,-3.5418,-3.5418,-3.5418,-3.5418,-3.5418,-3.5418,-3.5418,-3.5418,-3.5418,-3.5418,-3.5418,-3.5418,-3.5418,-3.5418,-3.5418,-3.5418,-3.5418,-3.5418,-3.6247,-3.755,-3.9216,-4.0048,-4.1329,-4.2986,-4.3175,-4.3664,-2.0453,-2.0948,-2.1095,-1.9768,-1.9302,-1.8897,-1.7279,-1.7328,-1.7542,-1.6906,-1.7265,-1.7713,-1.7717,-1.695,-1.6227,-1.6067,-1.5848,-1.5471,0.0,-1.542,-1.6392,0.0,0.0,0.0,0.0,-2.0772,-2.1362,-2.2646,-2.2842,-2.3971,0.0,-2.7997,-2.9384,-3.0646,-3.1567,-3.2261,-3.2727,-3.2727,-3.2727,-3.2727,-3.2727,-3.2727,-3.2727,-3.2727,-3.2727,-3.2727,-3.2727,-3.2727,-3.2727,-3.2727,-3.2727,-3.2727,-3.2727,-3.2727,-3.282,-3.3555,-3.4217,-3.4797,-3.5086,-3.5293,-3.5418,-3.5418,-3.5418,-3.5418,-3.5418,-3.5418,-3.5418,-3.5418,-3.5418,-3.5418,-3.5418,-3.5418,-3.5418,-3.5418,-3.5418,-3.5418,-3.5418,-3.5418,-3.5418,-3.5418,-3.5418,-3.5418,-3.5418,-3.5418,-3.5418,-3.5418,-3.5418,-3.5418,-3.5418,-3.5418,-3.5418,-3.5418,-3.5418,-3.5418,-3.5418,-3.5418,-3.5418,-3.5418,-3.5418,-3.5418,-3.5418,-3.5418,-3.5418,-3.5418,-3.6592,-3.7899,-3.9216,-4.0512,-4.1797,-4.2974,-4.2974,-4.3175]},{"header":{"parameterUnit":"m.s-1","parameterCategory":1,"la1":30.6,"la2":29.2853,"lo1":-89.7004,"lo2":-87.6739,"dy":0.0162,"dx":0.0183,"nx":112,"ny":82,"refTime":"2024-08-04T12:00:00:Z","depth":0,"parameterNumber":3,"parameterNumberName":"V-component_of_WINDS"},"data":[0.0,0.0,0.0,0.0,0.0,0.0,0.0,0.0,0.0,0.0,0.0,0.0,0.0,0.0,0.0,0.0,0.0,0.0,0.0,0.0,0.0,0.0,0.0,0.0,0.0,0.0,0.0,0.0,0.0,0.0,0.0,0.0,0.0,0.0,0.0,0.0,0.0,0.0,0.0,0.0,0.0,0.0,0.0,0.0,0.0,0.0,0.0,0.0,0.0,0.0,0.0,0.0,0.0,0.0,0.0,0.0,0.0,0.0,0.0,0.0,0.0,0.0,0.0,0.0,0.0,0.0,0.0,0.0,0.0,0.0,0.0,0.0,0.0,0.0,0.0,0.0,0.0,0.0,0.0,0.0,0.0,0.0,0.0,0.0,0.0,0.0,0.0,0.0,0.0,0.0,-3.3627,-3.5882,-3.9825,-4.2287,-4.2287,-4.1448,-3.8665,-3.3401,0.0,0.0,0.0,0.0,0.0,0.0,0.0,0.0,0.0,0.0,0.0,0.0,0.0,0.0,0.0,0.0,0.0,0.0,0.0,0.0,0.0,0.0,0.0,0.0,0.0,0.0,0.0,0.0,0.0,0.0,0.0,0.0,0.0,0.0,0.0,0.0,0.0,0.0,0.0,0.0,0.0,0.0,0.0,0.0,0.0,0.0,0.0,0.0,0.0,0.0,0.0,0.0,0.0,0.0,0.0,0.0,0.0,0.0,0.0,0.0,0.0,0.0,0.0,0.0,0.0,0.0,0.0,0.0,0.0,0.0,0.0,0.0,0.0,0.0,0.0,0.0,0.0,0.0,0.0,0.0,0.0,0.0,0.0,0.0,0.0,0.0,0.0,0.0,0.0,0.0,0.0,0.0,0.0,0.0,0.0,0.0,0.0,0.0,0.0,0.0,0.0,0.0,0.0,0.0,-3.4281,-3.9649,-4.1448,-4.2287,-4.2287,-4.0949,-3.8326,-3.4187,0.0,0.0,0.0,0.0,0.0,0.0,0.0,0.0,0.0,0.0,0.0,0.0,0.0,0.0,0.0,0.0,0.0,0.0,0.0,0.0,0.0,0.0,0.0,0.0,0.0,0.0,0.0,0.0,0.0,0.0,0.0,0.0,0.0,0.0,0.0,0.0,0.0,0.0,0.0,0.0,0.0,0.0,0.0,0.0,0.0,0.0,0.0,0.0,0.0,0.0,0.0,0.0,0.0,0.0,0.0,0.0,0.0,0.0,0.0,0.0,0.0,0.0,0.0,0.0,0.0,0.0,0.0,0.0,0.0,0.0,0.0,0.0,0.0,0.0,0.0,0.0,0.0,0.0,0.0,0.0,0.0,0.0,0.0,0.0,0.0,0.0,0.0,0.0,0.0,0.0,0.0,0.0,0.0,0.0,0.0,0.0,0.0,0.0,0.0,0.0,0.0,0.0,0.0,-3.2991,-3.5856,-4.1203,-4.2073,-4.2287,-4.2287,-4.0842,-3.8058,-3.3723,-3.1564,0.0,0.0,0.0,0.0,0.0,0.0,0.0,0.0,0.0,0.0,0.0,0.0,0.0,0.0,0.0,0.0,0.0,0.0,0.0,0.0,0.0,0.0,0.0,0.0,0.0,0.0,0.0,0.0,0.0,0.0,0.0,0.0,0.0,0.0,0.0,0.0,0.0,0.0,0.0,0.0,0.0,0.0,0.0,0.0,0.0,0.0,0.0,0.0,0.0,0.0,0.0,0.0,0.0,0.0,0.0,0.0,0.0,0.0,0.0,0.0,0.0,0.0,0.0,0.0,0.0,0.0,0.0,0.0,0.0,0.0,0.0,0.0,0.0,0.0,0.0,0.0,0.0,0.0,0.0,0.0,0.0,0.0,0.0,0.0,0.0,0.0,0.0,0.0,0.0,0.0,0.0,0.0,0.0,0.0,0.0,0.0,0.0,0.0,0.0,0.0,0.0,0.0,-3.6179,-3.7899,-4.1859,-4.2287,-4.2287,-4.2287,-4.0324,-3.7309,-3.3184,-3.0154,0.0,0.0,0.0,0.0,0.0,0.0,0.0,0.0,0.0,0.0,0.0,0.0,0.0,0.0,0.0,0.0,0.0,0.0,0.0,0.0,0.0,0.0,0.0,0.0,0.0,0.0,0.0,0.0,0.0,0.0,0.0,0.0,0.0,0.0,0.0,0.0,0.0,0.0,0.0,0.0,0.0,0.0,0.0,0.0,0.0,0.0,0.0,0.0,0.0,0.0,0.0,0.0,0.0,0.0,0.0,0.0,0.0,0.0,0.0,0.0,0.0,0.0,0.0,0.0,0.0,0.0,0.0,0.0,0.0,0.0,0.0,0.0,0.0,0.0,0.0,0.0,0.0,0.0,0.0,0.0,0.0,0.0,0.0,0.0,0.0,0.0,0.0,0.0,0.0,0.0,0.0,0.0,0.0,0.0,0.0,0.0,0.0,0.0,0.0,0.0,0.0,0.0,-3.7075,-4.0289,-4.2091,-4.2287,-4.2287,-4.2287,-3.8826,-3.556,-3.3077,-2.8584,0.0,0.0,0.0,0.0,0.0,0.0,0.0,0.0,0.0,0.0,0.0,0.0,0.0,0.0,0.0,0.0,0.0,0.0,0.0,0.0,0.0,0.0,0.0,0.0,0.0,0.0,0.0,0.0,0.0,0.0,0.0,0.0,0.0,0.0,0.0,0.0,0.0,0.0,0.0,0.0,0.0,0.0,0.0,0.0,0.0,0.0,0.0,0.0,0.0,0.0,0.0,0.0,0.0,0.0,0.0,0.0,0.0,0.0,0.0,0.0,0.0,0.0,0.0,0.0,0.0,0.0,0.0,0.0,0.0,0.0,0.0,0.0,0.0,0.0,0.0,0.0,0.0,0.0,0.0,0.0,0.0,0.0,0.0,0.0,0.0,0.0,0.0,0.0,0.0,0.0,0.0,0.0,0.0,0.0,0.0,0.0,0.0,0.0,0.0,0.0,0.0,0.0,-3.6373,-3.9488,-4.2019,-4.2287,-4.2287,-4.2287,-3.9784,-3.6697,-3.3116,0.0,0.0,0.0,0.0,0.0,0.0,0.0,0.0,0.0,0.0,0.0,0.0,0.0,0.0,0.0,0.0,0.0,0.0,0.0,0.0,0.0,0.0,0.0,0.0,0.0,0.0,0.0,0.0,0.0,0.0,0.0,0.0,0.0,0.0,0.0,0.0,0.0,0.0,0.0,0.0,0.0,0.0,0.0,0.0,0.0,0.0,0.0,0.0,0.0,0.0,0.0,0.0,0.0,0.0,0.0,0.0,0.0,0.0,0.0,0.0,0.0,0.0,0.0,0.0,0.0,0.0,0.0,0.0,0.0,0.0,0.0,0.0,0.0,0.0,0.0,0.0,0.0,0.0,0.0,0.0,0.0,0.0,0.0,0.0,0.0,0.0,0.0,0.0,0.0,0.0,0.0,0.0,0.0,0.0,0.0,0.0,0.0,0.0,0.0,0.0,0.0,0.0,-3.2762,-3.65,-3.9667,-4.2037,-4.2287,-4.2287,-4.2287,-3.977,-3.6632,-3.3134,0.0,0.0,0.0,0.0,0.0,0.0,0.0,0.0,0.0,0.0,0.0,0.0,0.0,0.0,0.0,0.0,0.0,0.0,0.0,0.0,0.0,0.0,0.0,0.0,0.0,0.0,0.0,0.0,0.0,0.0,0.0,0.0,0.0,0.0,0.0,0.0,0.0,0.0,0.0,0.0,0.0,0.0,0.0,0.0,0.0,0.0,0.0,0.0,0.0,0.0,0.0,0.0,0.0,0.0,0.0,0.0,0.0,0.0,0.0,0.0,0.0,0.0,0.0,0.0,0.0,0.0,0.0,0.0,0.0,0.0,0.0,0.0,0.0,0.0,0.0,0.0,0.0,0.0,0.0,0.0,0.0,0.0,0.0,0.0,0.0,0.0,0.0,0.0,0.0,0.0,0.0,0.0,0.0,0.0,0.0,0.0,0.0,0.0,0.0,0.0,0.0,0.0,-3.2724,-3.7738,-4.1413,-4.2198,-4.2287,-4.2287,-4.2287,-3.8245,-3.494,0.0,0.0,0.0,0.0,0.0,0.0,0.0,0.0,0.0,0.0,0.0,0.0,0.0,0.0,0.0,0.0,0.0,0.0,0.0,0.0,0.0,0.0,0.0,0.0,0.0,0.0,0.0,0.0,0.0,0.0,0.0,0.0,0.0,0.0,0.0,0.0,0.0,0.0,0.0,0.0,0.0,0.0,0.0,0.0,0.0,0.0,0.0,0.0,0.0,0.0,0.0,0.0,0.0,0.0,0.0,0.0,0.0,0.0,0.0,0.0,0.0,0.0,0.0,0.0,0.0,0.0,0.0,0.0,0.0,0.0,0.0,0.0,0.0,0.0,0.0,0.0,0.0,0.0,0.0,0.0,0.0,0.0,0.0,0.0,0.0,0.0,0.0,0.0,0.0,0.0,0.0,0.0,0.0,0.0,0.0,0.0,0.0,0.0,0.0,0.0,0.0,0.0,0.0,-3.2834,-3.8276,-4.2037,-4.2251,-4.2287,-4.2287,-4.2287,-3.9522,-3.6339,-3.3102,0.0,0.0,0.0,0.0,0.0,0.0,0.0,0.0,0.0,0.0,0.0,0.0,0.0,0.0,0.0,0.0,0.0,0.0,0.0,0.0,0.0,0.0,0.0,0.0,0.0,0.0,0.0,0.0,0.0,0.0,0.0,0.0,0.0,0.0,0.0,0.0,0.0,0.0,0.0,0.0,0.0,0.0,0.0,0.0,0.0,0.0,0.0,0.0,0.0,0.0,0.0,0.0,0.0,0.0,0.0,0.0,0.0,0.0,0.0,0.0,0.0,0.0,0.0,0.0,0.0,0.0,0.0,0.0,0.0,0.0,0.0,0.0,0.0,0.0,0.0,0.0,0.0,0.0,0.0,0.0,0.0,0.0,0.0,0.0,0.0,0.0,0.0,0.0,0.0,0.0,0.0,0.0,0.0,0.0,0.0,0.0,0.0,0.0,0.0,0.0,0.0,0.0,-3.3293,-3.865,-4.2287,-4.2287,-4.2287,-4.2287,-4.2287,-4.0307,-3.7502,-3.3844,0.0,0.0,0.0,0.0,0.0,0.0,0.0,0.0,0.0,0.0,0.0,0.0,0.0,0.0,0.0,0.0,0.0,0.0,0.0,0.0,0.0,0.0,0.0,0.0,0.0,0.0,0.0,0.0,0.0,0.0,0.0,0.0,0.0,0.0,0.0,0.0,0.0,0.0,0.0,0.0,0.0,0.0,0.0,0.0,0.0,0.0,0.0,0.0,0.0,0.0,0.0,0.0,0.0,0.0,0.0,0.0,0.0,0.0,0.0,0.0,0.0,0.0,0.0,0.0,0.0,0.0,0.0,0.0,0.0,0.0,0.0,0.0,0.0,0.0,0.0,0.0,0.0,0.0,0.0,0.0,0.0,0.0,0.0,0.0,0.0,0.0,0.0,0.0,0.0,0.0,0.0,0.0,0.0,0.0,0.0,0.0,0.0,0.0,0.0,0.0,0.0,0.0,-3.3901,-3.8897,-4.2287,-4.2287,-4.2287,-4.2287,-4.2287,-4.0683,-3.8296,-3.4986,0.0,0.0,0.0,0.0,0.0,0.0,0.0,0.0,0.0,0.0,0.0,0.0,0.0,0.0,0.0,0.0,0.0,0.0,0.0,0.0,0.0,0.0,0.0,0.0,0.0,0.0,0.0,0.0,0.0,0.0,0.0,0.0,0.0,0.0,0.0,0.0,0.0,0.0,0.0,0.0,0.0,0.0,0.0,0.0,0.0,0.0,0.0,0.0,0.0,0.0,0.0,0.0,0.0,0.0,0.0,0.0,0.0,0.0,0.0,0.0,-3.418,-3.2449,0.0,0.0,0.0,0.0,0.0,0.0,0.0,0.0,0.0,0.0,0.0,0.0,0.0,0.0,0.0,0.0,0.0,0.0,0.0,0.0,0.0,0.0,0.0,0.0,0.0,0.0,0.0,0.0,0.0,0.0,0.0,0.0,0.0,0.0,0.0,0.0,0.0,0.0,0.0,0.0,-3.3901,-3.8897,-4.2287,-4.2287,-4.2287,-4.2287,-4.2287,-4.0683,-3.8504,-3.5668,-3.2346,0.0,0.0,0.0,0.0,0.0,0.0,0.0,0.0,0.0,0.0,0.0,0.0,0.0,0.0,0.0,0.0,0.0,0.0,0.0,0.0,0.0,0.0,0.0,0.0,0.0,0.0,0.0,0.0,0.0,0.0,0.0,0.0,0.0,0.0,0.0,0.0,0.0,0.0,0.0,0.0,0.0,0.0,0.0,0.0,0.0,0.0,0.0,0.0,0.0,0.0,0.0,0.0,0.0,0.0,0.0,0.0,0.0,0.0,0.0,-3.8998,-3.6963,0.0,0.0,0.0,0.0,0.0,0.0,0.0,0.0,0.0,0.0,0.0,0.0,0.0,0.0,0.0,0.0,0.0,0.0,0.0,0.0,0.0,0.0,0.0,0.0,0.0,0.0,0.0,0.0,0.0,0.0,0.0,0.0,0.0,0.0,0.0,0.0,0.0,0.0,0.0,0.0,-3.4954,-3.9361,-4.2287,-4.2287,-4.2287,-4.2287,-4.2287,-4.1033,-3.9351,-3.7224,-3.4542,0.0,0.0,0.0,0.0,0.0,0.0,0.0,0.0,0.0,0.0,0.0,0.0,0.0,0.0,0.0,0.0,0.0,0.0,0.0,0.0,0.0,0.0,0.0,0.0,0.0,0.0,0.0,0.0,0.0,0.0,0.0,0.0,0.0,0.0,0.0,0.0,0.0,0.0,0.0,0.0,0.0,0.0,0.0,0.0,0.0,0.0,0.0,0.0,0.0,0.0,0.0,0.0,0.0,-4.4642,-4.5653,-4.6334,-4.7755,-4.8678,-4.8919,-4.4428,-4.2717,-4.2949,-3.9875,0.0,0.0,0.0,0.0,0.0,0.0,0.0,0.0,0.0,0.0,0.0,0.0,0.0,0.0,0.0,0.0,0.0,0.0,0.0,0.0,0.0,0.0,-3.8883,-3.8883,-4.0462,-4.0757,-3.6367,0.0,0.0,0.0,0.0,0.0,0.0,0.0,0.0,0.0,0.0,0.0,-3.6684,-4.011,-4.2341,-4.2483,-4.2376,-4.2287,-4.2287,-4.1356,-4.0245,-3.8891,-3.6797,-3.4449,0.0,0.0,0.0,0.0,0.0,0.0,0.0,0.0,0.0,0.0,0.0,0.0,0.0,0.0,0.0,0.0,0.0,0.0,0.0,0.0,0.0,0.0,0.0,0.0,0.0,0.0,0.0,0.0,0.0,0.0,0.0,0.0,-3.1454,-3.3258,0.0,0.0,0.0,0.0,0.0,0.0,0.0,0.0,0.0,0.0,0.0,0.0,0.0,-4.5569,-4.6311,-4.8611,-4.9831,-5.0038,-5.0936,-5.1401,-5.1492,-5.1754,-5.2273,-5.2953,-5.2191,0.0,-4.7075,-4.3167,0.0,0.0,0.0,0.0,0.0,0.0,0.0,0.0,0.0,0.0,0.0,0.0,0.0,0.0,0.0,0.0,0.0,0.0,0.0,0.0,0.0,0.0,-4.3697,-4.3697,-4.3929,-4.3989,-4.3298,-3.9121,-3.5326,-3.4718,-3.2412,-3.0089,0.0,0.0,0.0,0.0,0.0,0.0,-3.9058,-4.1109,-4.2555,-4.3268,-4.2715,-4.2287,-4.2287,-4.1356,-4.0422,-3.9606,-3.7846,-3.6237,-3.4858,-3.25,0.0,0.0,0.0,0.0,0.0,0.0,0.0,0.0,0.0,0.0,0.0,0.0,0.0,0.0,0.0,0.0,0.0,0.0,0.0,0.0,0.0,0.0,0.0,0.0,0.0,0.0,0.0,0.0,0.0,-3.1281,-3.4314,-3.5574,-3.5523,-3.5053,0.0,0.0,0.0,0.0,0.0,0.0,0.0,0.0,0.0,-4.6355,-4.8739,-5.0443,-5.1415,-5.2685,-5.3419,-5.3643,-5.4182,-5.4472,-5.4472,-5.4943,-5.5323,-5.5631,-5.5178,-5.4059,-5.2261,-4.8298,-4.5533,-4.3556,0.0,0.0,0.0,0.0,-3.9388,-3.9452,-4.1235,-4.1313,-4.0457,-3.9765,0.0,0.0,0.0,0.0,0.0,0.0,0.0,-3.9571,-4.0841,-4.3265,-4.5558,-4.5965,-4.6678,-4.7265,-4.7265,-4.4879,-4.1938,-3.9172,-3.7219,-3.5014,-3.1898,-3.1124,0.0,0.0,0.0,-3.8041,-4.0289,-4.2341,-4.3572,-4.3518,-4.3179,-4.2787,-4.2323,-4.1356,-4.0664,-4.0319,-3.9059,-3.7899,-3.7036,-3.5127,-3.2968,0.0,0.0,0.0,0.0,0.0,0.0,0.0,0.0,0.0,0.0,0.0,0.0,0.0,0.0,0.0,0.0,0.0,0.0,0.0,0.0,0.0,0.0,0.0,0.0,0.0,0.0,0.0,0.0,-3.4588,-3.7217,-3.8382,-3.9187,-3.9049,0.0,0.0,0.0,0.0,0.0,0.0,-4.6148,-4.7933,-4.9745,-5.1663,-5.3248,-5.4436,-5.5254,-5.5525,-5.5826,-5.6106,-5.6237,-5.6301,-5.6319,-5.6935,-5.7188,-5.717,-5.6573,-5.6233,-5.5794,-5.2226,-4.9619,-4.7637,-4.5717,-4.4456,-4.3855,-4.4638,-4.455,-4.4379,-4.6969,-4.7106,-4.5905,-4.4594,-4.2976,-4.1064,-3.8305,0.0,0.0,0.0,0.0,-4.1687,-4.3356,-4.5215,-4.6856,-4.7399,-4.8399,-4.9317,-4.9317,-4.8871,-4.7301,-4.3358,-4.1805,-3.9878,-3.5953,-3.5114,0.0,-3.5257,-3.7809,-4.0324,-4.2073,-4.3661,-4.4482,-4.4143,-4.3782,-4.3276,-4.2477,-4.1453,-4.0817,-4.0611,-3.9799,-3.904,-3.851,-3.7251,-3.5611,-3.3574,0.0,0.0,0.0,0.0,0.0,0.0,0.0,0.0,0.0,0.0,0.0,0.0,0.0,0.0,0.0,0.0,0.0,0.0,0.0,0.0,0.0,0.0,0.0,0.0,0.0,0.0,0.0,0.0,0.0,-4.239,-4.3196,0.0,0.0,0.0,0.0,-4.4855,-4.7278,-4.9738,-5.2136,-5.3855,-5.5126,-5.5879,-5.7077,-5.7751,-5.7826,-5.7783,-5.774,-5.7776,-5.7328,-5.7134,-5.7134,-5.717,-5.7188,-5.7188,-5.7152,-5.6809,-5.6062,-5.3484,-5.1946,-5.1119,-4.9452,-4.8452,-4.7928,-4.8259,-4.8328,-4.8414,-4.9367,-4.8846,-4.7894,-4.8686,-4.6782,-4.4069,-4.3978,-4.3338,0.0,0.0,-4.4923,-4.613,-4.6109,-4.7212,-4.8276,-4.8311,-4.8856,-4.9317,-4.9317,-4.9281,-4.8746,-4.7033,-4.5445,-4.3839,-4.2109,0.0,-4.0949,-4.1698,-4.1984,-4.2947,-4.5267,-4.5017,-4.4892,-4.5624,-4.4534,-4.3483,-4.2738,-4.1707,-4.0764,-4.0104,-3.9592,-3.9255,-3.9222,-3.8493,-3.7384,-3.586,-3.2911,0.0,0.0,0.0,0.0,0.0,0.0,0.0,0.0,0.0,0.0,0.0,0.0,0.0,0.0,0.0,0.0,0.0,0.0,0.0,0.0,0.0,0.0,0.0,0.0,0.0,0.0,0.0,0.0,-4.5973,-4.7702,0.0,-4.7415,-4.795,-4.8843,-5.001,-5.182,-5.3693,-5.5617,-5.6825,-5.768,-5.8132,-5.8857,-5.8966,-5.8402,-5.8354,-5.8201,-5.7905,-5.7419,-5.7188,-5.7188,-5.7188,-5.7188,-5.7188,-5.7188,-5.6863,-5.6222,-5.5328,-5.4278,-5.3097,-5.1581,-5.0898,-5.0662,-5.0376,-5.0249,-5.0283,-5.0618,-5.0236,-4.9634,-4.9254,-4.845,-4.7417,-4.6903,-4.6173,-4.5698,-4.6394,-4.669,-4.6841,-4.7267,-4.8082,-4.8723,-4.8723,-4.918,-4.9622,-4.9622,-4.9943,-4.9941,-4.8847,-4.7707,-4.6409,-4.4821,-4.4303,-4.3893,-4.3179,-4.3911,-4.4707,-4.5205,-4.5505,-4.5399,-4.475,-4.4275,-4.3516,-4.2285,-4.1527,-4.0815,-4.0054,-3.9556,-3.9272,-3.9272,-3.9023,-3.8195,-3.6738,-3.475,-3.1934,0.0,0.0,0.0,0.0,0.0,0.0,0.0,0.0,0.0,0.0,0.0,0.0,0.0,0.0,0.0,0.0,0.0,0.0,0.0,0.0,0.0,0.0,0.0,0.0,0.0,-4.3564,-4.6971,-4.8619,-5.1047,-5.224,-5.1303,-5.2303,-5.3377,-5.4234,-5.5474,-5.6796,-5.8161,-5.8786,-5.9219,-5.9451,-5.9434,-5.9197,-5.8586,-5.8289,-5.7978,-5.7642,-5.7338,-5.7188,-5.7188,-5.7188,-5.7188,-5.7188,-5.7188,-5.674,-5.6035,-5.6035,-5.5185,-5.3862,-5.3159,-5.274,-5.2506,-5.2092,-5.1995,-5.1995,-5.1913,-5.1546,-5.0928,-5.0175,-4.9775,-4.9476,-4.8895,-4.8415,-4.8117,-4.8597,-4.8398,-4.8067,-4.8315,-4.8818,-4.9204,-4.8951,-4.9351,-4.9804,-4.9804,-5.0124,-5.0282,-4.9742,-4.9286,-4.8532,-4.7212,-4.6824,-4.6394,-4.5579,-4.5981,-4.6227,-4.5817,-4.6073,-4.5838,-4.463,-4.4353,-4.3648,-4.2158,-4.1508,-4.0771,-3.9833,-3.9451,-3.9272,-3.9272,-3.904,-3.846,-3.75,-3.5528,-3.3193,-3.051,0.0,0.0,0.0,0.0,0.0,0.0,0.0,0.0,0.0,0.0,0.0,0.0,0.0,0.0,0.0,0.0,0.0,0.0,0.0,0.0,0.0,0.0,0.0,-4.3088,-4.6531,-4.9446,-5.0483,-5.3206,-5.4429,-5.2962,-5.4933,-5.6645,-5.7422,-5.8256,-5.907,-5.9847,-5.9885,-5.9885,-5.9853,-5.9026,-5.8586,-5.8545,-5.7671,-5.7188,-5.7188,-5.7188,-5.7188,-5.7188,-5.7188,-5.7188,-5.7188,-5.7188,-5.6528,-5.5385,-5.5385,-5.4631,-5.3568,-5.4171,-5.3994,-5.3501,-5.3501,-5.3501,-5.3501,-5.3264,-5.2571,-5.1832,-5.161,-5.0971,-5.0286,-5.0286,-5.027,-5.0237,-5.0237,-5.0237,-5.0055,-4.9326,-4.9605,-4.9801,-4.9137,-4.9342,-4.9797,-4.9797,-4.9763,-4.9746,-4.9746,-5.0136,-5.0232,-4.9465,-4.8826,-4.8588,-4.919,-4.826,0.0,-4.7296,-4.6777,-4.6111,-4.5371,-4.4818,-4.3893,-4.2458,-4.1744,-4.0812,-3.9404,-3.9288,-3.9288,-3.9305,-3.8642,-3.8278,-3.8245,-3.5363,-3.3491,-3.2746,0.0,0.0,0.0,0.0,0.0,0.0,0.0,0.0,0.0,0.0,0.0,0.0,0.0,0.0,0.0,0.0,0.0,0.0,0.0,0.0,0.0,-4.4518,-4.7376,-4.8028,-5.059,-5.3138,-5.5237,-5.6774,-5.7718,-5.7863,-5.8496,-5.8957,-5.9184,-5.943,-5.9658,-5.9885,-5.9885,-5.9613,-5.8988,-5.9026,-5.8549,-5.7576,-5.769,-5.7565,-5.7188,-5.7188,-5.7188,-5.7188,-5.7188,-5.7188,-5.7188,-5.7188,-5.6528,-5.5385,-5.5385,-5.4631,-5.3501,-5.3668,-5.3685,-5.3501,-5.3501,-5.3501,-5.3433,-5.3127,-5.2838,-5.2533,-5.2271,-5.2014,-5.1794,-5.1794,-5.1413,-5.0982,-5.0982,-5.0601,-5.0171,-4.9955,-5.0025,-5.0076,-4.9876,-4.9541,-4.9254,-4.9254,-4.9227,-4.9171,-4.9171,-4.9591,-4.9893,-4.9684,-4.9104,-4.8702,-4.8866,-4.8069,-4.7361,-4.6914,-4.6266,-4.5762,-4.5541,-4.4555,-4.3621,-4.3149,-4.2028,-4.1028,-4.0133,-3.957,-3.952,-4.005,-3.9885,-3.952,-3.899,-3.6622,-3.5032,0.0,0.0,0.0,0.0,0.0,0.0,0.0,0.0,0.0,0.0,0.0,0.0,0.0,0.0,0.0,0.0,0.0,0.0,0.0,0.0,0.0,0.0,-4.8696,-5.1566,-5.3432,-5.46,-5.5925,-5.7725,-5.8691,-5.9374,-5.9847,-5.9885,-5.9885,-5.9885,-5.9885,-6.0037,-6.0378,-6.0244,-6.004,-5.9897,-5.9756,-5.9287,-5.8518,-5.8567,-5.8487,-5.8202,-5.8202,-5.8202,-5.8202,-5.8202,-5.8202,-5.8202,-5.7906,-5.7079,-5.5841,-5.5558,-5.4655,-5.3501,0.0,0.0,0.0,0.0,-5.3501,-5.3433,-5.3127,-5.2972,-5.2834,-5.257,-5.2445,-5.2373,-5.2373,-5.2075,-5.1744,-5.1744,-5.1429,-5.1048,-5.0734,-5.0651,-5.0585,-5.0286,-4.9889,-4.9574,-4.9574,-4.9276,-4.8966,-4.8966,-4.8996,0.0,-4.9023,-4.8907,-4.8853,-4.9126,-4.8302,-4.759,-4.7208,-4.6582,-4.6032,-4.5714,-4.473,-4.3879,-4.3535,-4.2515,0.0,0.0,0.0,-4.0233,-4.0365,-4.0382,0.0,0.0,0.0,0.0,0.0,0.0,0.0,0.0,-3.7284,-3.7301,0.0,0.0,0.0,0.0,0.0,0.0,0.0,0.0,0.0,0.0,0.0,0.0,0.0,0.0,0.0,0.0,-5.2617,-5.5223,-5.8388,-5.8161,-5.7971,-5.8729,-5.9468,-5.9885,-5.9885,-5.9885,-5.9923,-6.0018,-6.0037,-6.0378,-6.1126,-6.0754,0.0,0.0,0.0,-6.0261,-6.0231,-5.9838,-5.9615,-5.9615,-5.9615,-5.9615,-5.9615,-5.9615,-5.9544,-5.942,-5.8892,-5.7818,-5.6492,-5.5888,-5.4798,-5.3619,-5.3534,-5.3501,-5.3501,-5.3501,-5.3501,-5.3433,-5.3264,0.0,0.0,-5.2624,-5.2516,-5.2373,-5.2373,-5.2373,-5.2373,-5.2373,-5.2373,-5.2224,-5.1562,-5.1396,-5.1247,-5.0601,-5.0386,-5.0336,-5.0336,-4.9756,-4.9226,-4.9226,-4.863,-4.8117,-4.8117,-4.85,-4.9006,-4.9529,-4.8685,-4.793,-4.7838,-4.7287,-4.6706,-4.6105,-4.5313,0.0,-4.3969,-4.3181,-4.2485,-4.1823,-4.1789,-4.1508,-4.0895,-4.0945,-4.0945,-4.0878,-4.1475,-4.2104,-4.2767,-4.4059,-4.4489,-4.4026,-4.0647,-4.0448,0.0,0.0,0.0,0.0,0.0,0.0,0.0,0.0,0.0,0.0,0.0,0.0,0.0,0.0,0.0,-5.3427,-5.5569,-5.7384,-5.9374,-5.9506,-5.9468,-5.9639,-5.9809,-5.9885,-5.9885,-5.9885,-6.017,-6.0814,-6.0871,-6.1076,-6.1563,-6.1487,-6.1166,-6.0573,-6.0404,-6.0152,-5.9735,-5.9649,-5.9615,-5.9615,-5.9615,0.0,-5.9615,-5.9615,-5.9295,-5.8762,-5.8649,-5.7804,-5.6539,-5.6426,-5.5568,-5.4329,-5.3737,-5.3501,-5.3501,-5.3501,-5.3416,-5.3264,-5.3041,-5.2834,-5.2624,-5.2516,-5.2445,-5.2373,-5.2373,-5.2373,0.0,-5.2373,-5.2373,-5.2357,-5.2208,-5.2175,-5.2125,-5.1993,-5.1512,-5.1065,-5.1065,-5.0502,-5.0005,-5.0005,-4.9409,-4.8895,-4.8895,-4.8513,-4.8227,-4.8339,-4.8179,-4.8016,-4.798,-4.732,-4.6999,-4.7295,-4.6291,-4.5763,-4.6077,-4.4973,-4.4208,-4.4059,-4.4042,-4.3992,-4.386,-4.4423,-4.4473,-4.386,-4.3992,-4.4125,-4.4274,-4.4556,-4.5533,-4.7106,-4.5202,-4.4622,0.0,0.0,0.0,0.0,0.0,0.0,0.0,0.0,0.0,0.0,0.0,-4.6066,-4.8499,0.0,-5.3038,-5.6358,-5.754,-5.8483,-5.9715,-5.9885,-5.9885,-5.9885,-5.9885,-5.9885,-5.9885,-5.9885,-6.0141,-6.071,-6.0978,-6.1349,-6.1917,-6.1931,-6.18,-6.1484,-6.124,-6.1038,-6.081,-6.081,-6.081,-6.081,-6.081,-6.081,-6.081,-6.0429,-6.0113,-5.975,-5.9056,-5.8136,-5.7118,-5.6456,-5.5792,-5.5091,-5.4346,-5.3822,-5.3501,-5.3501,-5.3348,-5.3179,-5.311,-5.2834,-5.2553,-5.2499,-5.2445,-5.2373,-5.2373,-5.2373,-5.2373,-5.2373,-5.2373,-5.2373,-5.2373,-5.2373,-5.2373,-5.2373,-5.2092,-5.1827,-5.1827,-5.1264,-5.075,-5.075,-5.0154,-4.9541,-4.9177,-4.8796,-4.8431,-4.8067,-4.8001,-4.8001,-4.8001,-4.7686,-4.7566,-4.7835,-4.6949,-4.6454,-4.6748,-4.5834,-4.5235,-4.5235,-4.5235,-4.5235,-4.5235,-4.5599,-4.5616,-4.5251,-4.5599,-4.5798,-4.5798,-4.6527,-4.7471,-4.8547,-4.8166,-4.8001,0.0,0.0,0.0,0.0,0.0,0.0,0.0,0.0,-4.3886,-4.7624,-4.9629,-5.1514,-5.4085,-5.5265,-5.6482,-5.859,-5.8919,-5.9146,-5.9809,-5.9885,-5.9885,-5.9885,-5.9885,-5.9885,-5.9885,-6.0037,-6.0267,-6.0642,-6.1163,-6.1695,-6.2242,-6.2289,-6.24,-6.2544,-6.2185,-6.2023,-6.2023,-6.2023,-6.2023,-6.2023,-6.2023,-6.195,-6.1766,-6.1239,-6.0849,-6.0511,-5.9212,-5.8359,-5.7689,-5.6471,-5.5919,-5.5852,-5.5091,-5.4448,-5.389,-5.3619,-5.3348,-5.311,-5.311,-5.292,-5.257,-5.257,-5.2499,-5.2373,-5.2373,-5.2373,-5.2373,-5.2373,-5.2373,-5.2373,-5.2373,-5.2373,-5.2373,-5.2373,-5.2373,-5.2373,-5.2373,-5.191,-5.1496,-5.1496,-5.0916,-5.022,-4.9641,-4.9409,-4.9028,-4.8133,-4.8001,-4.8001,-4.8001,-4.8001,-4.8001,-4.8001,-4.7471,-4.7106,-4.7106,-4.656,-4.6228,-4.6228,-4.6228,-4.6228,-4.6228,-4.6228,-4.6228,-4.6228,-4.6941,-4.7322,-4.7322,-4.8663,-4.9392,-4.9541,-5.0137,-5.0419,-3.5897,-3.6741,-3.8252,-4.2103,-4.2546,-4.4176,0.0,0.0,-5.1999,-5.4591,-5.5852,-5.6592,-5.6941,-5.7699,-5.8628,-5.9601,-5.9772,-5.9791,-5.9885,-5.9885,-5.9885,-5.9885,-5.9885,-5.9885,-5.9885,-6.0549,-6.1117,-6.1524,-6.2295,-6.2683,-6.2659,-6.2647,-6.2471,-6.2096,-6.2005,-6.2023,-6.2023,-6.2023,-6.2023,-6.2023,-6.2023,-6.1692,-6.1104,-6.1027,-6.0326,-5.9095,-5.8334,-5.7976,-5.784,-5.704,-5.6681,-5.6613,-5.5869,-5.5547,-5.531,-5.3991,-5.328,-5.2903,-5.2903,-5.2711,-5.2445,-5.2445,-5.2373,-5.2373,-5.2373,-5.2373,-5.2373,-5.2373,-5.2373,-5.2373,-5.2373,-5.2373,-5.2373,-5.2373,-5.2373,-5.2373,-5.2373,-5.2324,-5.2258,-5.2258,-5.1661,-5.1131,-5.1048,-5.0502,-4.9607,-4.8216,-4.8001,-4.8001,-4.8001,-4.8001,-4.8001,-4.8001,-4.7934,-4.7885,-4.7885,-4.7802,-4.7752,-4.7752,-4.7752,-4.7752,-4.7752,-4.7752,-4.7752,-4.7752,-4.8481,-4.8862,-4.8862,-4.969,-5.0419,-5.1032,-5.1115,-5.1164,-4.1767,-4.3422,-4.4844,0.0,-4.8615,-5.0703,-5.4666,-5.4695,-5.4591,-5.713,-5.7914,-5.8293,-5.8767,-5.9146,-5.9506,0.0,-5.9885,-5.9885,-5.9885,-5.9885,-5.9715,-5.926,-5.9601,-5.9885,-5.9885,-5.9949,-6.036,-6.1218,-6.1549,-6.1836,-6.2182,-6.2427,-6.2394,-6.1913,-6.1969,-6.2023,-6.2023,-6.2023,-6.2023,-6.2023,-6.2023,-6.1636,-6.0986,-6.0608,-5.9626,-5.8334,-5.801,-5.7881,-5.7865,-5.756,-5.7442,-5.7357,-5.663,-5.6271,-5.6031,-5.4546,-5.3766,-5.3472,-5.2914,-5.257,-5.2373,-5.2373,-5.2373,-5.2373,-5.2373,-5.2373,-5.2373,-5.2373,-5.2373,-5.2373,-5.2373,-5.2373,-5.2373,-5.2373,-5.2373,-5.2373,-5.2373,-5.2373,-5.2373,-5.2373,-5.2125,-5.1777,-5.1347,-5.1032,-5.0485,-4.9442,-4.8928,-4.8647,-4.8647,-4.8266,-4.8001,-4.8001,-4.8001,-4.8001,-4.8001,-4.8001,-4.8001,-4.8001,-4.8001,-4.8001,-4.8001,-4.8415,-4.8647,-4.8647,-4.9375,-4.9756,-4.9756,-5.0485,-5.0982,-5.128,-5.1711,-5.1926,-4.5572,-4.7886,0.0,-5.0696,-5.311,-5.5428,-5.5852,-5.5989,-5.6608,-5.8551,-5.8949,-5.9138,-5.9706,-5.9853,-5.9885,-5.9885,-5.9885,-5.9853,-5.9715,-5.9801,-5.9592,-5.8767,-5.9288,-5.9647,-5.9505,-5.9514,-5.9865,-6.0663,-6.0803,-6.1129,-6.1712,-6.2113,-6.2149,-6.1802,-6.1895,-6.1969,-6.2023,-6.1969,-6.1969,-6.2023,-6.1822,-6.1372,-6.0669,-5.9838,-5.8858,-5.7881,-5.7881,-5.7881,-5.7881,-5.7881,-5.7881,-5.7831,-5.7306,-5.6959,-5.6645,-5.5312,-5.4431,-5.3837,-5.3178,-5.2665,-5.2373,-5.2373,-5.2373,-5.2373,-5.2373,-5.2373,-5.2373,-5.2373,-5.2373,-5.2373,-5.2373,-5.2373,-5.2373,-5.2373,-5.2373,-5.2373,-5.2373,-5.2373,-5.2373,-5.2373,-5.2373,-5.2208,-5.1678,-5.1578,-5.1396,-5.0883,-5.0187,-4.9641,-4.9442,-4.8763,-4.8299,-4.8299,-4.8117,-4.8001,-4.8001,-4.8199,-4.8299,-4.8299,-4.8498,-4.8614,-4.8614,-4.9127,-4.9409,-4.9409,-5.0137,-5.0502,-5.0518,-5.1231,-5.1578,-5.1595,-5.2125,-5.2373,0.0,0.0,-5.1337,-5.2591,-5.4755,-5.6799,-5.7788,-5.8613,-5.9251,-5.9524,-5.9578,-5.9578,-5.9597,-5.9786,-5.9885,-5.9885,-5.9885,-5.9748,-5.9289,-5.9628,-5.9594,-5.8713,-5.8969,-5.9008,-5.8508,-5.9561,-6.0218,-6.0109,-6.0729,-6.124,-6.1597,-6.1746,-6.1784,-6.1802,-6.1802,-6.1858,-6.2023,-6.1858,-6.1858,-6.2023,-6.1372,-6.0669,-5.9966,-5.8615,-5.7954,-5.7881,-5.7881,-5.7881,-5.7881,-5.7881,-5.7881,-5.7881,-5.7865,-5.7701,-5.747,-5.6493,-5.5085,-5.369,-5.3673,-5.308,-5.2373,-5.2373,-5.2373,-5.2373,-5.2373,-5.2373,-5.2373,-5.2373,-5.2373,-5.2373,-5.2373,-5.2373,-5.2373,-5.2373,-5.2373,-5.2373,-5.2373,-5.2373,-5.2373,-5.2373,-5.2373,-5.2373,-5.2357,-5.2357,-5.234,-5.2324,-5.1694,-5.0949,-5.027,-4.9525,-4.9077,-4.9077,-4.8431,-4.8001,-4.8001,-4.8663,-4.9077,-4.9077,-4.9756,-5.0154,-5.0154,-5.0171,-5.0187,-5.0187,-5.0883,-5.1247,-5.1247,-5.1993,-5.2357,-5.2357,-5.2373,-5.2373,-4.8585,0.0,-5.4237,-5.5168,-5.6705,-5.8138,-5.8747,-5.899,-5.899,-5.8668,-5.8264,-5.7786,-5.7239,-5.7295,-5.7529,-5.7736,-5.8248,-5.867,-5.8796,-5.9281,-5.9166,-5.7881,-5.8661,-5.8696,-5.7242,-5.7958,-5.8961,-5.9894,-5.9814,-6.0194,-6.1315,-6.1577,-6.1867,-6.2274,-6.2483,-6.2792,-6.3239,-6.3279,-6.3069,-6.2617,-6.1624,-6.0784,-6.0045,-5.9047,-5.8355,-5.7881,-5.7881,-5.7881,-5.7881,-5.7881,-5.7881,-5.7881,-5.7881,-5.7808,-5.7554,-5.7096,-5.6154,-5.5022,-5.3894,-5.334,-5.2986,-5.2523,-5.2373,-5.2373,-5.2373,-5.2373,-5.2373,-5.2373,-5.2373,-5.2373,-5.2373,-5.2373,-5.2373,-5.2373,-5.2373,-5.2373,-5.2373,-5.2373,-5.2373,-5.2373,-5.2373,-5.2373,-5.2373,-5.2373,-5.2373,-5.2373,-5.1744,-5.1015,-5.0303,-4.9988,-4.9839,-4.9839,-4.9624,-4.9475,-4.9475,-4.9707,-4.9839,-4.9839,-5.0071,-5.022,-5.022,-5.0667,-5.0916,-5.0916,-5.1628,-5.2009,-5.2009,-5.2258,-5.2373,-5.2373,-5.2373,-5.2373,-5.1668,-5.3983,-5.5784,-5.7041,-5.804,-5.8781,-5.912,-5.8799,-5.8198,-5.7304,-5.6582,-5.5762,-5.467,-5.4591,-5.5076,-5.6323,-5.6899,-5.7604,-5.8754,-5.9144,-5.898,-5.8088,-5.8612,-5.8637,-5.7447,-5.7865,-5.854,-5.9488,-5.9437,-5.9996,-6.1551,-6.1817,-6.2234,-6.2904,-6.3159,-6.3527,-6.3932,-6.4032,-6.3681,-6.2758,-6.1692,-6.0836,-6.0104,-5.961,-5.8998,-5.8287,-5.8287,-5.8135,-5.7881,-5.7881,-5.7881,-5.7881,-5.7881,-5.7735,-5.7514,-5.7364,-5.6838,-5.597,-5.4626,-5.3864,-5.3334,-5.2904,-5.2589,-5.2373,-5.2373,-5.2373,-5.2373,-5.2373,-5.2373,-5.2373,-5.2373,-5.2373,-5.2373,-5.2373,-5.2373,-5.2373,-5.2373,-5.2373,-5.2373,-5.2373,-5.2373,-5.2373,-5.2373,-5.2373,-5.2373,-5.2373,-5.1976,-5.1512,-5.1048,-5.0767,-5.0585,-5.0585,-5.0369,-5.022,-5.022,-5.0452,-5.0585,-5.0585,-5.0833,-5.0982,-5.0982,-5.1429,-5.1661,-5.1661,-5.2142,-5.2373,-5.2373,-5.2373,-5.2373,-5.2373,-5.2373,-5.2373,-5.4524,-5.5557,-5.6161,-5.8185,-5.8716,-5.8721,-5.8908,-5.8136,-5.6918,-5.5399,-5.4495,-5.3474,-5.1837,-5.1644,-5.2674,-5.5416,-5.5753,-5.6537,-5.9085,-5.9171,-5.9048,0.0,0.0,-5.8797,-5.8984,-5.9054,-5.9033,-5.9069,-5.9634,-6.0647,-6.2199,-6.2505,-6.294,-6.3728,-6.3849,-6.3986,-6.3998,-6.4117,-6.3581,-6.2357,-6.1606,-6.0908,-6.0165,-6.0165,-5.9759,-5.9066,-5.9032,-5.8609,-5.7932,-5.7898,-5.7881,-5.7881,-5.7881,-5.7662,-5.7364,-5.7289,-5.7063,-5.6674,-5.5918,-5.4709,-5.3467,-5.3434,-5.2953,-5.2373,-5.2373,-5.2373,-5.2373,-5.2373,-5.2373,-5.2373,-5.2373,-5.2373,-5.2373,-5.2373,-5.2373,-5.2373,-5.2373,-5.2373,-5.2373,-5.2373,-5.2373,-5.2373,-5.2373,-5.2373,-5.2373,-5.2373,-5.2373,-5.2373,-5.2373,-5.1761,-5.133,-5.133,-5.0734,-5.032,-5.032,-5.0949,-5.133,-5.133,-5.1993,-5.2373,-5.2373,-5.2373,-5.2373,-5.2373,-5.2373,-5.2373,-5.2373,-5.2373,-5.2373,-5.2373,-5.2373,-5.2373,-5.4778,-5.6574,-5.8021,-5.8549,-5.8716,-5.8549,-5.8018,-5.6713,-5.5001,-5.2847,-5.0949,-4.9008,-4.6805,-4.8265,-5.0141,-5.1134,-5.3521,0.0,-5.8101,-5.8725,0.0,-5.9167,0.0,-5.9432,-5.9054,-5.9406,-5.9938,-6.0527,-6.0683,-6.1236,-6.2235,-6.3024,-6.3686,-6.4349,-6.4473,-6.4864,-6.5474,-6.464,-6.3816,-6.2965,-6.2368,-6.1732,-6.0994,-6.0994,-6.0554,-5.9793,-5.9252,-5.8896,-5.8676,-5.8118,-5.7881,-5.7881,-5.7881,-5.7808,-5.7735,-5.7439,-5.7214,-5.7105,-5.6558,-5.5454,-5.4146,-5.3599,-5.2953,-5.2373,-5.2373,-5.2373,-5.2373,-5.2373,-5.2373,-5.2373,-5.2373,-5.2373,-5.2373,-5.2373,-5.2373,-5.2373,-5.2373,-5.2373,-5.2373,-5.2373,-5.2373,-5.2373,-5.2373,-5.2373,-5.2373,-5.2373,-5.2373,-5.2373,-5.2373,-5.2224,-5.2092,-5.2092,-5.1943,-5.1827,-5.1827,-5.1993,-5.2092,-5.2092,-5.2274,-5.2373,-5.2373,-5.2373,-5.2373,-5.2373,-5.2373,-5.2373,-5.2373,-5.2373,-5.2373,-5.2373,-5.2373,-5.2373,-5.6293,-5.7739,-5.8716,-5.8716,-5.8438,-5.7769,-5.6227,-5.4611,-5.2419,-4.8959,-4.7025,-4.5228,-4.2822,-4.4522,-4.6927,0.0,0.0,0.0,-5.8311,-5.8753,-5.906,0.0,-5.9978,0.0,-6.0407,-6.0759,-6.1272,-6.2039,-6.1807,-6.211,-6.3252,-6.3778,-6.4385,-6.5108,-6.5296,-6.5475,-6.5697,-6.4376,-6.3552,-6.3348,-6.2659,-6.2178,-6.1772,-6.1772,-6.1349,-6.0588,-5.9827,-5.9302,-5.8947,-5.8203,-5.7881,-5.7881,-5.7881,-5.7808,-5.7588,-5.7364,-5.7214,-5.6987,-5.6757,-5.5951,-5.4875,-5.4146,-5.3417,-5.2771,-5.2473,-5.2373,-5.2373,-5.2373,-5.2373,-5.2373,-5.2373,-5.2373,-5.2373,-5.2373,-5.2373,-5.2373,-5.2373,-5.2373,-5.2373,-5.2373,-5.2373,-5.2373,-5.2373,-5.2373,-5.2373,-5.2373,-5.2373,-5.2373,-5.2373,-5.2373,-5.2373,-5.2373,-5.2373,-5.2373,-5.2373,-5.2373,-5.2373,-5.2373,-5.2373,-5.2373,-5.2373,-5.2373,-5.2373,-5.2373,-5.2373,-5.2373,-5.2373,-5.2373,-5.2373,-5.2373,-5.2373,-5.2373,-5.8145,-5.8716,-5.8716,-5.8716,-5.8011,-5.6692,-5.4221,-5.2067,-4.9278,-4.4661,0.0,-4.1706,-3.9439,-4.1006,-4.3899,-4.7928,0.0,-5.3616,-5.8946,-5.9009,-5.9184,-6.1042,-6.0634,-6.0772,-6.2146,-6.2378,-6.2753,-6.3484,-6.2967,-6.3181,-6.4537,-6.4715,-6.5009,-6.5622,-6.5814,-6.5568,-6.5039,-6.3681,-6.3066,-6.3291,-6.2659,-6.2381,-6.2381,-6.2381,-6.2042,-6.14,-6.0605,-5.9844,-5.9099,-5.8338,-5.7983,-5.7881,-5.7881,-5.7662,-5.7364,-5.7289,-5.7063,-5.6757,-5.668,-5.6282,-5.5636,-5.4908,-5.4096,-5.3301,-5.2705,-5.2456,-5.2373,-5.2373,-5.2373,-5.2373,-5.2373,-5.2373,-5.2373,-5.2373,-5.2373,-5.2373,-5.2373,-5.2373,-5.2373,-5.2373,-5.2373,-5.2373,-5.2373,-5.2373,-5.2373,-5.2373,-5.2373,-5.2373,-5.2373,-5.2373,-5.2373,-5.2373,-5.2373,-5.2373,-5.2373,-5.2373,-5.2373,-5.2373,-5.2373,-5.2373,-5.2373,-5.2373,-5.2373,-5.2373,-5.2373,-5.2373,-5.2373,-5.2373,-5.2373,-5.2373,-5.2373,-5.2373,-5.8419,-5.8716,-5.8716,-5.8716,-5.7602,-5.5856,-5.3367,-4.9466,0.0,0.0,-3.9544,-3.761,-3.5897,-3.9466,-4.3521,-4.6022,-4.9656,-5.3815,-5.8484,-5.9023,-5.945,0.0,-6.1557,-6.1985,-6.2253,-6.2842,0.0,-6.4341,-6.4287,-6.4341,-6.4608,-6.5233,-6.535,-6.4823,-6.5025,-6.4445,-6.309,-6.3107,-6.2821,-6.2296,-6.2364,-6.2381,-6.2381,-6.2381,-6.2313,-6.2161,-6.1417,-6.0639,-5.986,-5.9116,-5.8457,-5.7881,-5.7881,-5.7881,-5.7735,-5.7439,-5.7289,-5.7139,-5.6834,-5.6614,-5.6382,-5.567,-5.4527,-5.3384,-5.3268,-5.2837,-5.2373,-5.2373,-5.2373,-5.2373,-5.2373,-5.2373,-5.2373,-5.2373,-5.2373,-5.2373,-5.2373,-5.2373,-5.2373,-5.2373,-5.2373,-5.2373,-5.2373,-5.2373,-5.2373,-5.2373,-5.2373,-5.2373,-5.2373,-5.2373,-5.2373,-5.2373,-5.2373,-5.2373,-5.2373,-5.2373,-5.2373,-5.2373,-5.2373,-5.2373,-5.2373,-5.2373,-5.2373,-5.2373,-5.2373,-5.2373,-5.2373,-5.2373,-5.2373,-5.2373,-5.2373,-5.2373,-5.8494,-5.8716,-5.8716,-5.8716,-5.684,-5.4128,-5.0803,0.0,0.0,0.0,-3.6204,-3.4927,-3.43,-3.7539,0.0,-4.3612,-4.7049,-5.1058,-5.5951,-5.6886,-5.8138,-6.0872,-6.1849,-6.261,-6.3413,-6.3823,-6.4358,-6.5161,-6.5233,-6.5233,-6.5233,-6.5214,-6.4976,-6.4601,-6.3935,-6.3297,-6.2745,-6.253,-6.2313,-6.2189,-6.2381,-6.2381,-6.2381,-6.2381,-6.2381,-6.2347,-6.162,-6.1078,-6.0639,-5.9488,-5.8795,-5.844,-5.8051,-5.7825,-5.7735,-5.7439,-5.7214,-5.7139,-5.6834,-5.668,-5.663,-5.6282,-5.5438,-5.4427,-5.3649,-5.3185,-5.2837,-5.2489,-5.2373,-5.2373,-5.2373,-5.2373,-5.2373,-5.2373,-5.2373,-5.2373,-5.2373,-5.2373,-5.2373,-5.2373,-5.2373,-5.2373,-5.2373,-5.2373,-5.2373,-5.2373,-5.2373,-5.2373,-5.2373,-5.2373,-5.2373,-5.2373,-5.2373,-5.2373,-5.2373,-5.2373,-5.2373,-5.2373,-5.2373,-5.2373,-5.2373,-5.2373,-5.2373,-5.2373,-5.2373,-5.2373,-5.2373,-5.2373,-5.2373,-5.2373,-5.2373,-5.2373,-5.8234,-5.8586,-5.8661,-5.8494,-5.5986,-5.2475,-4.8389,-4.4036,0.0,0.0,-3.3513,-3.2918,-3.3355,-3.5744,-3.8674,0.0,-4.471,-4.8379,-5.368,-5.5129,-5.7083,-6.0805,-6.1992,0.0,-6.4483,-6.4769,0.0,-6.575,-6.564,-6.5575,-6.5575,-6.4958,-6.4445,-6.4095,-6.2922,-6.2436,-6.2608,-6.2014,-6.1967,-6.2381,-6.2381,-6.2381,-6.2381,-6.2381,-6.2381,-6.2364,-6.1789,-6.145,-6.1197,-5.981,-5.915,-5.8947,-5.8186,-5.7808,-5.7662,-5.7364,-5.7214,-5.7063,-5.6757,-5.668,-5.668,-5.668,-5.62,-5.5405,-5.4245,-5.3781,-5.35,-5.2804,-5.2605,-5.2572,-5.2423,-5.2373,-5.2373,-5.2373,-5.2373,-5.2373,-5.2373,-5.2373,-5.2373,-5.2373,-5.2373,-5.2373,-5.2373,-5.2373,-5.2373,-5.2373,-5.2373,-5.2373,-5.2373,-5.2373,-5.2373,-5.2373,-5.2373,-5.2373,-5.2373,-5.2373,-5.2373,-5.2373,-5.2373,-5.2373,-5.2373,-5.2373,-5.2373,-5.2373,-5.2373,-5.2373,-5.2373,-5.2373,-5.2373,-5.2373,-5.2373,-5.2373,-5.7398,-5.8141,-5.8531,-5.7788,-5.515,-5.1639,-4.7534,0.0,0.0,-3.4124,-3.2239,-3.1486,-3.237,-3.4545,-3.7577,-4.1792,0.0,-4.802,-5.359,-5.57,-5.7765,-6.0777,0.0,0.0,-6.4537,-6.5268,-6.5732,-6.5786,-6.5127,-6.4669,-6.4669,-6.4669,-6.3952,-6.2574,-6.2341,-6.2139,-6.1773,-6.1709,-6.1967,-6.2381,-6.2381,-6.2381,-6.2381,-6.2381,-6.2381,-6.2381,-6.2313,-6.1924,-6.1231,-6.0368,-5.9607,-5.8947,-5.8186,-5.7881,-5.7808,-5.7439,-5.7289,-5.7214,-5.6834,-5.668,-5.668,-5.668,-5.62,-5.5603,-5.5471,-5.4957,-5.4262,-5.3533,-5.3318,-5.3185,-5.2539,-5.2373,-5.2373,-5.2373,-5.2373,-5.2373,-5.2373,-5.2373,-5.2373,-5.2373,-5.2373,-5.2373,-5.2373,-5.2373,-5.2373,-5.2373,-5.2373,-5.2373,-5.2373,-5.2373,-5.2373,-5.2373,-5.2373,-5.2373,-5.2373,-5.2373,-5.2373,-5.2373,-5.2373,-5.2373,-5.2373,-5.2373,-5.2373,-5.2373,-5.2373,-5.2373,-5.2373,-5.2373,-5.2373,-5.2373,-5.2373,-5.2373,-5.6413,-5.7732,-5.8512,-5.7713,-5.4667,-5.0839,-4.6759,0.0,-3.6595,-3.3968,-3.2128,-3.1448,-3.2919,-3.426,-3.6129,-3.9138,-4.1119,-4.3797,-4.8171,-5.052,-5.362,-5.8476,-6.0402,-6.236,0.0,0.0,-6.5575,-6.5127,-6.4755,-6.4165,-6.3297,-6.3222,-6.2922,-6.2341,-6.198,-6.1773,-6.1709,-6.1854,-6.203,-6.2381,-6.2381,-6.2381,-6.2381,-6.2381,-6.2381,-6.2381,-6.2381,-6.2229,-6.189,-6.1146,-6.0368,-5.959,-5.8863,-5.8287,-5.7881,-5.7439,-5.7289,-5.7214,-5.6834,-5.668,-5.668,-5.668,-5.6498,-5.6183,-5.5752,-5.5421,-5.5024,-5.4295,-5.3765,-5.3351,-5.3069,-5.2688,-5.2373,-5.2373,-5.2373,-5.2373,-5.2373,-5.2373,-5.2373,-5.2373,-5.2373,-5.2373,-5.2373,-5.2373,-5.2373,-5.2373,-5.2373,-5.2373,-5.2373,-5.2373,-5.2373,-5.2373,-5.2373,-5.2373,-5.2373,-5.2373,-5.2373,-5.2373,-5.2373,-5.2373,-5.2373,-5.2373,-5.2373,-5.2373,-5.2373,-5.2373,-5.2373,-5.2373,-5.2373,-5.2373,-5.2373,-5.2605,-5.463,-5.6395,-5.7416,-5.6617,-5.3739,-4.9945,0.0,-4.0747,-3.6465,-3.3909,-3.2219,-3.1674,-3.3299,-3.3855,-3.4867,0.0,-3.8817,-4.1113,-4.4935,-4.7633,-5.1191,-5.6385,0.0,-6.0974,-6.443,-6.5166,-6.5194,-6.4669,-6.4165,-6.3444,-6.2341,-6.2043,-6.1997,-6.1997,-6.1547,-6.14,-6.1709,-6.1854,-6.211,-6.2381,-6.2381,-6.2381,-6.2381,-6.2381,-6.2381,-6.2381,-6.2381,-6.2381,-6.233,-6.1256,-6.0404,-5.9614,-5.8892,-5.8152,-5.7497,-5.7348,-5.7289,-5.7214,-5.6834,-5.668,-5.668,-5.668,-5.668,-5.6597,-5.6084,-5.5951,-5.5786,-5.5057,-5.4162,-5.3417,-5.3417,-5.2904,-5.2373,-5.2373,-5.2373,-5.2373,-5.2373,-5.2373,-5.2373,-5.2373,-5.2373,-5.2373,-5.2373,-5.2373,-5.2373,-5.2373,-5.2373,-5.2373,-5.2373,-5.2373,-5.2373,-5.2373,-5.2373,-5.2373,-5.2373,-5.2373,-5.2373,-5.2373,-5.2373,-5.2373,-5.2373,-5.2373,-5.2373,-5.2373,-5.2373,-5.2373,-5.2373,-5.2589,-5.2688,-5.2688,-5.2904,-5.34,-5.1787,-5.3813,-5.4853,-5.4054,-5.2102,-4.9042,-4.3823,-4.0262,-3.7131,-3.3784,-3.2348,-3.2009,-3.3093,-3.309,-3.3907,-3.6919,-3.87,-4.1261,-4.5653,-4.9,-5.2096,0.0,-5.7476,-5.9781,-6.2092,-6.37,-6.4601,-6.4601,-6.3222,-6.2358,-6.2262,-6.1547,-6.1102,-6.1102,-6.1119,-6.1334,-6.1709,-6.1709,-6.1967,-6.2381,-6.2381,-6.2381,-6.2381,-6.2381,-6.2381,-6.2381,-6.2381,-6.2381,-6.2251,-6.0567,-5.9479,-5.8701,-5.7893,-5.7165,-5.6691,-5.7122,-5.7289,-5.7214,-5.6834,-5.668,-5.668,-5.668,-5.668,-5.668,-5.668,-5.668,-5.6531,-5.5819,-5.4543,-5.3417,-5.3417,-5.2904,-5.2373,-5.2373,-5.2373,-5.2373,-5.2373,-5.2373,-5.2373,-5.2373,-5.2373,-5.2373,-5.2373,-5.2373,-5.2373,-5.2373,-5.2373,-5.2373,-5.2373,-5.2373,-5.2373,-5.2373,-5.2373,-5.2373,-5.2373,-5.2373,-5.2373,-5.2373,-5.2373,-5.2373,-5.2373,-5.2373,-5.2373,-5.2373,-5.2373,-5.2373,-5.2373,-5.3069,-5.34,-5.3417,-5.4162,-5.4891,-4.66,-4.8926,-5.0617,-4.8576,-4.7039,-4.5034,-4.1202,-3.8572,-3.64,-3.451,-3.3276,-3.2869,-3.3977,-3.3812,-3.4898,-3.9103,-4.0516,0.0,-4.668,0.0,0.0,-5.5953,-6.0644,-6.3699,-6.3877,-6.4315,-6.4165,-6.3073,-6.2557,-6.2059,-6.1465,-6.1252,-6.1102,-6.1102,-6.1252,-6.14,-6.1709,-6.1854,-6.211,-6.2381,-6.2381,-6.2381,-6.2381,-6.2381,-6.2381,-6.2381,-6.2381,-6.2381,-6.2285,-6.11,-6.0225,-5.9398,-5.8035,-5.6905,-5.6238,-5.6343,-5.6303,-5.6192,-5.6586,-5.668,-5.668,-5.668,-5.668,-5.668,-5.668,-5.668,-5.6547,-5.5819,-5.5289,-5.4808,-5.4295,-5.3997,-5.3848,-5.3848,-5.345,-5.3086,-5.3086,-5.2721,-5.2373,-5.2373,-5.2373,-5.2373,-5.2373,-5.2373,-5.2373,-5.2373,-5.2373,-5.2373,-5.2373,-5.2373,-5.2373,-5.2373,-5.2373,-5.2373,-5.2373,-5.2373,-5.2373,-5.2373,-5.2373,-5.2373,-5.2373,-5.2373,-5.2373,-5.2373,-5.2373,-5.2373,-5.2373,-5.3069,-5.3665,-5.4195,-5.4924,-5.5405,-4.2417,-4.4672,-4.6199,-4.4875,-4.3871,-4.2281,-3.8989,-3.7044,-3.5512,-3.4115,-3.3185,-3.2994,-3.4096,-3.3947,-3.483,-3.8382,-3.9763,0.0,0.0,0.0,0.0,-5.7047,-6.1366,-6.3943,-6.3723,-6.3764,-6.3353,-6.2341,-6.2059,-6.1611,-6.1102,-6.1102,-6.1102,-6.1102,-6.1334,-6.1465,-6.1709,-6.1917,-6.2093,-6.2381,-6.2381,-6.2381,-6.2381,-6.2381,-6.2381,-6.2381,-6.2381,-6.2206,0.0,-6.082,-5.987,-5.871,-5.7281,-5.623,-5.5458,-5.5423,-5.5458,-5.5683,-5.6067,-5.6414,-5.668,-5.668,-5.668,-5.668,-5.668,-5.668,-5.6597,-5.615,-5.5835,-5.5521,-5.5057,-5.4725,-5.4527,-5.4527,-5.4162,-5.3831,-5.3831,-5.35,-5.3185,-5.3185,-5.3185,-5.3102,-5.2821,-5.2771,-5.2672,-5.2423,-5.2373,-5.2373,-5.2373,-5.2373,-5.2373,-5.2373,-5.2373,-5.2373,-5.2373,-5.2373,-5.2373,-5.2373,-5.2373,-5.2373,-5.2373,-5.2373,-5.2373,-5.2373,-5.2638,-5.2771,-5.2771,-5.3765,-5.4626,-5.5355,-5.5802,-5.6034,0.0,-4.0708,-4.1563,-4.2238,-4.1763,-4.029,-3.6914,-3.5477,0.0,-3.2842,-3.2347,-3.2555,-3.3753,-3.3741,-3.4208,-3.6164,-3.7775,0.0,0.0,-4.8532,0.0,0.0,-6.0459,-6.1603,-6.229,-6.2341,-6.2279,-6.2201,-6.1547,-6.1102,-6.1102,-6.1102,-6.1102,-6.1102,-6.1334,-6.1465,-6.1709,-6.1934,-6.2093,-6.2381,-6.2381,-6.2381,-6.2381,-6.2381,-6.2381,-6.2398,-6.2302,-6.1773,-6.0903,-5.9952,-5.8582,-5.7105,-5.6034,-5.518,-5.4596,-5.4331,-5.4771,-5.5442,-5.5377,-5.5908,-5.668,-5.668,-5.668,-5.668,-5.668,-5.668,-5.668,-5.668,-5.6216,-5.5703,-5.5703,-5.5189,-5.4676,-5.4676,-5.4643,-5.4593,-5.4593,-5.456,-5.4527,-5.4527,-5.4527,-5.4295,-5.3616,-5.35,-5.3268,-5.2622,-5.2489,-5.2456,-5.2456,-5.2407,-5.2373,-5.2373,-5.2373,-5.2373,-5.2373,-5.2373,-5.2373,-5.2373,-5.2373,-5.2373,-5.2373,-5.2373,-5.2407,-5.2456,-5.3135,-5.3516,-5.3566,-5.4957,-5.6001,-5.668,-5.668,-5.668,-3.294,0.0,-3.6222,-3.4892,-3.4787,-3.4563,0.0,-3.2747,-3.263,-3.1861,-3.1964,-3.2881,-3.5209,-3.5435,-3.6961,-4.2212,-4.3896,-4.5974,-5.0037,-5.4727,0.0,-6.1956,-6.3218,-6.3641,-6.3147,-6.2641,-6.2059,-6.14,-6.1186,-6.1102,-6.1102,-6.1102,-6.1102,-6.1102,-6.1334,-6.1465,-6.1709,-6.187,-6.211,-6.2381,-6.2381,-6.2381,-6.2381,-6.2381,-6.2381,-6.2381,-6.1611,-6.1169,-6.0903,-5.925,-5.8284,-5.774,-5.5535,-5.4513,-5.4128,-5.3501,-5.3719,-5.4469,-5.5051,-5.5908,-5.668,-5.668,-5.668,-5.668,-5.668,-5.668,-5.668,-5.668,-5.6564,-5.6432,-5.6432,-5.6299,-5.6166,-5.6166,-5.5752,-5.5371,-5.5371,-5.4924,-5.4527,-5.4527,-5.4527,-5.446,-5.4295,-5.4262,-5.4212,-5.4046,-5.3533,-5.3169,-5.3169,-5.2705,-5.2373,-5.2373,-5.2373,-5.2373,-5.2373,-5.2373,-5.2373,-5.2373,-5.2373,-5.2373,-5.2373,-5.2373,-5.2622,-5.3152,-5.3881,-5.4543,-5.5106,-5.5454,-5.6001,-5.668,-5.668,-5.668,-2.9823,-3.2241,-3.4519,-3.3821,-3.403,-3.4168,-3.3272,-3.2602,-3.2127,-3.1818,0.0,-3.298,-3.5545,-3.6155,-3.7871,-4.277,-4.4809,0.0,0.0,0.0,-6.0713,-6.2655,-6.3287,-6.3338,-6.2946,-6.2184,-6.1547,-6.1102,-6.1102,-6.1102,-6.1102,-6.1102,-6.1102,-6.1102,-6.1334,-6.1465,-6.1709,-6.179,-6.2047,-6.2381,-6.2285,-6.2285,-6.2381,-6.2381,-6.2127,-6.1692,-6.1251,-6.0466,-5.9603,-5.8637,-5.7933,-5.7355,-5.5064,-5.4181,-5.3823,-5.2612,-5.2695,-5.3459,-5.3875,-5.4968,-5.6083,-5.6083,-5.6336,-5.668,-5.668,-5.668,-5.668,-5.668,-5.668,-5.668,-5.668,-5.668,-5.668,-5.668,-5.6398,-5.6117,-5.6117,-5.5802,-5.5521,-5.5521,-5.5521,-5.5405,-5.5073,-5.5024,-5.4908,-5.4576,-5.4179,-5.3798,-5.345,-5.3086,-5.2738,-5.2407,-5.2373,-5.2373,-5.2373,-5.2373,-5.2373,-5.2373,-5.2373,-5.2373,-5.2373,-5.2688,-5.3351,-5.4411,-5.4825,-5.5388,-5.6117,-5.6117,-5.6316,-5.668,-5.668,-5.668,-2.8875,-3.1853,-3.4913,-3.5002,-3.5536,-3.5768,-3.4952,0.0,0.0,0.0,0.0,0.0,0.0,-3.7259,-3.8905,-4.2039,-4.4677,-4.8514,-5.4723,-5.811,-6.0458,-6.194,-6.216,-6.2193,-6.2273,-6.153,-6.1102,-6.1102,-6.1102,-6.1102,-6.1102,-6.1102,-6.1102,-6.1102,-6.1252,-6.1482,-6.1628,-6.1709,-6.1887,-6.2381,-6.2093,-6.2172,-6.2398,-6.2206,-6.1773,-6.0986,-6.0736,-5.9691,-5.8211,-5.8026,-5.748,-5.6623,-5.4698,-5.399,-5.3728,-5.1897,-5.1819,-5.2606,-5.2769,-5.3875,-5.5296,-5.5296,-5.5908,-5.668,-5.668,-5.668,-5.668,-5.668,-5.668,-5.668,-5.668,-5.668,-5.668,-5.668,-5.668,-5.668,-5.668,-5.668,-5.668,-5.668,-5.668,-5.6498,-5.5901,-5.5786,-5.5587,-5.4941,-5.4759,-5.446,-5.3831,-5.3649,-5.3318,-5.2622,-5.2539,-5.2539,-5.2539,-5.2539,-5.2589,-5.2705,-5.2605,-5.2589,-5.2705,-5.3367,-5.4345,-5.5603,-5.5736,-5.6084,-5.668,-5.668,-5.668,-5.668,-5.668,-5.668,-3.0883,-3.4195,-3.6268,-3.2834,-3.3532,-3.4851,-3.3873,-3.3422,0.0,0.0,0.0,0.0,0.0,-4.1393,-4.3804,-4.6924,-5.0414,-5.3653,-5.618,-5.8483,-6.0311,-6.1276,-6.1366,-6.1605,-6.2273,-6.153,-6.1102,-6.1102,-6.1102,-6.1102,-6.1102,-6.1102,-6.1102,-6.1102,-6.1102,-6.1252,-6.1465,-6.1628,-6.1854,-6.2076,-6.1997,-6.2172,-6.2381,-6.1595,-6.1169,-6.0903,-5.9339,-5.8471,-5.8119,-5.7306,-5.6939,-5.6623,-5.4698,-5.399,-5.3728,-5.1897,-5.1819,-5.268,-5.3474,-5.4469,-5.5296,-5.5296,-5.5908,-5.668,-5.668,-5.668,-5.668,-5.668,-5.668,-5.668,-5.668,-5.668,-5.668,-5.668,-5.668,-5.668,-5.668,-5.668,-5.668,-5.668,-5.668,-5.6647,-5.6547,-5.6531,-5.6481,-5.6365,-5.5835,-5.5421,-5.5305,-5.4742,-5.4063,-5.3334,-5.3251,-5.3251,-5.3251,-5.3251,-5.3516,-5.4146,-5.3599,-5.3533,-5.4162,-5.4908,-5.5388,-5.562,-5.6216,-5.6581,-5.668,-5.668,-5.668,-5.668,-5.668,-5.668,-2.8782,-3.2236,-3.5183,-3.3949,-3.6422,-3.8896,-3.7929,-3.739,0.0,0.0,0.0,0.0,0.0,0.0,-4.6568,-5.1321,-5.3953,-5.5933,-5.7621,-5.8685,-5.9526,-5.9895,-5.9967,-6.0283,-6.0989,-6.0736,-6.0672,-6.1086,-6.1102,-6.1102,-6.1102,-6.1102,-6.1102,-6.1102,-6.1102,-6.1186,-6.1252,-6.1334,-6.1564,-6.1854,-6.1692,-6.1854,-6.2189,-6.1218,-6.0635,-6.0124,-5.8605,-5.7731,-5.7195,-5.6746,-5.6255,-5.573,-5.4466,-5.3652,-5.3118,-5.1668,-5.1479,-5.2002,-5.2947,-5.3805,-5.4637,-5.5133,-5.5908,-5.668,-5.668,-5.668,-5.668,-5.668,-5.668,-5.668,-5.668,-5.668,-5.668,-5.668,-5.668,-5.668,-5.668,-5.668,-5.668,-5.668,-5.668,-5.668,-5.668,-5.668,-5.668,-5.668,-5.6398,-5.6067,-5.567,-5.5322,-5.4825,-5.4096,-5.4013,-5.4013,-5.4013,-5.4013,-5.4162,-5.4494,-5.4195,-5.4345,-5.509,-5.5454,-5.5802,-5.62,-5.6531,-5.668,-5.668,-5.668,-5.668,-5.668,-5.668,-5.668,-2.7603,-3.0746,-3.4099,-3.5774,0.0,-4.2062,-4.2178,-4.1495,-4.1009,-4.1725,0.0,0.0,0.0,-4.5925,-4.9305,-5.4616,-5.6184,-5.7122,-5.8339,-5.8567,-5.858,-5.8629,-5.8648,-5.8957,-5.9693,-5.9744,-5.9993,-6.0556,-6.0755,-6.0854,-6.0854,-6.102,-6.1102,-6.1102,-6.1102,-6.1102,-6.1102,-6.1102,-6.1252,-6.1628,-6.1465,-6.1432,-6.1545,-6.0586,-5.9816,-5.904,-5.787,-5.6973,-5.6259,-5.6106,-5.5643,-5.4901,-5.4066,-5.3134,-5.2186,-5.1503,-5.1214,-5.1293,-5.2245,-5.3212,-5.4147,-5.5051,-5.5908,-5.668,-5.668,-5.668,-5.668,-5.668,-5.668,-5.668,-5.668,-5.668,-5.668,-5.668,-5.668,-5.668,-5.668,-5.668,-5.668,-5.668,-5.668,-5.668,-5.668,-5.668,-5.668,-5.668,-5.668,-5.6498,-5.5951,-5.5868,-5.5603,-5.4858,-5.4775,-5.4775,-5.4775,-5.4941,-5.5024,-5.5024,-5.5024,-5.5289,-5.5852,-5.5868,-5.6133,-5.668,-5.668,-5.668,-5.668,-5.668,-5.668,-5.668,-5.668,-5.6603,-3.0497,-3.244,-3.4355,-3.713,-3.8757,-4.051,-4.3886,-4.3548,-4.3336,-4.6216,-4.7401,-4.7878,-4.7895,-5.0378,-5.3242,-5.5883,-5.7028,-5.7656,-5.7766,-5.7824,-5.7887,-5.7847,-5.7868,-5.8183,-5.8899,-5.8982,-5.8999,-5.9049,-5.9694,-6.0075,-6.0075,-6.0738,-6.1102,-6.1102,-6.1102,-6.1102,-6.1102,-6.1102,-6.1169,-6.1383,-6.1383,-6.0986,-6.0299,-5.933,-5.8451,-5.7465,-5.6506,-5.6062,-5.6032,-5.5311,-5.5022,-5.4855,-5.3345,-5.2141,-5.1274,-5.1229,-5.1214,-5.1293,-5.2245,-5.3212,-5.4147,-5.5051,-5.5908,-5.668,-5.668,-5.668,-5.668,-5.668,-5.668,-5.668,-5.668,-5.668,-5.668,-5.668,-5.668,-5.668,-5.668,-5.668,-5.668,-5.668,-5.668,-5.668,-5.668,-5.668,-5.668,-5.668,-5.668,-5.6663,-5.6614,-5.6614,-5.6332,-5.562,-5.5554,-5.5554,-5.5554,-5.615,-5.6531,-5.6531,-5.6531,-5.6564,-5.6614,-5.6614,-5.663,-5.668,-5.668,-5.668,-5.668,-5.668,-5.668,-5.668,-5.668,-5.6241,-2.8639,-3.1667,-3.4733,-3.6754,-3.9805,0.0,0.0,-4.5878,-4.6918,-4.9513,-5.0253,-5.061,-5.1111,-5.2508,-5.4082,-5.5525,-5.6839,-5.7527,-5.7123,-5.7467,-5.7638,-5.7139,-5.7111,-5.7392,-5.8138,-5.8204,-5.8403,-5.8866,-5.9164,-5.9314,-5.9314,-5.9579,-5.9728,-5.9728,-5.9728,-5.9728,-5.9728,-5.9728,-5.9809,-5.989,-6.082,-6.0769,-5.9989,-5.9008,-5.8193,-5.7355,-5.5786,-5.516,-5.5115,-5.4449,-5.3824,-5.3149,-5.2137,-5.1533,-5.1214,-5.1214,-5.1214,-5.1386,-5.2947,-5.3719,-5.4232,-5.5668,-5.6414,-5.668,-5.668,-5.668,-5.668,-5.668,-5.668,-5.668,-5.668,-5.668,-5.668,-5.668,-5.668,-5.668,-5.668,-5.668,-5.668,-5.668,-5.668,-5.668,-5.668,-5.668,-5.668,-5.668,-5.668,-5.668,-5.668,-5.668,-5.6581,-5.6316,-5.6282,-5.6282,-5.6282,-5.6531,-5.668,-5.668,-5.668,-5.668,-5.668,-5.668,-5.668,-5.668,-5.668,-5.668,-5.668,-5.668,-5.668,-5.668,-5.6083,-5.5652,-2.8525,-3.1837,-3.5444,-3.7406,0.0,0.0,-4.6972,-4.8146,-4.9614,-5.258,-5.2779,-5.2671,-5.3474,-5.3655,-5.4148,-5.5531,-5.6474,-5.6995,-5.7043,-5.7274,-5.7256,-5.6757,-5.668,-5.6895,-5.7392,-5.7442,-5.7657,-5.8154,-5.8419,-5.8552,-5.8552,-5.8767,-5.8899,-5.8899,-5.8899,-5.8899,-5.8899,-5.8899,-5.8899,-5.8916,-5.9647,-5.9471,-5.8613,-5.7994,-5.7086,-5.5976,-5.4728,-5.4172,-5.4127,-5.345,-5.2693,-5.1843,-5.1394,-5.1214,-5.1214,-5.1214,-5.1214,-5.1479,-5.3371,-5.3976,-5.4317,-5.61,-5.668,-5.668,-5.668,-5.668,-5.668,-5.668,-5.668,-5.668,-5.668,-5.668,-5.668,-5.668,-5.668,-5.668,-5.668,-5.668,-5.668,-5.668,-5.668,-5.668,-5.668,-5.668,-5.668,-5.668,-5.668,-5.668,-5.668,-5.668,-5.668,-5.668,-5.668,-5.668,-5.668,-5.668,-5.668,-5.668,-5.668,-5.668,-5.668,-5.668,-5.668,-5.668,-5.6414,-5.6257,-5.6257,-5.6257,-5.61,-5.5845,-5.5474,-5.4952,-3.1084,-3.3522,-3.6548,-3.9572,0.0,0.0,-4.9704,-5.0217,-5.1018,-5.5473,-5.5134,-5.4277,-5.5062,-5.4022,-5.3782,-5.6115,-5.5936,-5.6018,-5.7594,-5.7181,-5.668,-5.668,-5.668,-5.668,-5.668,-5.668,-5.668,-5.668,-5.7376,-5.7773,-5.7773,-5.8469,-5.8883,-5.8883,-5.8883,-5.8883,-5.8883,-5.8883,-5.8883,-5.8883,-5.7885,-5.6991,-5.5999,-5.5999,-5.4946,-5.3174,-5.3174,-5.3174,-5.3114,-5.2456,-5.1813,-5.1214,-5.1214,-5.1214,-5.1214,-5.1214,-5.1214,-5.1479,-5.3371,-5.3992,-5.4317,-5.6083,-5.668,-5.668,-5.668,-5.668,-5.668,-5.668,-5.668,-5.668,-5.668,-5.668,-5.668,-5.668,-5.668,-5.668,-5.668,-5.668,-5.668,-5.668,-5.668,-5.668,-5.668,-5.668,-5.668,-5.668,-5.668,-5.668,-5.668,-5.668,-5.668,-5.668,-5.668,-5.668,-5.668,-5.668,-5.668,-5.668,-5.668,-5.668,-5.668,-5.668,-5.668,-5.668,-5.5812,-5.5296,-5.5296,-5.5296,-5.4886,-5.3976,-5.4886,-5.4285,-3.1219,-3.4213,0.0,-4.0527,0.0,0.0,0.0,-5.2144,0.0,0.0,-5.6026,-5.5598,-5.5277,-5.4924,-5.4752,-5.4929,-5.5279,-5.5707,-5.6146,-5.6518,-5.668,-5.668,-5.668,-5.668,-5.668,-5.668,-5.668,-5.668,-5.6895,-5.7011,-5.7011,-5.7227,-5.7342,-5.7342,-5.7342,-5.7342,-5.7342,-5.7342,-5.7342,-5.7342,-5.6385,-5.5942,-5.6015,-5.5327,-5.4435,-5.3159,-5.2695,-5.2501,-5.2441,-5.1783,-5.1394,-5.1214,-5.1214,-5.1214,-5.1214,-5.1214,-5.165,-5.2351,-5.3545,-5.4401,-5.5149,-5.6336,-5.668,-5.668,-5.668,-5.668,-5.668,-5.668,-5.668,-5.668,-5.668,-5.668,-5.668,-5.668,-5.668,-5.668,-5.668,-5.668,-5.668,-5.668,-5.668,-5.668,-5.668,-5.668,-5.668,-5.668,-5.668,-5.668,-5.668,-5.668,-5.668,-5.668,-5.668,-5.668,-5.668,-5.668,-5.668,-5.668,-5.668,-5.668,-5.668,-5.668,-5.668,-5.668,-5.5812,-5.5296,-5.5296,-5.5296,-5.4886,-5.3992,-5.4232,-5.3703,-3.4039,-3.7546,0.0,-4.4169,-4.7803,-5.1335,-5.3808,0.0,0.0,0.0,-5.6151,-5.5811,-5.534,-5.4881,-5.4504,-5.4367,-5.4549,-5.489,-5.5546,-5.6001,-5.6365,-5.6663,-5.668,-5.668,-5.668,-5.668,-5.668,-5.668,-5.668,-5.668,-5.668,-5.668,-5.668,-5.668,-5.668,-5.668,-5.668,-5.668,-5.668,-5.668,-5.541,-5.49,-5.5209,-5.4262,-5.3297,-5.2381,-5.1977,-5.1813,-5.1783,-5.1379,-5.1214,-5.1214,-5.1214,-5.1214,-5.1214,-5.1214,-5.1819,-5.2769,-5.3632,-5.4569,-5.5474,-5.6414,-5.668,-5.668,-5.668,-5.668,-5.668,-5.668,-5.668,-5.668,-5.668,-5.668,-5.668,-5.668,-5.668,-5.668,-5.668,-5.668,-5.668,-5.668,-5.668,-5.668,-5.668,-5.668,-5.668,-5.668,-5.668,-5.668,-5.668,-5.668,-5.668,-5.668,-5.668,-5.668,-5.668,-5.668,-5.668,-5.668,-5.668,-5.668,-5.668,-5.668,-5.6508,-5.6162,-5.5231,-5.4637,-5.42,-5.42,-5.3789,-5.2858,-5.3299,-5.2947,-3.8032,0.0,0.0,-4.9037,-5.1036,0.0,-5.574,-5.6328,-5.6273,-5.6383,-5.5757,-5.5236,-5.5379,-5.4192,-5.3524,-5.4347,-5.3904,-5.3914,-5.5322,-5.5521,-5.5769,-5.6415,-5.6481,-5.6514,-5.6581,-5.6597,-5.6614,-5.668,-5.668,-5.668,-5.668,-5.668,-5.668,-5.668,-5.668,-5.668,-5.668,-5.668,-5.668,-5.668,-5.4835,-5.3976,-5.3992,-5.2947,-5.2002,-5.1214,-5.1214,-5.1214,-5.1214,-5.1214,-5.1214,-5.1214,-5.1214,-5.1214,-5.1214,-5.1214,-5.1819,-5.2858,-5.3719,-5.4653,-5.5555,-5.643,-5.668,-5.668,-5.668,-5.668,-5.668,-5.668,-5.668,-5.668,-5.668,-5.668,-5.668,-5.668,-5.668,-5.668,-5.668,-5.668,-5.668,-5.668,-5.668,-5.668,-5.668,-5.668,-5.668,-5.668,-5.668,-5.668,-5.668,-5.668,-5.668,-5.668,-5.668,-5.668,-5.668,-5.668,-5.668,-5.668,-5.668,-5.668,-5.668,-5.668,-5.6257,-5.5312,-5.4469,-5.3561,-5.2606,-5.2606,-5.2078,-5.1214,-5.217,-5.2078,-3.6345,-3.9895,0.0,0.0,-5.2248,-5.4956,-5.6112,-5.5578,-5.5147,-5.6199,-5.5816,-5.5384,-5.5426,-5.4253,-5.3634,-5.4363,-5.3904,-5.3732,-5.4626,-5.4759,-5.4825,-5.4957,-5.499,-5.5206,-5.5802,-5.5852,-5.6084,-5.6647,-5.668,-5.668,-5.668,-5.668,-5.668,-5.668,-5.668,-5.668,-5.668,-5.668,-5.668,-5.668,-5.4835,-5.3976,-5.3891,-5.226,-5.1386,-5.1214,-5.1214,-5.1214,-5.1214,-5.1214,-5.1214,-5.1214,-5.1214,-5.1214,-5.1214,-5.1214,-5.226,-5.3734,-5.3907,-5.5067,-5.6414,-5.6603,-5.668,-5.668,-5.668,-5.668,-5.668,-5.668,-5.668,-5.668,-5.668,-5.668,-5.668,-5.668,-5.668,-5.668,-5.668,-5.668,-5.668,-5.668,-5.668,-5.668,-5.668,-5.668,-5.668,-5.668,-5.668,-5.668,-5.668,-5.668,-5.668,-5.668,-5.668,-5.668,-5.668,-5.668,-5.668,-5.668,-5.668,-5.668,-5.668,-5.668,-5.6257,-5.5312,-5.4469,-5.3561,-5.2606,-5.2606,-5.2078,-5.1214,-5.217,-5.2078,0.0,0.0,0.0,-4.9941,0.0,-5.5628,-5.6239,-5.5578,-5.5087,-5.5769,-5.5385,-5.4826,-5.4516,-5.3895,-5.3382,-5.3459,-5.319,-5.3169,-5.3881,-5.398,-5.4113,-5.4477,-5.4527,-5.4676,-5.5057,-5.509,-5.5388,-5.6133,-5.6183,-5.6332,-5.6663,-5.668,-5.668,-5.668,-5.668,-5.668,-5.668,-5.668,-5.668,-5.668,-5.4835,-5.3545,-5.2606,-5.165,-5.1214,-5.1214,-5.1214,-5.1214,-5.1214,-5.1214,-5.1214,-5.1214,-5.1214,-5.1214,-5.1214,-5.1214,-5.2426,-5.3976,-5.3976,-5.5165,-5.668,-5.668,-5.668,-5.668,-5.668,-5.668,-5.668,-5.668,-5.668,-5.668,-5.668,-5.668,-5.668,-5.668,-5.668,-5.668,-5.668,-5.668,-5.668,-5.668,-5.668,-5.668,-5.668,-5.668,-5.668,-5.668,-5.668,-5.668,-5.668,-5.668,-5.668,-5.668,-5.668,-5.668,-5.668,-5.668,-5.668,-5.668,-5.668,-5.668,-5.668,-5.668,-5.6083,-5.472,-5.4232,-5.3299,-5.1911,-5.1911,-5.165,-5.1214,-5.1742,-5.165,0.0,0.0,-4.5228,-5.1167,-5.3913,0.0,-5.6062,-5.5605,-5.5087,-5.5207,-5.4703,-5.4072,-5.3516,-5.3332,-5.3076,-5.2516,-5.2373,-5.2572,-5.3152,-5.3235,-5.3467,-5.408,-5.4146,-5.4195,-5.4311,-5.4328,-5.4643,-5.5371,-5.5438,-5.5686,-5.6282,-5.6316,-5.6365,-5.6498,-5.6498,-5.6564,-5.668,-5.668,-5.668,-5.668,-5.4835,-5.3035,-5.1214,-5.1214,-5.1214,-5.1214,-5.1214,-5.1214,-5.1214,-5.1214,-5.1214,-5.1214,-5.1386,-5.1308,-5.1214,-5.1557,-5.2695,-5.3976,-5.4147,-5.5328,-5.668,-5.668,-5.668,-5.668,-5.668,-5.668,-5.668,-5.668,-5.668,-5.668,-5.668,-5.668,-5.668,-5.668,-5.668,-5.668,-5.668,-5.668,-5.668,-5.668,-5.668,-5.668,-5.668,-5.668,-5.668,-5.668,-5.668,-5.668,-5.668,-5.668,-5.668,-5.668,-5.668,-5.668,-5.668,-5.668,-5.668,-5.668,-5.668,-5.668,-5.668,-5.668,-5.5845,-5.4078,-5.3976,-5.3124,-5.1214,-5.1214,-5.1214,-5.1214,-5.1214,-5.1214,0.0,0.0,-4.5065,0.0,-5.2373,-5.3828,0.0,0.0,-5.383,0.0,-5.4008,-5.3516,-5.3382,-5.2956,-5.2499,-5.2373,-5.2373,-5.2407,-5.2506,-5.2523,-5.2556,-5.2655,-5.2672,-5.2904,-5.35,-5.3566,-5.3864,-5.461,-5.4676,-5.4709,-5.4808,-5.4808,-5.5106,-5.5752,-5.5769,-5.6067,-5.668,-5.668,-5.668,-5.668,-5.4835,-5.3035,-5.1214,-5.1214,-5.1214,-5.1214,-5.1214,-5.1214,-5.1214,-5.1214,-5.1214,-5.1308,-5.2078,-5.1911,-5.1386,-5.3035,-5.3805,-5.4147,-5.4886,-5.5829,-5.668,-5.668,-5.668,-5.668,-5.668,-5.668,-5.668,-5.668,-5.668,-5.668,-5.668,-5.668,-5.668,-5.668,-5.668,-5.668,-5.668,-5.668,-5.668,-5.668,-5.668,-5.668,-5.668,-5.668,-5.668,-5.668,-5.668,-5.668,-5.668,-5.668,-5.668,-5.668,-5.668,-5.668,-5.668,-5.668,-5.668,-5.668,-5.668,-5.668,-5.668,-5.668,-5.5845,-5.4078,-5.3976,-5.3124,-5.1214,-5.1214,-5.1214,-5.1214,-5.1214,-5.1214,-3.3067,-3.843,-4.37,0.0,-5.0503,-5.2075,-5.2775,0.0,-5.3263,-5.3246,-5.3028,-5.2817,-5.2817,-5.257,-5.2373,-5.2373,-5.2373,-5.2373,-5.2373,-5.2373,-5.2373,-5.2373,-5.2373,-5.2506,-5.2804,-5.2837,-5.3135,-5.3848,-5.3897,-5.408,-5.4494,-5.4527,-5.4676,-5.499,-5.5007,-5.5355,-5.6084,-5.6084,-5.6035,-5.5908,-5.4653,-5.3284,-5.2002,-5.1479,-5.1214,-5.1214,-5.1214,-5.1214,-5.1214,-5.1214,-5.1214,-5.1308,-5.226,-5.2336,-5.217,-5.3459,-5.4317,-5.4803,-5.5133,-5.5908,-5.668,-5.668,-5.668,-5.668,-5.668,-5.668,-5.668,-5.668,-5.668,-5.668,-5.668,-5.668,-5.668,-5.668,-5.668,-5.668,-5.668,-5.668,-5.668,-5.668,-5.668,-5.668,-5.668,-5.668,-5.668,-5.668,-5.668,-5.668,-5.668,-5.668,-5.668,-5.668,-5.668,-5.668,-5.668,-5.668,-5.668,-5.668,-5.668,-5.668,-5.668,-5.668,-5.5845,-5.4078,-5.3976,-5.3124,-5.1214,-5.1214,-5.1214,-5.1214,-5.1214,-5.1214,0.0,0.0,-4.0384,-4.4973,-4.7911,-4.9865,0.0,0.0,-5.2471,0.0,-5.2083,-5.2092,-5.2092,-5.2258,-5.2373,-5.2373,-5.2373,-5.2373,-5.2373,-5.2373,-5.2373,-5.2373,-5.2373,-5.2373,-5.2373,-5.2373,-5.2605,-5.3119,-5.3152,-5.34,-5.3947,-5.398,-5.4046,-5.4245,-5.4245,-5.4593,-5.5338,-5.5537,-5.539,-5.5053,-5.4321,-5.3474,-5.2606,-5.165,-5.1214,-5.1214,-5.1214,-5.1214,-5.1214,-5.1214,-5.1214,-5.1308,-5.2516,-5.2769,-5.2769,-5.4147,-5.4985,-5.5296,-5.5555,-5.6083,-5.668,-5.668,-5.668,-5.668,-5.668,-5.668,-5.668,-5.668,-5.668,-5.668,-5.668,-5.668,-5.668,-5.668,-5.668,-5.668,-5.668,-5.668,-5.668,-5.668,-5.668,-5.668,-5.668,-5.668,-5.668,-5.668,-5.668,-5.668,-5.668,-5.668,-5.668,-5.668,-5.668,-5.668,-5.668,-5.668,-5.668,-5.668,-5.668,-5.668,-5.668,-5.668,-5.5845,-5.4078,-5.3976,-5.3124,-5.1214,-5.1214,-5.1214,-5.1214,-5.1214,-5.1214,0.0,-3.1401,0.0,-4.0199,0.0,0.0,0.0,0.0,-5.1047,-5.1223,-5.1313,-5.133,-5.133,-5.191,-5.2373,-5.2373,-5.2373,-5.2373,-5.2373,-5.2373,-5.2373,-5.2373,-5.2373,-5.2373,-5.2373,-5.2373,-5.239,-5.2423,-5.244,-5.2456,-5.2489,-5.2489,-5.2788,-5.345,-5.3483,-5.3831,-5.4576,-5.5272,-5.5144,-5.4357,-5.4098,-5.3474,-5.2606,-5.165,-5.1214,-5.1214,-5.1214,-5.1214,-5.1214,-5.1214,-5.1214,-5.1386,-5.3212,-5.3371,-5.2947,-5.5571,-5.6004,-5.5393,-5.6336,-5.668,-5.668,-5.668,-5.668,-5.668,-5.668,-5.668,-5.668,-5.668,-5.668,-5.668,-5.668,-5.668,-5.668,-5.668,-5.668,-5.668,-5.668,-5.668,-5.668,-5.668,-5.668,-5.668,-5.668,-5.668,-5.668,-5.668,-5.668,-5.668,-5.668,-5.668,-5.668,-5.668,-5.668,-5.668,-5.668,-5.668,-5.668,-5.668,-5.668,-5.668,-5.668,-5.668,-5.5845,-5.4078,-5.3976,-5.3124,-5.1214,-5.1214,-5.1214,-5.1214,-5.1214,-5.1214,0.0,0.0,0.0,-3.6774,-4.0098,-4.2638,-4.3852,-4.6502,-4.8665,-4.8493,-4.921,-5.0021,-5.0502,-5.1578,-5.2373,-5.2373,-5.2373,-5.2373,-5.2373,-5.2373,-5.2373,-5.2373,-5.2373,-5.2373,-5.2373,-5.2373,-5.2373,-5.2373,-5.2373,-5.2373,-5.2373,-5.2373,-5.2489,-5.2738,-5.2754,-5.3086,-5.3814,-5.4543,-5.4757,-5.4437,-5.4244,-5.3997,-5.3665,-5.2568,-5.2078,-5.2078,-5.1479,-5.1214,-5.1214,-5.1214,-5.1572,-5.226,-5.3459,-5.4147,-5.4553,-5.6083,-5.6508,-5.6257,-5.6603,-5.668,-5.668,-5.668,-5.668,-5.668,-5.668,-5.668,-5.668,-5.668,-5.668,-5.668,-5.668,-5.668,-5.668,-5.668,-5.668,-5.668,-5.668,-5.668,-5.668,-5.668,-5.668,-5.668,-5.668,-5.668,-5.668,-5.668,-5.668,-5.668,-5.668,-5.668,-5.668,-5.668,-5.668,-5.668,-5.668,-5.668,-5.668,-5.668,-5.668,-5.668,-5.668,-5.668,-5.5845,-5.4078,-5.3976,-5.3124,-5.1214,-5.1214,-5.1214,-5.1214,-5.1214,-5.1214,-2.7109,0.0,0.0,0.0,0.0,-3.8554,-4.116,0.0,-4.5388,-4.6029,-4.7338,-4.8597,-4.9342,-5.0667,-5.1728,-5.1976,-5.2224,-5.2373,-5.2373,-5.2373,-5.2373,-5.2373,-5.2373,-5.2373,-5.2373,-5.2373,-5.2373,-5.2373,-5.2373,-5.2373,-5.2373,-5.2373,-5.2373,-5.2373,-5.2373,-5.2605,-5.3069,-5.3781,-5.4146,-5.4162,-5.4003,-5.4065,-5.4292,-5.3168,-5.2818,-5.3035,-5.2426,-5.1819,-5.1214,-5.1572,-5.1987,-5.268,-5.3976,-5.4803,-5.5393,-5.6336,-5.668,-5.668,-5.668,-5.668,-5.668,-5.668,-5.668,-5.668,-5.668,-5.668,-5.668,-5.668,-5.668,-5.668,-5.668,-5.668,-5.668,-5.668,-5.668,-5.668,-5.668,-5.668,-5.668,-5.668,-5.668,-5.668,-5.668,-5.668,-5.668,-5.668,-5.668,-5.668,-5.668,-5.668,-5.668,-5.668,-5.668,-5.668,-5.668,-5.668,-5.668,-5.668,-5.668,-5.668,-5.668,-5.668,-5.5845,-5.4078,-5.3976,-5.3196,-5.165,-5.1386,-5.1386,-5.165,-5.1401,-5.1214,0.0,0.0,0.0,0.0,0.0,0.0,-4.1337,0.0,-4.1304,-4.3981,-4.5665,-4.6924,-4.7752,-4.9094,-5.032,-5.1065,-5.1827,-5.2324,-5.234,-5.2357,-5.2357,-5.2373,-5.2373,-5.2373,-5.2373,-5.2373,-5.2373,-5.2373,-5.2373,-5.2373,-5.2373,-5.2373,-5.2373,-5.2373,-5.2373,-5.2373,-5.2373,-5.3053,-5.3384,-5.34,-5.3269,-5.358,-5.4227,-5.3334,-5.3297,-5.4046,-5.3976,-5.2947,-5.1386,-5.226,-5.259,-5.2858,-5.4621,-5.5312,-5.5474,-5.6336,-5.668,-5.668,-5.668,-5.668,-5.668,-5.668,-5.668,-5.668,-5.668,-5.668,-5.668,-5.668,-5.668,-5.668,-5.668,-5.668,-5.668,-5.668,-5.668,-5.668,-5.668,-5.668,-5.668,-5.668,-5.668,-5.668,-5.668,-5.668,-5.668,-5.668,-5.668,-5.668,-5.668,-5.668,-5.668,-5.668,-5.668,-5.668,-5.668,-5.668,-5.668,-5.668,-5.668,-5.668,-5.668,-5.668,-5.5845,-5.4078,-5.3976,-5.3545,-5.2606,-5.165,-5.165,-5.2606,-5.165,-5.1229,-2.5479,0.0,0.0,0.0,0.0,0.0,0.0,0.0,-3.723,-4.0611,-4.1577,-4.2585,-4.513,-4.6378,-4.7421,-4.8696,-4.9972,-5.0982,-5.1512,-5.1578,-5.1777,-5.2324,-5.2373,-5.2373,-5.2373,-5.2373,-5.2373,-5.2373,-5.2373,-5.2373,-5.2373,-5.2373,-5.2373,-5.2373,-5.2373,-5.2373,-5.2373,-5.2572,-5.2672,-5.2672,-5.3148,-5.3428,-5.3658,-5.3806,-5.4051,-5.4195,-5.4026,-5.3734,-5.3212,-5.3474,-5.3632,-5.3719,-5.4886,-5.5732,-5.6336,-5.6603,-5.668,-5.668,-5.668,-5.668,-5.668,-5.668,-5.668,-5.668,-5.668,-5.668,-5.668,-5.668,-5.668,-5.668,-5.668,-5.668,-5.668,-5.668,-5.668,-5.668,-5.668,-5.668,-5.668,-5.668,-5.668,-5.668,-5.668,-5.668,-5.668,-5.668,-5.668,-5.668,-5.668,-5.668,-5.668,-5.668,-5.668,-5.668,-5.668,-5.668,-5.668,-5.668,-5.668,-5.668,-5.668,-5.668,-5.5845,-5.4078,-5.3976,-5.3891,-5.3632,-5.2002,-5.165,-5.2606,-5.165,-5.1468,-2.7562,-2.8268,-2.9844,-3.0858,0.0,0.0,-3.4446,-3.4576,-3.4904,0.0,-3.9729,-4.0758,-4.2924,-4.4175,-4.5268,-4.6427,-4.7603,-4.8945,-5.0601,-5.0833,-5.0999,-5.1429,-5.1744,-5.1926,-5.1926,-5.2208,-5.2373,-5.2373,-5.2373,-5.2373,-5.2373,-5.2373,-5.2373,-5.2373,-5.2373,-5.2373,-5.2373,-5.2373,-5.2373,-5.2373,-5.2788,-5.3135,-5.3434,-5.3738,-5.4125,-5.4375,-5.4584,-5.4484,-5.417,-5.4872,-5.4918,-5.4637,-5.5555,-5.6241,-5.668,-5.668,-5.668,-5.668,-5.668,-5.668,-5.668,-5.668,-5.668,-5.668,-5.668,-5.668,-5.668,-5.668,-5.668,-5.668,-5.668,-5.668,-5.668,-5.668,-5.668,-5.668,-5.668,-5.668,-5.668,-5.668,-5.668,-5.668,-5.668,-5.668,-5.668,-5.668,-5.668,-5.668,-5.668,-5.668,-5.668,-5.668,-5.668,-5.668,-5.668,-5.668,-5.668,-5.668,-5.668,-5.668,-5.668,-5.668,-5.5845,-5.4078,-5.3976,-5.3632,-5.2858,-5.1742,-5.1615,-5.2428,-5.2171,-5.2232,-3.0785,-3.0985,-3.2107,-3.4009,-3.2451,0.0,-3.5878,-3.477,-3.3727,0.0,-3.8553,-3.9668,-4.0646,-4.1976,-4.3223,-4.4105,-4.4942,-4.654,-4.9541,-5.0038,-5.0121,-5.0204,-5.0767,-5.1164,-5.1164,-5.1827,-5.2258,-5.2258,-5.2324,-5.2373,-5.2373,-5.2373,-5.2373,-5.2373,-5.2373,-5.2373,-5.2373,-5.2373,-5.2373,-5.2373,-5.2373,-5.2705,-5.3301,-5.3384,-5.3781,-5.4444,-5.5189,-5.5045,-5.4579,-5.5973,-5.6097,-5.5377,-5.6336,-5.668,-5.668,-5.668,-5.668,-5.668,-5.668,-5.668,-5.668,-5.668,-5.668,-5.668,-5.668,-5.668,-5.668,-5.668,-5.668,-5.668,-5.668,-5.668,-5.668,-5.668,-5.668,-5.668,-5.668,-5.668,-5.668,-5.668,-5.668,-5.668,-5.668,-5.668,-5.668,-5.668,-5.668,-5.668,-5.668,-5.668,-5.668,-5.668,-5.668,-5.668,-5.668,-5.668,-5.668,-5.668,-5.668,-5.668,-5.668,-5.668,-5.5845,-5.4078,-5.3976,-5.3124,-5.1401,-5.1479,-5.1732,-5.2217,-5.28,-5.3159,-3.428,-3.4715,-3.5476,-3.4009,-3.4154,0.0,-3.2649,-3.2301,-3.2594,0.0,-3.3328,-3.3925,-3.6705,-3.7923,-3.9157,-4.1136,-4.2743,-4.4834,-4.7983,-4.8945,-4.9541,-5.0154,-5.0336,-5.0419,-5.0419,-5.1065,-5.1496,-5.1496,-5.2042,-5.2373,-5.2373,-5.2373,-5.2373,-5.2373,-5.2373,-5.2373,-5.2373,-5.2373,-5.2373,-5.2373,-5.2373,-5.2456,-5.2605,-5.3152,-5.35,-5.3665,-5.4411,-5.4982,-5.5391,-5.5693,-5.5575,-5.5377,-5.6336,-5.668,-5.668,-5.668,-5.668,-5.668,-5.668,-5.668,-5.668,-5.668,-5.668,-5.668,-5.668,-5.668,-5.668,-5.668,-5.668,-5.668,-5.668,-5.668,-5.668,-5.668,-5.668,-5.668,-5.668,-5.668,-5.668,-5.668,-5.668,-5.668,-5.668,-5.668,-5.668,-5.668,-5.668,-5.668,-5.668,-5.668,-5.668,-5.668,-5.668,-5.668,-5.668,-5.668,-5.668,-5.668,-5.668,-5.668,-5.668,-5.668,-5.5845,-5.4078,-5.3976,-5.3474,-5.2351,-5.3124,-5.3034,-5.2202,-5.2336,-5.2965,-3.7631,-3.7576,-3.7975,-3.716,-3.6671,0.0,0.0,-3.3849,-3.3508,-3.5307,-3.4088,-3.3644,-3.6891,-3.7396,-3.7964,-3.9841,-4.158,-4.336,-4.5175,-4.6257,-4.7173,-4.7918,-4.8017,-4.8299,-4.9044,-4.9773,-5.0353,-5.0717,-5.1413,-5.1827,-5.1827,-5.2175,-5.2373,-5.2373,-5.2373,-5.2373,-5.2373,-5.2373,-5.2373,-5.2373,-5.2373,-5.2373,-5.239,-5.2738,-5.2904,-5.2937,-5.3665,-5.4179,-5.4576,-5.5322,-5.5496,-5.5513,-5.6376,-5.668,-5.668,-5.668,-5.668,-5.668,-5.668,-5.668,-5.668,-5.668,-5.668,-5.668,-5.668,-5.668,-5.668,-5.668,-5.668,-5.668,-5.668,-5.668,-5.668,-5.668,-5.668,-5.668,-5.668,-5.668,-5.668,-5.668,-5.668,-5.668,-5.668,-5.668,-5.668,-5.668,-5.668,-5.668,-5.668,-5.668,-5.668,-5.668,-5.668,-5.668,-5.668,-5.668,-5.668,-5.668,-5.668,-5.668,-5.668,-5.668,-5.6083,-5.4653,-5.4637,-5.3961,-5.2606,-5.3545,-5.3563,-5.2695,-5.3039,-5.3743,-4.0944,-4.0528,-4.0727,-4.0546,-3.9532,-3.8433,0.0,0.0,0.0,-3.74,-3.5735,-3.4766,0.0,0.0,0.0,-3.8825,0.0,0.0,0.0,-4.2824,0.0,-4.5186,-4.5346,-4.5897,-4.7239,-4.7785,-4.8531,-4.9707,-5.0055,-5.0469,-5.1048,-5.1777,-5.2224,-5.2373,-5.2373,-5.2373,-5.2373,-5.2373,-5.2373,-5.2373,-5.2373,-5.2373,-5.2373,-5.2373,-5.2373,-5.2407,-5.297,-5.3284,-5.35,-5.4709,-5.5289,-5.5504,-5.6349,-5.668,-5.668,-5.668,-5.668,-5.668,-5.668,-5.668,-5.668,-5.668,-5.668,-5.668,-5.668,-5.668,-5.668,-5.668,-5.668,-5.668,-5.668,-5.668,-5.668,-5.668,-5.668,-5.668,-5.668,-5.668,-5.668,-5.668,-5.668,-5.668,-5.668,-5.668,-5.668,-5.668,-5.668,-5.668,-5.668,-5.668,-5.668,-5.668,-5.668,-5.668,-5.668,-5.668,-5.668,-5.668,-5.668,-5.668,-5.668,-5.6525,-5.6162,-5.5555,-5.5393,-5.4453,-5.2858,-5.3632,-5.3734,-5.3189,-5.3758,-5.4446,-4.4222,-4.4603,-4.4874,-4.1379,-4.2448,-4.2737,-3.6479,0.0,-3.6988,-3.4524,0.0,-3.4037,0.0,0.0,0.0,-3.6859,0.0,0.0,-3.7761,-3.8728,-4.056,-4.3199,-4.3681,-4.4191,-4.4986,-4.4572,-4.5351,-4.805,-4.7106,-4.757,-5.0204,-5.1015,-5.1694,-5.2357,-5.2373,-5.2373,-5.2373,-5.2373,-5.2373,-5.2373,-5.2373,-5.2373,-5.2373,-5.2373,-5.2373,-5.2373,-5.2473,-5.2854,-5.3434,-5.3599,-5.4046,-5.4775,-5.615,-5.668,-5.668,-5.668,-5.668,-5.668,-5.668,-5.668,-5.668,-5.668,-5.668,-5.668,-5.668,-5.668,-5.668,-5.668,-5.668,-5.668,-5.668,-5.668,-5.668,-5.668,-5.668,-5.668,-5.668,-5.668,-5.668,-5.668,-5.668,-5.668,-5.668,-5.668,-5.668,-5.668,-5.668,-5.668,-5.668,-5.668,-5.668,-5.668,-5.668,-5.668,-5.668,-5.668,-5.668,-5.668,-5.668,-5.668,-5.668,-5.5908,-5.5812,-5.6525,-5.5732,-5.4803,-5.3805,-5.3992,-5.3734,-5.3174,-5.3264,-5.3982,-4.4621,-4.5273,-4.587,-4.3244,-4.3244,-4.2864,-3.8934,-3.7757,-3.7504,-3.7522,0.0,0.0,0.0,0.0,0.0,0.0,-3.7429,0.0,0.0,0.0,-3.7602,-4.0323,-4.0154,-4.0613,-4.2601,-4.2518,-4.3214,-4.5301,-4.4887,-4.5632,-4.815,-4.9806,-5.0999,-5.1711,-5.2158,-5.2373,-5.2373,-5.2373,-5.2373,-5.2373,-5.2373,-5.2373,-5.2373,-5.2373,-5.2373,-5.2373,-5.2373,-5.2539,-5.2837,-5.3251,-5.3599,-5.398,-5.5024,-5.5686,-5.6117,-5.6531,-5.668,-5.668,-5.668,-5.668,-5.668,-5.668,-5.668,-5.668,-5.668,-5.668,-5.668,-5.668,-5.668,-5.668,-5.668,-5.668,-5.668,-5.668,-5.668,-5.668,-5.668,-5.668,-5.668,-5.668,-5.668,-5.668,-5.668,-5.668,-5.668,-5.668,-5.668,-5.668,-5.668,-5.668,-5.668,-5.668,-5.668,-5.668,-5.668,-5.668,-5.668,-5.668,-5.668,-5.668,-5.668,-5.6336,-5.6336,-5.668,-5.6336,-5.541,-5.3976,-5.3976,-5.3532,-5.2621,-5.2621,-5.3339,-4.558,-4.6269,-4.6884,-4.4385,-4.3498,-4.2629,-4.0383,-3.9043,-3.8645,-3.993,-3.8427,0.0,0.0,0.0,-3.6772,-3.7133,0.0,-3.6682,-3.4983,-3.4561,0.0,0.0,-3.7715,-3.8351,-4.0332,-3.9984,-4.0498,-4.2585,-4.217,-4.323,-4.6427,-4.8514,-5.0121,-5.1231,-5.1993,-5.2373,-5.2373,-5.2373,-5.2373,-5.2373,-5.2373,-5.2373,-5.2373,-5.2373,-5.2373,-5.2373,-5.2373,-5.2373,-5.2423,-5.292,-5.3135,-5.3202,-5.393,-5.4543,-5.5123,-5.6051,-5.6398,-5.6432,-5.6614,-5.668,-5.668,-5.668,-5.668,-5.668,-5.668,-5.668,-5.668,-5.668,-5.668,-5.668,-5.668,-5.668,-5.668,-5.668,-5.668,-5.668,-5.668,-5.668,-5.668,-5.668,-5.668,-5.668,-5.668,-5.668,-5.668,-5.668,-5.668,-5.668,-5.668,-5.668,-5.668,-5.668,-5.668,-5.668,-5.668,-5.668,-5.668,-5.668,-5.668,-5.668,-5.668,-5.668,-5.668,-5.668,-5.668,-5.5845,-5.3976,-5.3976,-5.3299,-5.1932,-5.2112,-5.292,-4.8242,-4.8749,-4.884,-4.4114,-4.3498,-4.3045,-3.9152,-3.9967,-4.1162,-3.9731,-4.1126,-4.2429,-4.1759,-4.0347,-3.9025,-3.8282,-3.7985,0.0,0.0,-3.309,0.0,0.0,0.0,0.0,0.0,-3.6373,-3.6605,-4.0216,-3.851,-3.9802,-4.5516,-4.7255,-4.9061,-5.1214,-5.1993,-5.2373,-5.2373,-5.2373,-5.2373,-5.2373,-5.2373,-5.2373,-5.2373,-5.2373,-5.2373,-5.2373,-5.2373,-5.2373,-5.2373,-5.2407,-5.2407,-5.2489,-5.3185,-5.3467,-5.3665,-5.5123,-5.567,-5.5752,-5.6448,-5.668,-5.668,-5.668,-5.668,-5.668,-5.668,-5.668,-5.668,-5.668,-5.668,-5.668,-5.668,-5.668,-5.668,-5.668,-5.668,-5.668,-5.668,-5.668,-5.668,-5.668,-5.668,-5.668,-5.668,-5.668,-5.668,-5.668,-5.668,-5.668,-5.668,-5.668,-5.668,-5.668,-5.668,-5.668,-5.668,-5.668,-5.668,-5.668,-5.668,-5.668,-5.668,-5.668,-5.668,-5.668,-5.668,-5.5845,-5.3976,-5.3976,-5.3051,-5.1274,-5.1902,-5.292,-4.8565,-4.9478,-4.974,-4.6073,-4.4953,-4.387,-4.0474,-4.0763,-4.127,-3.9713,-4.127,-4.2484,-4.1162,-4.0075,-3.9134,-3.8319,-3.7,-3.513,0.0,-3.1351,0.0,0.0,0.0,0.0,0.0,-3.4767,-3.5611,-3.735,-3.7698,-3.9537,-4.3413,-4.5947,-4.8067,-4.979,-5.1015,-5.1893,-5.2373,-5.2373,-5.2373,-5.2373,-5.2373,-5.2373,-5.2373,-5.2373,-5.2373,-5.2373,-5.2373,-5.2373,-5.2373,-5.2373,-5.2373,-5.2407,-5.2638,-5.2738,-5.2904,-5.4361,-5.5206,-5.5736,-5.6432,-5.668,-5.668,-5.668,-5.668,-5.668,-5.668,-5.668,-5.668,-5.668,-5.668,-5.668,-5.668,-5.668,-5.668,-5.668,-5.668,-5.668,-5.668,-5.668,-5.668,-5.668,-5.668,-5.668,-5.668,-5.668,-5.668,-5.668,-5.668,-5.668,-5.668,-5.668,-5.668,-5.668,-5.668,-5.668,-5.668,-5.668,-5.668,-5.668,-5.668,-5.668,-5.668,-5.668,-5.668,-5.668,-5.6083,-5.5149,-5.3976,-5.3387,-5.2426,-5.1229,-5.1454,-5.2037,-4.9685,-5.0262,-5.0307,-4.7432,-4.6314,-4.5065,-4.1973,-4.2354,-4.2878,-4.1324,-4.2464,-4.3568,-4.3039,-4.1432,-3.9913,-3.9029,-3.7109,-3.4545,0.0,-3.0263,-2.9725,0.0,0.0,0.0,0.0,-3.3243,-3.4187,-3.6241,-3.6555,-3.8361,0.0,-4.4804,-4.7023,-4.9044,-5.0518,-5.1628,-5.2373,-5.2373,-5.2373,-5.2373,-5.2373,-5.2373,-5.2373,-5.2373,-5.2373,-5.2373,-5.2373,-5.2373,-5.2373,-5.2373,-5.2373,-5.2373,-5.2373,-5.2373,-5.2523,-5.3699,-5.4759,-5.5686,-5.615,-5.6481,-5.668,-5.668,-5.668,-5.668,-5.668,-5.668,-5.668,-5.668,-5.668,-5.668,-5.668,-5.668,-5.668,-5.668,-5.668,-5.668,-5.668,-5.668,-5.668,-5.668,-5.668,-5.668,-5.668,-5.668,-5.668,-5.668,-5.668,-5.668,-5.668,-5.668,-5.668,-5.668,-5.668,-5.668,-5.668,-5.668,-5.668,-5.668,-5.668,-5.668,-5.668,-5.668,-5.668,-5.668,-5.5812,-5.4886,-5.3976,-5.3035,-5.2078,-5.1214,-5.1214,-5.1454]}]]